<?xml version='1.0' encoding='UTF-8'?>
<gpx version="1.1" creator="https://www.komoot.de" xmlns="http://www.topografix.com/GPX/1/1" xmlns:xsi="http://www.w3.org/2001/XMLSchema-instance" xsi:schemaLocation="http://www.topografix.com/GPX/1/1 http://www.topografix.com/GPX/1/1/gpx.xsd">
  <metadata>
    <name>57_630Moenthal</name>
    <author>
      <link href="https://www.komoot.de">
        <text>komoot</text>
        <type>text/html</type>
      </link>
    </author>
  </metadata>
  <trk>
    <name>57_630Moenthal</name>
    <trkseg>
      <trkpt lat="47.541164" lon="7.870995">
        <ele>340.552382</ele>
        <time>2021-11-14T19:06:09.758Z</time>
      </trkpt>
      <trkpt lat="47.541410" lon="7.870791">
        <ele>340.552382</ele>
        <time>2021-11-14T19:06:14.456Z</time>
      </trkpt>
      <trkpt lat="47.541576" lon="7.870664">
        <ele>340.552382</ele>
        <time>2021-11-14T19:06:18.579Z</time>
      </trkpt>
      <trkpt lat="47.541796" lon="7.871042">
        <ele>340.552382</ele>
        <time>2021-11-14T19:06:25.762Z</time>
      </trkpt>
      <trkpt lat="47.541953" lon="7.871286">
        <ele>341.007485</ele>
        <time>2021-11-14T19:06:30.527Z</time>
      </trkpt>
      <trkpt lat="47.542039" lon="7.871556">
        <ele>341.692472</ele>
        <time>2021-11-14T19:06:35.012Z</time>
      </trkpt>
      <trkpt lat="47.542067" lon="7.871664">
        <ele>341.957914</ele>
        <time>2021-11-14T19:06:36.588Z</time>
      </trkpt>
      <trkpt lat="47.542091" lon="7.871721">
        <ele>342.112050</ele>
        <time>2021-11-14T19:06:37.187Z</time>
      </trkpt>
      <trkpt lat="47.542218" lon="7.871866">
        <ele>342.657034</ele>
        <time>2021-11-14T19:06:42.402Z</time>
      </trkpt>
      <trkpt lat="47.542394" lon="7.872341">
        <ele>343.900250</ele>
        <time>2021-11-14T19:06:52.477Z</time>
      </trkpt>
      <trkpt lat="47.542436" lon="7.872494">
        <ele>344.279206</ele>
        <time>2021-11-14T19:06:55.808Z</time>
      </trkpt>
      <trkpt lat="47.542537" lon="7.872430">
        <ele>344.652579</ele>
        <time>2021-11-14T19:06:57.843Z</time>
      </trkpt>
      <trkpt lat="47.542714" lon="7.872334">
        <ele>345.293232</ele>
        <time>2021-11-14T19:07:04.956Z</time>
      </trkpt>
      <trkpt lat="47.542814" lon="7.872280">
        <ele>345.654996</ele>
        <time>2021-11-14T19:07:07.833Z</time>
      </trkpt>
      <trkpt lat="47.542919" lon="7.872226">
        <ele>346.032771</ele>
        <time>2021-11-14T19:07:11.674Z</time>
      </trkpt>
      <trkpt lat="47.543013" lon="7.872182">
        <ele>346.367834</ele>
        <time>2021-11-14T19:07:15.304Z</time>
      </trkpt>
      <trkpt lat="47.543233" lon="7.872082">
        <ele>347.542595</ele>
        <time>2021-11-14T19:07:22.402Z</time>
      </trkpt>
      <trkpt lat="47.543251" lon="7.872152">
        <ele>347.853790</ele>
        <time>2021-11-14T19:07:25.816Z</time>
      </trkpt>
      <trkpt lat="47.543332" lon="7.872237">
        <ele>348.464696</ele>
        <time>2021-11-14T19:07:29.226Z</time>
      </trkpt>
      <trkpt lat="47.544390" lon="7.872423">
        <ele>355.021743</ele>
        <time>2021-11-14T19:08:10.858Z</time>
      </trkpt>
      <trkpt lat="47.544883" lon="7.872555">
        <ele>358.140189</ele>
        <time>2021-11-14T19:08:33.200Z</time>
      </trkpt>
      <trkpt lat="47.545131" lon="7.872664">
        <ele>359.883677</ele>
        <time>2021-11-14T19:08:44.204Z</time>
      </trkpt>
      <trkpt lat="47.545375" lon="7.872836">
        <ele>361.704873</ele>
        <time>2021-11-14T19:08:55.145Z</time>
      </trkpt>
      <trkpt lat="47.545478" lon="7.872968">
        <ele>362.622776</ele>
        <time>2021-11-14T19:09:01.953Z</time>
      </trkpt>
      <trkpt lat="47.545515" lon="7.873015">
        <ele>362.951269</ele>
        <time>2021-11-14T19:09:03.909Z</time>
      </trkpt>
      <trkpt lat="47.545746" lon="7.873302">
        <ele>364.983200</ele>
        <time>2021-11-14T19:09:17.109Z</time>
      </trkpt>
      <trkpt lat="47.545934" lon="7.873549">
        <ele>366.676780</ele>
        <time>2021-11-14T19:09:27.209Z</time>
      </trkpt>
      <trkpt lat="47.546077" lon="7.873763">
        <ele>368.046719</ele>
        <time>2021-11-14T19:09:36.405Z</time>
      </trkpt>
      <trkpt lat="47.546135" lon="7.873859">
        <ele>368.632852</ele>
        <time>2021-11-14T19:09:39.645Z</time>
      </trkpt>
      <trkpt lat="47.546309" lon="7.874154">
        <ele>370.212399</ele>
        <time>2021-11-14T19:09:50.759Z</time>
      </trkpt>
      <trkpt lat="47.547126" lon="7.875801">
        <ele>376.128431</ele>
        <time>2021-11-14T19:10:36.520Z</time>
      </trkpt>
      <trkpt lat="47.547574" lon="7.876801">
        <ele>377.495260</ele>
        <time>2021-11-14T19:10:55.516Z</time>
      </trkpt>
      <trkpt lat="47.547992" lon="7.877974">
        <ele>377.352755</ele>
        <time>2021-11-14T19:11:08.317Z</time>
      </trkpt>
      <trkpt lat="47.548234" lon="7.878638">
        <ele>376.969658</ele>
        <time>2021-11-14T19:11:13.629Z</time>
      </trkpt>
      <trkpt lat="47.548422" lon="7.878959">
        <ele>375.838359</ele>
        <time>2021-11-14T19:11:16.472Z</time>
      </trkpt>
      <trkpt lat="47.548718" lon="7.879258">
        <ele>374.425496</ele>
        <time>2021-11-14T19:11:20.010Z</time>
      </trkpt>
      <trkpt lat="47.549140" lon="7.879391">
        <ele>372.723992</ele>
        <time>2021-11-14T19:11:24.197Z</time>
      </trkpt>
      <trkpt lat="47.549318" lon="7.879398">
        <ele>372.021755</ele>
        <time>2021-11-14T19:11:25.824Z</time>
      </trkpt>
      <trkpt lat="47.549327" lon="7.879547">
        <ele>371.623553</ele>
        <time>2021-11-14T19:11:26.810Z</time>
      </trkpt>
      <trkpt lat="47.549726" lon="7.880786">
        <ele>368.081443</ele>
        <time>2021-11-14T19:11:35.745Z</time>
      </trkpt>
      <trkpt lat="47.549927" lon="7.881490">
        <ele>366.149398</ele>
        <time>2021-11-14T19:11:40.777Z</time>
      </trkpt>
      <trkpt lat="47.550234" lon="7.883221">
        <ele>361.464191</ele>
        <time>2021-11-14T19:11:53.177Z</time>
      </trkpt>
      <trkpt lat="47.550332" lon="7.884727">
        <ele>357.302508</ele>
        <time>2021-11-14T19:12:03.022Z</time>
      </trkpt>
      <trkpt lat="47.550391" lon="7.885109">
        <ele>356.224602</ele>
        <time>2021-11-14T19:12:05.554Z</time>
      </trkpt>
      <trkpt lat="47.550548" lon="7.885799">
        <ele>353.550194</ele>
        <time>2021-11-14T19:12:10.159Z</time>
      </trkpt>
      <trkpt lat="47.550677" lon="7.886476">
        <ele>350.932630</ele>
        <time>2021-11-14T19:12:14.589Z</time>
      </trkpt>
      <trkpt lat="47.550758" lon="7.887295">
        <ele>347.852616</ele>
        <time>2021-11-14T19:12:19.731Z</time>
      </trkpt>
      <trkpt lat="47.550789" lon="7.887816">
        <ele>345.865229</ele>
        <time>2021-11-14T19:12:22.963Z</time>
      </trkpt>
      <trkpt lat="47.550831" lon="7.888611">
        <ele>342.493789</ele>
        <time>2021-11-14T19:12:27.919Z</time>
      </trkpt>
      <trkpt lat="47.550833" lon="7.889069">
        <ele>340.557384</ele>
        <time>2021-11-14T19:12:30.729Z</time>
      </trkpt>
      <trkpt lat="47.550915" lon="7.890600">
        <ele>334.287452</ele>
        <time>2021-11-14T19:12:40.122Z</time>
      </trkpt>
      <trkpt lat="47.550904" lon="7.891725">
        <ele>330.740032</ele>
        <time>2021-11-14T19:12:47.125Z</time>
      </trkpt>
      <trkpt lat="47.550892" lon="7.893176">
        <ele>326.426322</ele>
        <time>2021-11-14T19:12:56.738Z</time>
      </trkpt>
      <trkpt lat="47.550908" lon="7.894308">
        <ele>325.344257</ele>
        <time>2021-11-14T19:13:05.943Z</time>
      </trkpt>
      <trkpt lat="47.550878" lon="7.895158">
        <ele>324.530820</ele>
        <time>2021-11-14T19:13:13.128Z</time>
      </trkpt>
      <trkpt lat="47.550838" lon="7.895509">
        <ele>324.190629</ele>
        <time>2021-11-14T19:13:16.292Z</time>
      </trkpt>
      <trkpt lat="47.550660" lon="7.896255">
        <ele>323.070214</ele>
        <time>2021-11-14T19:13:22.780Z</time>
      </trkpt>
      <trkpt lat="47.550639" lon="7.896345">
        <ele>322.919891</ele>
        <time>2021-11-14T19:13:23.967Z</time>
      </trkpt>
      <trkpt lat="47.550648" lon="7.896481">
        <ele>322.704173</ele>
        <time>2021-11-14T19:13:24.923Z</time>
      </trkpt>
      <trkpt lat="47.550819" lon="7.898109">
        <ele>320.103302</ele>
        <time>2021-11-14T19:13:36.670Z</time>
      </trkpt>
      <trkpt lat="47.550801" lon="7.900244">
        <ele>314.281857</ele>
        <time>2021-11-14T19:13:50.508Z</time>
      </trkpt>
      <trkpt lat="47.550769" lon="7.901362">
        <ele>311.231888</ele>
        <time>2021-11-14T19:13:57.780Z</time>
      </trkpt>
      <trkpt lat="47.550757" lon="7.901591">
        <ele>310.657631</ele>
        <time>2021-11-14T19:13:59.916Z</time>
      </trkpt>
      <trkpt lat="47.550688" lon="7.902451">
        <ele>308.492360</ele>
        <time>2021-11-14T19:14:08.350Z</time>
      </trkpt>
      <trkpt lat="47.550498" lon="7.903445">
        <ele>305.909462</ele>
        <time>2021-11-14T19:14:18.600Z</time>
      </trkpt>
      <trkpt lat="47.550302" lon="7.904164">
        <ele>303.935876</ele>
        <time>2021-11-14T19:14:25.860Z</time>
      </trkpt>
      <trkpt lat="47.550025" lon="7.904774">
        <ele>302.056881</ele>
        <time>2021-11-14T19:14:32.785Z</time>
      </trkpt>
      <trkpt lat="47.549868" lon="7.905010">
        <ele>301.209993</ele>
        <time>2021-11-14T19:14:35.916Z</time>
      </trkpt>
      <trkpt lat="47.549867" lon="7.905155">
        <ele>300.839391</ele>
        <time>2021-11-14T19:14:37.313Z</time>
      </trkpt>
      <trkpt lat="47.550067" lon="7.905245">
        <ele>300.047915</ele>
        <time>2021-11-14T19:14:40.238Z</time>
      </trkpt>
      <trkpt lat="47.550283" lon="7.905413">
        <ele>299.124164</ele>
        <time>2021-11-14T19:14:43.687Z</time>
      </trkpt>
      <trkpt lat="47.550497" lon="7.905558">
        <ele>298.396443</ele>
        <time>2021-11-14T19:14:47.047Z</time>
      </trkpt>
      <trkpt lat="47.549539" lon="7.908625">
        <ele>293.217371</ele>
        <time>2021-11-14T19:15:11.504Z</time>
      </trkpt>
      <trkpt lat="47.549520" lon="7.908678">
        <ele>293.155278</ele>
        <time>2021-11-14T19:15:11.996Z</time>
      </trkpt>
      <trkpt lat="47.549320" lon="7.909342">
        <ele>292.402946</ele>
        <time>2021-11-14T19:15:17.898Z</time>
      </trkpt>
      <trkpt lat="47.549244" lon="7.909593">
        <ele>292.118306</ele>
        <time>2021-11-14T19:15:20.186Z</time>
      </trkpt>
      <trkpt lat="47.549195" lon="7.909756">
        <ele>291.933681</ele>
        <time>2021-11-14T19:15:21.621Z</time>
      </trkpt>
      <trkpt lat="47.549102" lon="7.910058">
        <ele>291.590221</ele>
        <time>2021-11-14T19:15:24.346Z</time>
      </trkpt>
      <trkpt lat="47.549012" lon="7.910340">
        <ele>291.303003</ele>
        <time>2021-11-14T19:15:26.839Z</time>
      </trkpt>
      <trkpt lat="47.548412" lon="7.912168">
        <ele>289.760790</ele>
        <time>2021-11-14T19:15:43.168Z</time>
      </trkpt>
      <trkpt lat="47.548027" lon="7.913334">
        <ele>289.139561</ele>
        <time>2021-11-14T19:15:53.929Z</time>
      </trkpt>
      <trkpt lat="47.547994" lon="7.913433">
        <ele>289.106309</ele>
        <time>2021-11-14T19:15:54.849Z</time>
      </trkpt>
      <trkpt lat="47.547423" lon="7.915080">
        <ele>288.602332</ele>
        <time>2021-11-14T19:16:12.338Z</time>
      </trkpt>
      <trkpt lat="47.547113" lon="7.915971">
        <ele>288.885586</ele>
        <time>2021-11-14T19:16:22.976Z</time>
      </trkpt>
      <trkpt lat="47.547091" lon="7.916039">
        <ele>288.906894</ele>
        <time>2021-11-14T19:16:24.026Z</time>
      </trkpt>
      <trkpt lat="47.547032" lon="7.916218">
        <ele>288.963184</ele>
        <time>2021-11-14T19:16:26.296Z</time>
      </trkpt>
      <trkpt lat="47.546821" lon="7.916867">
        <ele>289.166741</ele>
        <time>2021-11-14T19:16:34.711Z</time>
      </trkpt>
      <trkpt lat="47.546262" lon="7.919081">
        <ele>289.802087</ele>
        <time>2021-11-14T19:17:02.373Z</time>
      </trkpt>
      <trkpt lat="47.546128" lon="7.919617">
        <ele>289.953179</ele>
        <time>2021-11-14T19:17:07.801Z</time>
      </trkpt>
      <trkpt lat="47.545973" lon="7.920313">
        <ele>290.286059</ele>
        <time>2021-11-14T19:17:15.220Z</time>
      </trkpt>
      <trkpt lat="47.545913" lon="7.920765">
        <ele>290.557529</ele>
        <time>2021-11-14T19:17:19.978Z</time>
      </trkpt>
      <trkpt lat="47.545881" lon="7.921096">
        <ele>290.754581</ele>
        <time>2021-11-14T19:17:23.945Z</time>
      </trkpt>
      <trkpt lat="47.545810" lon="7.921755">
        <ele>291.147852</ele>
        <time>2021-11-14T19:17:32.555Z</time>
      </trkpt>
      <trkpt lat="47.545778" lon="7.921947">
        <ele>291.264398</ele>
        <time>2021-11-14T19:17:35.508Z</time>
      </trkpt>
      <trkpt lat="47.545714" lon="7.922249">
        <ele>291.450936</ele>
        <time>2021-11-14T19:17:39.362Z</time>
      </trkpt>
      <trkpt lat="47.545699" lon="7.922325">
        <ele>291.497599</ele>
        <time>2021-11-14T19:17:40.559Z</time>
      </trkpt>
      <trkpt lat="47.545690" lon="7.922369">
        <ele>291.524693</ele>
        <time>2021-11-14T19:17:41.631Z</time>
      </trkpt>
      <trkpt lat="47.545641" lon="7.922610">
        <ele>291.864808</ele>
        <time>2021-11-14T19:17:44.986Z</time>
      </trkpt>
      <trkpt lat="47.545587" lon="7.922895">
        <ele>292.524290</ele>
        <time>2021-11-14T19:17:49.818Z</time>
      </trkpt>
      <trkpt lat="47.545553" lon="7.923142">
        <ele>293.085899</ele>
        <time>2021-11-14T19:17:53.429Z</time>
      </trkpt>
      <trkpt lat="47.545536" lon="7.923407">
        <ele>293.678944</ele>
        <time>2021-11-14T19:17:58.305Z</time>
      </trkpt>
      <trkpt lat="47.545521" lon="7.923709">
        <ele>294.353579</ele>
        <time>2021-11-14T19:18:03.472Z</time>
      </trkpt>
      <trkpt lat="47.545481" lon="7.924396">
        <ele>295.889808</ele>
        <time>2021-11-14T19:18:18.075Z</time>
      </trkpt>
      <trkpt lat="47.545466" lon="7.924880">
        <ele>296.969233</ele>
        <time>2021-11-14T19:18:29.381Z</time>
      </trkpt>
      <trkpt lat="47.545446" lon="7.925350">
        <ele>297.952100</ele>
        <time>2021-11-14T19:18:39.756Z</time>
      </trkpt>
      <trkpt lat="47.545417" lon="7.925848">
        <ele>298.911184</ele>
        <time>2021-11-14T19:18:50.235Z</time>
      </trkpt>
      <trkpt lat="47.545409" lon="7.926773">
        <ele>300.686169</ele>
        <time>2021-11-14T19:19:07.436Z</time>
      </trkpt>
      <trkpt lat="47.545407" lon="7.927001">
        <ele>301.123680</ele>
        <time>2021-11-14T19:19:11.245Z</time>
      </trkpt>
      <trkpt lat="47.545406" lon="7.927306">
        <ele>301.708905</ele>
        <time>2021-11-14T19:19:15.850Z</time>
      </trkpt>
      <trkpt lat="47.545421" lon="7.927686">
        <ele>302.439273</ele>
        <time>2021-11-14T19:19:21.385Z</time>
      </trkpt>
      <trkpt lat="47.545475" lon="7.928419">
        <ele>302.260603</ele>
        <time>2021-11-14T19:19:30.703Z</time>
      </trkpt>
      <trkpt lat="47.545563" lon="7.929641">
        <ele>301.489536</ele>
        <time>2021-11-14T19:19:40.582Z</time>
      </trkpt>
      <trkpt lat="47.545661" lon="7.930955">
        <ele>300.440843</ele>
        <time>2021-11-14T19:19:49.978Z</time>
      </trkpt>
      <trkpt lat="47.545696" lon="7.931497">
        <ele>299.866135</ele>
        <time>2021-11-14T19:19:53.947Z</time>
      </trkpt>
      <trkpt lat="47.545721" lon="7.931992">
        <ele>299.342189</ele>
        <time>2021-11-14T19:19:57.739Z</time>
      </trkpt>
      <trkpt lat="47.545724" lon="7.932758">
        <ele>298.533643</ele>
        <time>2021-11-14T19:20:03.949Z</time>
      </trkpt>
      <trkpt lat="47.545702" lon="7.933290">
        <ele>298.250066</ele>
        <time>2021-11-14T19:20:08.592Z</time>
      </trkpt>
      <trkpt lat="47.545674" lon="7.933625">
        <ele>298.396516</ele>
        <time>2021-11-14T19:20:11.792Z</time>
      </trkpt>
      <trkpt lat="47.545457" lon="7.935110">
        <ele>299.055712</ele>
        <time>2021-11-14T19:20:29.927Z</time>
      </trkpt>
      <trkpt lat="47.545074" lon="7.936484">
        <ele>300.315351</ele>
        <time>2021-11-14T19:20:51.454Z</time>
      </trkpt>
      <trkpt lat="47.544903" lon="7.936917">
        <ele>300.889003</ele>
        <time>2021-11-14T19:20:58.771Z</time>
      </trkpt>
      <trkpt lat="47.544705" lon="7.937395">
        <ele>301.530311</ele>
        <time>2021-11-14T19:21:06.955Z</time>
      </trkpt>
      <trkpt lat="47.544472" lon="7.937932">
        <ele>302.260295</ele>
        <time>2021-11-14T19:21:16.362Z</time>
      </trkpt>
      <trkpt lat="47.543826" lon="7.939433">
        <ele>304.363634</ele>
        <time>2021-11-14T19:21:43.244Z</time>
      </trkpt>
      <trkpt lat="47.543435" lon="7.940670">
        <ele>305.743388</ele>
        <time>2021-11-14T19:22:03.204Z</time>
      </trkpt>
      <trkpt lat="47.543161" lon="7.942213">
        <ele>306.646458</ele>
        <time>2021-11-14T19:22:24.053Z</time>
      </trkpt>
      <trkpt lat="47.543007" lon="7.943867">
        <ele>306.121550</ele>
        <time>2021-11-14T19:22:39.598Z</time>
      </trkpt>
      <trkpt lat="47.542913" lon="7.945267">
        <ele>304.817318</ele>
        <time>2021-11-14T19:22:50.357Z</time>
      </trkpt>
      <trkpt lat="47.542872" lon="7.945781">
        <ele>304.143683</ele>
        <time>2021-11-14T19:22:53.953Z</time>
      </trkpt>
      <trkpt lat="47.542875" lon="7.946089">
        <ele>303.613953</ele>
        <time>2021-11-14T19:22:56.044Z</time>
      </trkpt>
      <trkpt lat="47.542902" lon="7.946514">
        <ele>302.879840</ele>
        <time>2021-11-14T19:22:58.923Z</time>
      </trkpt>
      <trkpt lat="47.542943" lon="7.946806">
        <ele>302.366933</ele>
        <time>2021-11-14T19:23:00.970Z</time>
      </trkpt>
      <trkpt lat="47.542974" lon="7.946965">
        <ele>302.082320</ele>
        <time>2021-11-14T19:23:02.181Z</time>
      </trkpt>
      <trkpt lat="47.542979" lon="7.946989">
        <ele>302.039126</ele>
        <time>2021-11-14T19:23:02.336Z</time>
      </trkpt>
      <trkpt lat="47.543007" lon="7.947104">
        <ele>301.828887</ele>
        <time>2021-11-14T19:23:03.185Z</time>
      </trkpt>
      <trkpt lat="47.543087" lon="7.947317">
        <ele>301.409705</ele>
        <time>2021-11-14T19:23:04.927Z</time>
      </trkpt>
      <trkpt lat="47.543191" lon="7.947615">
        <ele>300.832792</ele>
        <time>2021-11-14T19:23:07.369Z</time>
      </trkpt>
      <trkpt lat="47.543242" lon="7.947745">
        <ele>300.574216</ele>
        <time>2021-11-14T19:23:08.498Z</time>
      </trkpt>
      <trkpt lat="47.543273" lon="7.947816">
        <ele>300.428801</ele>
        <time>2021-11-14T19:23:09.126Z</time>
      </trkpt>
      <trkpt lat="47.543358" lon="7.947967">
        <ele>300.090683</ele>
        <time>2021-11-14T19:23:10.568Z</time>
      </trkpt>
      <trkpt lat="47.543455" lon="7.948127">
        <ele>299.936146</ele>
        <time>2021-11-14T19:23:12.235Z</time>
      </trkpt>
      <trkpt lat="47.543532" lon="7.948214">
        <ele>299.892847</ele>
        <time>2021-11-14T19:23:13.316Z</time>
      </trkpt>
      <trkpt lat="47.543579" lon="7.948287">
        <ele>299.862400</ele>
        <time>2021-11-14T19:23:14.079Z</time>
      </trkpt>
      <trkpt lat="47.543760" lon="7.948548">
        <ele>299.749464</ele>
        <time>2021-11-14T19:23:16.968Z</time>
      </trkpt>
      <trkpt lat="47.543864" lon="7.948694">
        <ele>299.685401</ele>
        <time>2021-11-14T19:23:18.640Z</time>
      </trkpt>
      <trkpt lat="47.544239" lon="7.949202">
        <ele>299.458201</ele>
        <time>2021-11-14T19:23:26.001Z</time>
      </trkpt>
      <trkpt lat="47.544521" lon="7.949558">
        <ele>299.292544</ele>
        <time>2021-11-14T19:23:32.175Z</time>
      </trkpt>
      <trkpt lat="47.544901" lon="7.950044">
        <ele>299.263784</ele>
        <time>2021-11-14T19:23:41.334Z</time>
      </trkpt>
      <trkpt lat="47.545166" lon="7.950366">
        <ele>299.383945</ele>
        <time>2021-11-14T19:23:47.663Z</time>
      </trkpt>
      <trkpt lat="47.545434" lon="7.950668">
        <ele>299.501998</ele>
        <time>2021-11-14T19:23:53.448Z</time>
      </trkpt>
      <trkpt lat="47.545542" lon="7.950842">
        <ele>299.557938</ele>
        <time>2021-11-14T19:23:55.932Z</time>
      </trkpt>
      <trkpt lat="47.545667" lon="7.950979">
        <ele>299.612452</ele>
        <time>2021-11-14T19:23:58.468Z</time>
      </trkpt>
      <trkpt lat="47.545737" lon="7.951055">
        <ele>299.642879</ele>
        <time>2021-11-14T19:23:59.741Z</time>
      </trkpt>
      <trkpt lat="47.545876" lon="7.951233">
        <ele>299.707294</ele>
        <time>2021-11-14T19:24:02.484Z</time>
      </trkpt>
      <trkpt lat="47.546112" lon="7.951485">
        <ele>299.807357</ele>
        <time>2021-11-14T19:24:06.617Z</time>
      </trkpt>
      <trkpt lat="47.546164" lon="7.951520">
        <ele>299.785176</ele>
        <time>2021-11-14T19:24:07.456Z</time>
      </trkpt>
      <trkpt lat="47.546212" lon="7.951535">
        <ele>299.766124</ele>
        <time>2021-11-14T19:24:08.170Z</time>
      </trkpt>
      <trkpt lat="47.546231" lon="7.951558">
        <ele>299.756595</ele>
        <time>2021-11-14T19:24:08.488Z</time>
      </trkpt>
      <trkpt lat="47.546421" lon="7.951793">
        <ele>299.660472</ele>
        <time>2021-11-14T19:24:11.792Z</time>
      </trkpt>
      <trkpt lat="47.546634" lon="7.952024">
        <ele>299.557955</ele>
        <time>2021-11-14T19:24:15.221Z</time>
      </trkpt>
      <trkpt lat="47.546695" lon="7.952091">
        <ele>299.528464</ele>
        <time>2021-11-14T19:24:16.185Z</time>
      </trkpt>
      <trkpt lat="47.546776" lon="7.952185">
        <ele>299.488505</ele>
        <time>2021-11-14T19:24:17.535Z</time>
      </trkpt>
      <trkpt lat="47.546935" lon="7.952372">
        <ele>299.409663</ele>
        <time>2021-11-14T19:24:20.183Z</time>
      </trkpt>
      <trkpt lat="47.547090" lon="7.952543">
        <ele>299.334610</ele>
        <time>2021-11-14T19:24:22.793Z</time>
      </trkpt>
      <trkpt lat="47.547400" lon="7.952910">
        <ele>299.180501</ele>
        <time>2021-11-14T19:24:28.220Z</time>
      </trkpt>
      <trkpt lat="47.547458" lon="7.952975">
        <ele>299.152257</ele>
        <time>2021-11-14T19:24:29.217Z</time>
      </trkpt>
      <trkpt lat="47.547550" lon="7.953078">
        <ele>299.108228</ele>
        <time>2021-11-14T19:24:30.837Z</time>
      </trkpt>
      <trkpt lat="47.547624" lon="7.953160">
        <ele>299.083754</ele>
        <time>2021-11-14T19:24:32.098Z</time>
      </trkpt>
      <trkpt lat="47.547797" lon="7.953355">
        <ele>299.026183</ele>
        <time>2021-11-14T19:24:35.087Z</time>
      </trkpt>
      <trkpt lat="47.547871" lon="7.953437">
        <ele>299.001710</ele>
        <time>2021-11-14T19:24:36.342Z</time>
      </trkpt>
      <trkpt lat="47.547994" lon="7.953584">
        <ele>298.959856</ele>
        <time>2021-11-14T19:24:38.469Z</time>
      </trkpt>
      <trkpt lat="47.548115" lon="7.953729">
        <ele>298.918640</ele>
        <time>2021-11-14T19:24:40.592Z</time>
      </trkpt>
      <trkpt lat="47.548251" lon="7.953895">
        <ele>298.871972</ele>
        <time>2021-11-14T19:24:42.973Z</time>
      </trkpt>
      <trkpt lat="47.548342" lon="7.954009">
        <ele>298.840410</ele>
        <time>2021-11-14T19:24:44.613Z</time>
      </trkpt>
      <trkpt lat="47.548542" lon="7.954269">
        <ele>298.769942</ele>
        <time>2021-11-14T19:24:48.343Z</time>
      </trkpt>
      <trkpt lat="47.548833" lon="7.954652">
        <ele>298.666854</ele>
        <time>2021-11-14T19:24:53.885Z</time>
      </trkpt>
      <trkpt lat="47.549042" lon="7.954942">
        <ele>298.612045</ele>
        <time>2021-11-14T19:24:58.027Z</time>
      </trkpt>
      <trkpt lat="47.549157" lon="7.955099">
        <ele>298.591135</ele>
        <time>2021-11-14T19:25:00.312Z</time>
      </trkpt>
      <trkpt lat="47.549444" lon="7.955496">
        <ele>298.538632</ele>
        <time>2021-11-14T19:25:06.158Z</time>
      </trkpt>
      <trkpt lat="47.550205" lon="7.956552">
        <ele>298.399211</ele>
        <time>2021-11-14T19:25:20.791Z</time>
      </trkpt>
      <trkpt lat="47.550380" lon="7.956806">
        <ele>298.387285</ele>
        <time>2021-11-14T19:25:24.353Z</time>
      </trkpt>
      <trkpt lat="47.550445" lon="7.956918">
        <ele>298.384424</ele>
        <time>2021-11-14T19:25:25.836Z</time>
      </trkpt>
      <trkpt lat="47.550549" lon="7.957126">
        <ele>298.379409</ele>
        <time>2021-11-14T19:25:28.357Z</time>
      </trkpt>
      <trkpt lat="47.550613" lon="7.957254">
        <ele>298.376322</ele>
        <time>2021-11-14T19:25:29.985Z</time>
      </trkpt>
      <trkpt lat="47.550735" lon="7.957541">
        <ele>298.369751</ele>
        <time>2021-11-14T19:25:33.441Z</time>
      </trkpt>
      <trkpt lat="47.550745" lon="7.957569">
        <ele>298.369137</ele>
        <time>2021-11-14T19:25:33.689Z</time>
      </trkpt>
      <trkpt lat="47.550869" lon="7.957700">
        <ele>298.364766</ele>
        <time>2021-11-14T19:25:35.963Z</time>
      </trkpt>
      <trkpt lat="47.551300" lon="7.958844">
        <ele>298.365120</ele>
        <time>2021-11-14T19:25:48.815Z</time>
      </trkpt>
      <trkpt lat="47.551677" lon="7.960100">
        <ele>298.686916</ele>
        <time>2021-11-14T19:26:03.553Z</time>
      </trkpt>
      <trkpt lat="47.551865" lon="7.960528">
        <ele>298.806461</ele>
        <time>2021-11-14T19:26:09.403Z</time>
      </trkpt>
      <trkpt lat="47.551882" lon="7.960631">
        <ele>298.831284</ele>
        <time>2021-11-14T19:26:10.619Z</time>
      </trkpt>
      <trkpt lat="47.551894" lon="7.960729">
        <ele>298.854600</ele>
        <time>2021-11-14T19:26:12.023Z</time>
      </trkpt>
      <trkpt lat="47.551859" lon="7.961133">
        <ele>298.949951</ele>
        <time>2021-11-14T19:26:16.499Z</time>
      </trkpt>
      <trkpt lat="47.551906" lon="7.962453">
        <ele>299.283787</ele>
        <time>2021-11-14T19:26:31.893Z</time>
      </trkpt>
      <trkpt lat="47.551918" lon="7.963725">
        <ele>299.606286</ele>
        <time>2021-11-14T19:26:45.554Z</time>
      </trkpt>
      <trkpt lat="47.551902" lon="7.964650">
        <ele>299.488273</ele>
        <time>2021-11-14T19:26:54.666Z</time>
      </trkpt>
      <trkpt lat="47.551767" lon="7.967910">
        <ele>298.954512</ele>
        <time>2021-11-14T19:27:24.329Z</time>
      </trkpt>
      <trkpt lat="47.551839" lon="7.968208">
        <ele>298.915550</ele>
        <time>2021-11-14T19:27:27.420Z</time>
      </trkpt>
      <trkpt lat="47.551847" lon="7.968315">
        <ele>298.902298</ele>
        <time>2021-11-14T19:27:28.396Z</time>
      </trkpt>
      <trkpt lat="47.551825" lon="7.968445">
        <ele>298.885799</ele>
        <time>2021-11-14T19:27:29.628Z</time>
      </trkpt>
      <trkpt lat="47.551750" lon="7.968659">
        <ele>298.856117</ele>
        <time>2021-11-14T19:27:32.230Z</time>
      </trkpt>
      <trkpt lat="47.551734" lon="7.970034">
        <ele>299.092132</ele>
        <time>2021-11-14T19:27:46.626Z</time>
      </trkpt>
      <trkpt lat="47.551725" lon="7.970823">
        <ele>299.350417</ele>
        <time>2021-11-14T19:27:55.746Z</time>
      </trkpt>
      <trkpt lat="47.551755" lon="7.972603">
        <ele>299.762650</ele>
        <time>2021-11-14T19:28:17.221Z</time>
      </trkpt>
      <trkpt lat="47.551793" lon="7.974325">
        <ele>299.961329</ele>
        <time>2021-11-14T19:28:34.392Z</time>
      </trkpt>
      <trkpt lat="47.551829" lon="7.976305">
        <ele>299.928553</ele>
        <time>2021-11-14T19:28:52.350Z</time>
      </trkpt>
      <trkpt lat="47.551901" lon="7.979190">
        <ele>300.612031</ele>
        <time>2021-11-14T19:29:26.465Z</time>
      </trkpt>
      <trkpt lat="47.551923" lon="7.979308">
        <ele>300.653830</ele>
        <time>2021-11-14T19:29:28.155Z</time>
      </trkpt>
      <trkpt lat="47.551933" lon="7.979363">
        <ele>300.673279</ele>
        <time>2021-11-14T19:29:29.368Z</time>
      </trkpt>
      <trkpt lat="47.551873" lon="7.980135">
        <ele>300.394504</ele>
        <time>2021-11-14T19:29:36.649Z</time>
      </trkpt>
      <trkpt lat="47.551865" lon="7.980584">
        <ele>299.862861</ele>
        <time>2021-11-14T19:29:40.897Z</time>
      </trkpt>
      <trkpt lat="47.551861" lon="7.981113">
        <ele>299.236671</ele>
        <time>2021-11-14T19:29:45.296Z</time>
      </trkpt>
      <trkpt lat="47.551892" lon="7.983447">
        <ele>296.015452</ele>
        <time>2021-11-14T19:30:01.302Z</time>
      </trkpt>
      <trkpt lat="47.551911" lon="7.983632">
        <ele>295.708622</ele>
        <time>2021-11-14T19:30:02.601Z</time>
      </trkpt>
      <trkpt lat="47.552005" lon="7.983849">
        <ele>295.285834</ele>
        <time>2021-11-14T19:30:04.459Z</time>
      </trkpt>
      <trkpt lat="47.552007" lon="7.983931">
        <ele>295.151294</ele>
        <time>2021-11-14T19:30:04.972Z</time>
      </trkpt>
      <trkpt lat="47.551993" lon="7.984014">
        <ele>295.011016</ele>
        <time>2021-11-14T19:30:05.562Z</time>
      </trkpt>
      <trkpt lat="47.551934" lon="7.984260">
        <ele>294.582948</ele>
        <time>2021-11-14T19:30:07.611Z</time>
      </trkpt>
      <trkpt lat="47.551939" lon="7.985151">
        <ele>293.382120</ele>
        <time>2021-11-14T19:30:14.247Z</time>
      </trkpt>
      <trkpt lat="47.551898" lon="7.985654">
        <ele>293.816725</ele>
        <time>2021-11-14T19:30:18.556Z</time>
      </trkpt>
      <trkpt lat="47.551915" lon="7.986209">
        <ele>294.293290</ele>
        <time>2021-11-14T19:30:24.173Z</time>
      </trkpt>
      <trkpt lat="47.551917" lon="7.986288">
        <ele>294.361104</ele>
        <time>2021-11-14T19:30:25.493Z</time>
      </trkpt>
      <trkpt lat="47.551971" lon="7.986555">
        <ele>294.600196</ele>
        <time>2021-11-14T19:30:29.754Z</time>
      </trkpt>
      <trkpt lat="47.552152" lon="7.986883">
        <ele>294.963625</ele>
        <time>2021-11-14T19:30:36.975Z</time>
      </trkpt>
      <trkpt lat="47.552224" lon="7.986975">
        <ele>295.084462</ele>
        <time>2021-11-14T19:30:39.550Z</time>
      </trkpt>
      <trkpt lat="47.552436" lon="7.987273">
        <ele>295.455865</ele>
        <time>2021-11-14T19:30:47.440Z</time>
      </trkpt>
      <trkpt lat="47.552504" lon="7.987369">
        <ele>295.575240</ele>
        <time>2021-11-14T19:30:50.086Z</time>
      </trkpt>
      <trkpt lat="47.552713" lon="7.987638">
        <ele>296.611395</ele>
        <time>2021-11-14T19:30:58.544Z</time>
      </trkpt>
      <trkpt lat="47.552867" lon="7.987810">
        <ele>297.337995</ele>
        <time>2021-11-14T19:31:05.037Z</time>
      </trkpt>
      <trkpt lat="47.553232" lon="7.988247">
        <ele>299.106036</ele>
        <time>2021-11-14T19:31:19.661Z</time>
      </trkpt>
      <trkpt lat="47.553343" lon="7.988401">
        <ele>299.678964</ele>
        <time>2021-11-14T19:31:24.506Z</time>
      </trkpt>
      <trkpt lat="47.553410" lon="7.988607">
        <ele>300.260435</ele>
        <time>2021-11-14T19:31:29.096Z</time>
      </trkpt>
      <trkpt lat="47.553424" lon="7.988762">
        <ele>300.658084</ele>
        <time>2021-11-14T19:31:32.280Z</time>
      </trkpt>
      <trkpt lat="47.553352" lon="7.989142">
        <ele>301.661709</ele>
        <time>2021-11-14T19:31:40.136Z</time>
      </trkpt>
      <trkpt lat="47.553253" lon="7.989578">
        <ele>302.581284</ele>
        <time>2021-11-14T19:31:49.089Z</time>
      </trkpt>
      <trkpt lat="47.553214" lon="7.989758">
        <ele>302.809366</ele>
        <time>2021-11-14T19:31:52.671Z</time>
      </trkpt>
      <trkpt lat="47.553163" lon="7.990004">
        <ele>303.119845</ele>
        <time>2021-11-14T19:31:57.371Z</time>
      </trkpt>
      <trkpt lat="47.553146" lon="7.990113">
        <ele>303.254816</ele>
        <time>2021-11-14T19:31:59.298Z</time>
      </trkpt>
      <trkpt lat="47.553126" lon="7.990240">
        <ele>303.412155</ele>
        <time>2021-11-14T19:32:01.456Z</time>
      </trkpt>
      <trkpt lat="47.553050" lon="7.990744">
        <ele>304.035211</ele>
        <time>2021-11-14T19:32:09.106Z</time>
      </trkpt>
      <trkpt lat="47.553091" lon="7.991915">
        <ele>305.449895</ele>
        <time>2021-11-14T19:32:23.958Z</time>
      </trkpt>
      <trkpt lat="47.553107" lon="7.992226">
        <ele>305.684682</ele>
        <time>2021-11-14T19:32:27.045Z</time>
      </trkpt>
      <trkpt lat="47.553130" lon="7.993014">
        <ele>306.109146</ele>
        <time>2021-11-14T19:32:35.736Z</time>
      </trkpt>
      <trkpt lat="47.553137" lon="7.993190">
        <ele>306.204026</ele>
        <time>2021-11-14T19:32:37.699Z</time>
      </trkpt>
      <trkpt lat="47.553156" lon="7.993696">
        <ele>306.476754</ele>
        <time>2021-11-14T19:32:43.585Z</time>
      </trkpt>
      <trkpt lat="47.553164" lon="7.993925">
        <ele>306.600157</ele>
        <time>2021-11-14T19:32:46.291Z</time>
      </trkpt>
      <trkpt lat="47.553246" lon="7.995617">
        <ele>307.991800</ele>
        <time>2021-11-14T19:33:09.637Z</time>
      </trkpt>
      <trkpt lat="47.553268" lon="7.996252">
        <ele>308.656363</ele>
        <time>2021-11-14T19:33:18.889Z</time>
      </trkpt>
      <trkpt lat="47.553279" lon="7.996528">
        <ele>308.945336</ele>
        <time>2021-11-14T19:33:23.042Z</time>
      </trkpt>
      <trkpt lat="47.553287" lon="7.997190">
        <ele>309.637356</ele>
        <time>2021-11-14T19:33:32.792Z</time>
      </trkpt>
      <trkpt lat="47.553287" lon="7.998380">
        <ele>310.310399</ele>
        <time>2021-11-14T19:33:49.376Z</time>
      </trkpt>
      <trkpt lat="47.553278" lon="7.999508">
        <ele>310.872523</ele>
        <time>2021-11-14T19:34:02.725Z</time>
      </trkpt>
      <trkpt lat="47.553275" lon="7.999860">
        <ele>311.047939</ele>
        <time>2021-11-14T19:34:06.225Z</time>
      </trkpt>
      <trkpt lat="47.553273" lon="8.001687">
        <ele>310.210546</ele>
        <time>2021-11-14T19:34:21.769Z</time>
      </trkpt>
      <trkpt lat="47.553271" lon="8.002109">
        <ele>309.983272</ele>
        <time>2021-11-14T19:34:25.135Z</time>
      </trkpt>
      <trkpt lat="47.553270" lon="8.002465">
        <ele>309.791547</ele>
        <time>2021-11-14T19:34:27.913Z</time>
      </trkpt>
      <trkpt lat="47.553266" lon="8.003502">
        <ele>309.690132</ele>
        <time>2021-11-14T19:34:36.687Z</time>
      </trkpt>
      <trkpt lat="47.553256" lon="8.004837">
        <ele>309.701348</ele>
        <time>2021-11-14T19:34:50.918Z</time>
      </trkpt>
      <trkpt lat="47.553251" lon="8.005657">
        <ele>309.861940</ele>
        <time>2021-11-14T19:35:01.007Z</time>
      </trkpt>
      <trkpt lat="47.553220" lon="8.006182">
        <ele>310.115030</ele>
        <time>2021-11-14T19:35:07.955Z</time>
      </trkpt>
      <trkpt lat="47.553211" lon="8.006270">
        <ele>310.157774</ele>
        <time>2021-11-14T19:35:09.757Z</time>
      </trkpt>
      <trkpt lat="47.553173" lon="8.006642">
        <ele>310.338459</ele>
        <time>2021-11-14T19:35:14.307Z</time>
      </trkpt>
      <trkpt lat="47.552935" lon="8.007851">
        <ele>310.943268</ele>
        <time>2021-11-14T19:35:29.413Z</time>
      </trkpt>
      <trkpt lat="47.552640" lon="8.008615">
        <ele>310.466843</ele>
        <time>2021-11-14T19:35:37.557Z</time>
      </trkpt>
      <trkpt lat="47.552604" lon="8.008677">
        <ele>310.413334</ele>
        <time>2021-11-14T19:35:38.107Z</time>
      </trkpt>
      <trkpt lat="47.551902" lon="8.009884">
        <ele>309.370901</ele>
        <time>2021-11-14T19:35:50.467Z</time>
      </trkpt>
      <trkpt lat="47.551275" lon="8.010934">
        <ele>309.207535</ele>
        <time>2021-11-14T19:36:02.423Z</time>
      </trkpt>
      <trkpt lat="47.551187" lon="8.011080">
        <ele>309.201967</ele>
        <time>2021-11-14T19:36:04.557Z</time>
      </trkpt>
      <trkpt lat="47.550764" lon="8.011985">
        <ele>309.170651</ele>
        <time>2021-11-14T19:36:16.646Z</time>
      </trkpt>
      <trkpt lat="47.550565" lon="8.012461">
        <ele>309.540307</ele>
        <time>2021-11-14T19:36:24.065Z</time>
      </trkpt>
      <trkpt lat="47.550001" lon="8.014034">
        <ele>311.223071</ele>
        <time>2021-11-14T19:36:49.904Z</time>
      </trkpt>
      <trkpt lat="47.549871" lon="8.014427">
        <ele>311.636552</ele>
        <time>2021-11-14T19:36:56.091Z</time>
      </trkpt>
      <trkpt lat="47.549795" lon="8.014667">
        <ele>311.869279</ele>
        <time>2021-11-14T19:36:59.592Z</time>
      </trkpt>
      <trkpt lat="47.549589" lon="8.015316">
        <ele>312.487776</ele>
        <time>2021-11-14T19:37:08.969Z</time>
      </trkpt>
      <trkpt lat="47.549431" lon="8.015998">
        <ele>313.109615</ele>
        <time>2021-11-14T19:37:18.883Z</time>
      </trkpt>
      <trkpt lat="47.549281" lon="8.017304">
        <ele>314.284313</ele>
        <time>2021-11-14T19:37:36.107Z</time>
      </trkpt>
      <trkpt lat="47.549274" lon="8.017401">
        <ele>314.378468</ele>
        <time>2021-11-14T19:37:37.400Z</time>
      </trkpt>
      <trkpt lat="47.549236" lon="8.017402">
        <ele>314.432816</ele>
        <time>2021-11-14T19:37:38.223Z</time>
      </trkpt>
      <trkpt lat="47.549145" lon="8.017497">
        <ele>314.592003</ele>
        <time>2021-11-14T19:37:40.480Z</time>
      </trkpt>
      <trkpt lat="47.549133" lon="8.017550">
        <ele>314.645958</ele>
        <time>2021-11-14T19:37:41.470Z</time>
      </trkpt>
      <trkpt lat="47.549131" lon="8.017604">
        <ele>314.698156</ele>
        <time>2021-11-14T19:37:41.986Z</time>
      </trkpt>
      <trkpt lat="47.549220" lon="8.017761">
        <ele>314.896042</ele>
        <time>2021-11-14T19:37:44.564Z</time>
      </trkpt>
      <trkpt lat="47.549256" lon="8.017769">
        <ele>314.948097</ele>
        <time>2021-11-14T19:37:45.367Z</time>
      </trkpt>
      <trkpt lat="47.549261" lon="8.017878">
        <ele>315.053543</ele>
        <time>2021-11-14T19:37:47.007Z</time>
      </trkpt>
      <trkpt lat="47.549208" lon="8.019997">
        <ele>316.975314</ele>
        <time>2021-11-14T19:38:17.562Z</time>
      </trkpt>
      <trkpt lat="47.549186" lon="8.021006">
        <ele>317.727056</ele>
        <time>2021-11-14T19:38:30.625Z</time>
      </trkpt>
      <trkpt lat="47.549191" lon="8.021436">
        <ele>318.047303</ele>
        <time>2021-11-14T19:38:36.006Z</time>
      </trkpt>
      <trkpt lat="47.549201" lon="8.022146">
        <ele>318.545065</ele>
        <time>2021-11-14T19:38:44.808Z</time>
      </trkpt>
      <trkpt lat="47.549268" lon="8.023385">
        <ele>318.713368</ele>
        <time>2021-11-14T19:38:58.760Z</time>
      </trkpt>
      <trkpt lat="47.549322" lon="8.024323">
        <ele>318.840837</ele>
        <time>2021-11-14T19:39:08.144Z</time>
      </trkpt>
      <trkpt lat="47.549436" lon="8.026046">
        <ele>318.465982</ele>
        <time>2021-11-14T19:39:24.364Z</time>
      </trkpt>
      <trkpt lat="47.549454" lon="8.027138">
        <ele>318.102642</ele>
        <time>2021-11-14T19:39:33.651Z</time>
      </trkpt>
      <trkpt lat="47.549445" lon="8.027599">
        <ele>317.942706</ele>
        <time>2021-11-14T19:39:37.611Z</time>
      </trkpt>
      <trkpt lat="47.549431" lon="8.028306">
        <ele>317.683184</ele>
        <time>2021-11-14T19:39:43.843Z</time>
      </trkpt>
      <trkpt lat="47.549418" lon="8.028906">
        <ele>317.462919</ele>
        <time>2021-11-14T19:39:49.260Z</time>
      </trkpt>
      <trkpt lat="47.549380" lon="8.030702">
        <ele>316.976837</ele>
        <time>2021-11-14T19:40:05.146Z</time>
      </trkpt>
      <trkpt lat="47.549378" lon="8.030790">
        <ele>316.968736</ele>
        <time>2021-11-14T19:40:06.075Z</time>
      </trkpt>
      <trkpt lat="47.549372" lon="8.031883">
        <ele>316.868170</ele>
        <time>2021-11-14T19:40:16.654Z</time>
      </trkpt>
      <trkpt lat="47.549368" lon="8.032544">
        <ele>316.807351</ele>
        <time>2021-11-14T19:40:23.544Z</time>
      </trkpt>
      <trkpt lat="47.549363" lon="8.032869">
        <ele>316.775564</ele>
        <time>2021-11-14T19:40:27.137Z</time>
      </trkpt>
      <trkpt lat="47.549374" lon="8.033423">
        <ele>316.716712</ele>
        <time>2021-11-14T19:40:33.020Z</time>
      </trkpt>
      <trkpt lat="47.549386" lon="8.033799">
        <ele>316.676742</ele>
        <time>2021-11-14T19:40:36.915Z</time>
      </trkpt>
      <trkpt lat="47.549394" lon="8.034003">
        <ele>316.655044</ele>
        <time>2021-11-14T19:40:38.858Z</time>
      </trkpt>
      <trkpt lat="47.549395" lon="8.034029">
        <ele>316.652279</ele>
        <time>2021-11-14T19:40:39.082Z</time>
      </trkpt>
      <trkpt lat="47.549442" lon="8.034584">
        <ele>316.592885</ele>
        <time>2021-11-14T19:40:44.287Z</time>
      </trkpt>
      <trkpt lat="47.549494" lon="8.034935">
        <ele>316.554727</ele>
        <time>2021-11-14T19:40:47.651Z</time>
      </trkpt>
      <trkpt lat="47.549554" lon="8.035288">
        <ele>316.516074</ele>
        <time>2021-11-14T19:40:51.004Z</time>
      </trkpt>
      <trkpt lat="47.549632" lon="8.035633">
        <ele>316.352785</ele>
        <time>2021-11-14T19:40:54.158Z</time>
      </trkpt>
      <trkpt lat="47.549699" lon="8.035900">
        <ele>316.193532</ele>
        <time>2021-11-14T19:40:56.568Z</time>
      </trkpt>
      <trkpt lat="47.549753" lon="8.036077">
        <ele>316.084938</ele>
        <time>2021-11-14T19:40:58.187Z</time>
      </trkpt>
      <trkpt lat="47.549832" lon="8.036349">
        <ele>315.919391</ele>
        <time>2021-11-14T19:41:00.762Z</time>
      </trkpt>
      <trkpt lat="47.550111" lon="8.037123">
        <ele>315.428832</ele>
        <time>2021-11-14T19:41:07.953Z</time>
      </trkpt>
      <trkpt lat="47.550424" lon="8.037956">
        <ele>315.064703</ele>
        <time>2021-11-14T19:41:15.722Z</time>
      </trkpt>
      <trkpt lat="47.550515" lon="8.038174">
        <ele>315.121382</ele>
        <time>2021-11-14T19:41:17.969Z</time>
      </trkpt>
      <trkpt lat="47.551001" lon="8.039426">
        <ele>315.440747</ele>
        <time>2021-11-14T19:41:33.268Z</time>
      </trkpt>
      <trkpt lat="47.551167" lon="8.039905">
        <ele>315.559810</ele>
        <time>2021-11-14T19:41:40.314Z</time>
      </trkpt>
      <trkpt lat="47.551627" lon="8.041127">
        <ele>317.199100</ele>
        <time>2021-11-14T19:42:00.860Z</time>
      </trkpt>
      <trkpt lat="47.552844" lon="8.044355">
        <ele>322.094885</ele>
        <time>2021-11-14T19:43:00.811Z</time>
      </trkpt>
      <trkpt lat="47.553619" lon="8.046372">
        <ele>322.988789</ele>
        <time>2021-11-14T19:43:28.649Z</time>
      </trkpt>
      <trkpt lat="47.553996" lon="8.047557">
        <ele>322.508923</ele>
        <time>2021-11-14T19:43:39.558Z</time>
      </trkpt>
      <trkpt lat="47.554309" lon="8.048719">
        <ele>321.049242</ele>
        <time>2021-11-14T19:43:48.836Z</time>
      </trkpt>
      <trkpt lat="47.554412" lon="8.049127">
        <ele>320.541023</ele>
        <time>2021-11-14T19:43:52.003Z</time>
      </trkpt>
      <trkpt lat="47.554715" lon="8.050527">
        <ele>319.003435</ele>
        <time>2021-11-14T19:44:02.908Z</time>
      </trkpt>
      <trkpt lat="47.554988" lon="8.051475">
        <ele>317.981346</ele>
        <time>2021-11-14T19:44:10.834Z</time>
      </trkpt>
      <trkpt lat="47.555259" lon="8.052135">
        <ele>317.343227</ele>
        <time>2021-11-14T19:44:17.608Z</time>
      </trkpt>
      <trkpt lat="47.555603" lon="8.052757">
        <ele>317.216706</ele>
        <time>2021-11-14T19:44:25.097Z</time>
      </trkpt>
      <trkpt lat="47.555773" lon="8.053070">
        <ele>317.153495</ele>
        <time>2021-11-14T19:44:28.946Z</time>
      </trkpt>
      <trkpt lat="47.555890" lon="8.053286">
        <ele>317.109920</ele>
        <time>2021-11-14T19:44:31.553Z</time>
      </trkpt>
      <trkpt lat="47.556032" lon="8.053510">
        <ele>317.061569</ele>
        <time>2021-11-14T19:44:34.219Z</time>
      </trkpt>
      <trkpt lat="47.556239" lon="8.053780">
        <ele>316.997279</ele>
        <time>2021-11-14T19:44:38.169Z</time>
      </trkpt>
      <trkpt lat="47.556494" lon="8.054073">
        <ele>316.951684</ele>
        <time>2021-11-14T19:44:43.412Z</time>
      </trkpt>
      <trkpt lat="47.557019" lon="8.054678">
        <ele>316.973330</ele>
        <time>2021-11-14T19:44:54.532Z</time>
      </trkpt>
      <trkpt lat="47.557097" lon="8.054768">
        <ele>316.976547</ele>
        <time>2021-11-14T19:44:55.769Z</time>
      </trkpt>
      <trkpt lat="47.557273" lon="8.054941">
        <ele>316.983421</ele>
        <time>2021-11-14T19:44:59.094Z</time>
      </trkpt>
      <trkpt lat="47.557500" lon="8.055133">
        <ele>316.991928</ele>
        <time>2021-11-14T19:45:02.659Z</time>
      </trkpt>
      <trkpt lat="47.557710" lon="8.055283">
        <ele>316.999516</ele>
        <time>2021-11-14T19:45:05.813Z</time>
      </trkpt>
      <trkpt lat="47.557918" lon="8.055409">
        <ele>317.007258</ele>
        <time>2021-11-14T19:45:09.092Z</time>
      </trkpt>
      <trkpt lat="47.558012" lon="8.055477">
        <ele>317.016866</ele>
        <time>2021-11-14T19:45:10.467Z</time>
      </trkpt>
      <trkpt lat="47.558239" lon="8.055639">
        <ele>317.040007</ele>
        <time>2021-11-14T19:45:14.298Z</time>
      </trkpt>
      <trkpt lat="47.558447" lon="8.055831">
        <ele>317.062515</ele>
        <time>2021-11-14T19:45:17.881Z</time>
      </trkpt>
      <trkpt lat="47.558662" lon="8.056061">
        <ele>317.086870</ele>
        <time>2021-11-14T19:45:22.309Z</time>
      </trkpt>
      <trkpt lat="47.559116" lon="8.056760">
        <ele>317.147003</ele>
        <time>2021-11-14T19:45:32.417Z</time>
      </trkpt>
      <trkpt lat="47.559294" lon="8.057130">
        <ele>317.181343</ele>
        <time>2021-11-14T19:45:37.086Z</time>
      </trkpt>
      <trkpt lat="47.559447" lon="8.057490">
        <ele>317.256019</ele>
        <time>2021-11-14T19:45:41.451Z</time>
      </trkpt>
      <trkpt lat="47.559548" lon="8.057827">
        <ele>317.320742</ele>
        <time>2021-11-14T19:45:45.441Z</time>
      </trkpt>
      <trkpt lat="47.559579" lon="8.057955">
        <ele>317.344612</ele>
        <time>2021-11-14T19:45:46.884Z</time>
      </trkpt>
      <trkpt lat="47.559654" lon="8.058257">
        <ele>317.401095</ele>
        <time>2021-11-14T19:45:50.489Z</time>
      </trkpt>
      <trkpt lat="47.559725" lon="8.058554">
        <ele>317.456400</ele>
        <time>2021-11-14T19:45:53.883Z</time>
      </trkpt>
      <trkpt lat="47.559859" lon="8.059093">
        <ele>317.557222</ele>
        <time>2021-11-14T19:46:00.002Z</time>
      </trkpt>
      <trkpt lat="47.559979" lon="8.059591">
        <ele>317.663330</ele>
        <time>2021-11-14T19:46:05.590Z</time>
      </trkpt>
      <trkpt lat="47.560019" lon="8.059741">
        <ele>317.727783</ele>
        <time>2021-11-14T19:46:07.398Z</time>
      </trkpt>
      <trkpt lat="47.560040" lon="8.059827">
        <ele>317.764332</ele>
        <time>2021-11-14T19:46:08.341Z</time>
      </trkpt>
      <trkpt lat="47.560069" lon="8.059943">
        <ele>317.813767</ele>
        <time>2021-11-14T19:46:09.586Z</time>
      </trkpt>
      <trkpt lat="47.560130" lon="8.060196">
        <ele>317.921130</ele>
        <time>2021-11-14T19:46:12.631Z</time>
      </trkpt>
      <trkpt lat="47.560262" lon="8.060729">
        <ele>318.148019</ele>
        <time>2021-11-14T19:46:18.888Z</time>
      </trkpt>
      <trkpt lat="47.560293" lon="8.060828">
        <ele>318.191633</ele>
        <time>2021-11-14T19:46:20.169Z</time>
      </trkpt>
      <trkpt lat="47.560335" lon="8.060984">
        <ele>318.258752</ele>
        <time>2021-11-14T19:46:22.202Z</time>
      </trkpt>
      <trkpt lat="47.560570" lon="8.061926">
        <ele>318.660092</ele>
        <time>2021-11-14T19:46:34.873Z</time>
      </trkpt>
      <trkpt lat="47.560765" lon="8.062729">
        <ele>319.114091</ele>
        <time>2021-11-14T19:46:45.043Z</time>
      </trkpt>
      <trkpt lat="47.560673" lon="8.062786">
        <ele>319.195651</ele>
        <time>2021-11-14T19:46:47.415Z</time>
      </trkpt>
      <trkpt lat="47.560580" lon="8.062890">
        <ele>319.290945</ele>
        <time>2021-11-14T19:46:50.153Z</time>
      </trkpt>
      <trkpt lat="47.560545" lon="8.062928">
        <ele>319.326433</ele>
        <time>2021-11-14T19:46:50.942Z</time>
      </trkpt>
      <trkpt lat="47.560443" lon="8.063042">
        <ele>319.430927</ele>
        <time>2021-11-14T19:46:53.365Z</time>
      </trkpt>
      <trkpt lat="47.560335" lon="8.063169">
        <ele>319.543695</ele>
        <time>2021-11-14T19:46:55.961Z</time>
      </trkpt>
      <trkpt lat="47.560392" lon="8.063300">
        <ele>319.629726</ele>
        <time>2021-11-14T19:46:57.808Z</time>
      </trkpt>
      <trkpt lat="47.560719" lon="8.063873">
        <ele>320.043916</ele>
        <time>2021-11-14T19:47:07.120Z</time>
      </trkpt>
      <trkpt lat="47.560806" lon="8.064037">
        <ele>320.159054</ele>
        <time>2021-11-14T19:47:09.623Z</time>
      </trkpt>
      <trkpt lat="47.560887" lon="8.064271">
        <ele>320.192937</ele>
        <time>2021-11-14T19:47:12.753Z</time>
      </trkpt>
      <trkpt lat="47.561017" lon="8.064820">
        <ele>320.235575</ele>
        <time>2021-11-14T19:47:19.367Z</time>
      </trkpt>
      <trkpt lat="47.561108" lon="8.065242">
        <ele>320.268040</ele>
        <time>2021-11-14T19:47:23.610Z</time>
      </trkpt>
      <trkpt lat="47.561253" lon="8.066385">
        <ele>320.353269</ele>
        <time>2021-11-14T19:47:34.603Z</time>
      </trkpt>
      <trkpt lat="47.561276" lon="8.067022">
        <ele>320.617433</ele>
        <time>2021-11-14T19:47:40.855Z</time>
      </trkpt>
      <trkpt lat="47.561265" lon="8.067435">
        <ele>320.876491</ele>
        <time>2021-11-14T19:47:45.237Z</time>
      </trkpt>
      <trkpt lat="47.561229" lon="8.067903">
        <ele>321.171719</ele>
        <time>2021-11-14T19:47:50.981Z</time>
      </trkpt>
      <trkpt lat="47.561187" lon="8.068256">
        <ele>321.396382</ele>
        <time>2021-11-14T19:47:55.387Z</time>
      </trkpt>
      <trkpt lat="47.561130" lon="8.068650">
        <ele>321.648941</ele>
        <time>2021-11-14T19:48:00.630Z</time>
      </trkpt>
      <trkpt lat="47.560998" lon="8.069237">
        <ele>322.036748</ele>
        <time>2021-11-14T19:48:09.778Z</time>
      </trkpt>
      <trkpt lat="47.560904" lon="8.069780">
        <ele>322.894746</ele>
        <time>2021-11-14T19:48:18.737Z</time>
      </trkpt>
      <trkpt lat="47.560864" lon="8.070015">
        <ele>323.268918</ele>
        <time>2021-11-14T19:48:22.769Z</time>
      </trkpt>
      <trkpt lat="47.560739" lon="8.070551">
        <ele>324.144454</ele>
        <time>2021-11-14T19:48:32.383Z</time>
      </trkpt>
      <trkpt lat="47.560584" lon="8.070919">
        <ele>324.814187</ele>
        <time>2021-11-14T19:48:39.696Z</time>
      </trkpt>
      <trkpt lat="47.560553" lon="8.071099">
        <ele>325.100992</ele>
        <time>2021-11-14T19:48:42.888Z</time>
      </trkpt>
      <trkpt lat="47.560524" lon="8.071179">
        <ele>325.241195</ele>
        <time>2021-11-14T19:48:44.648Z</time>
      </trkpt>
      <trkpt lat="47.560318" lon="8.072316">
        <ele>326.815796</ele>
        <time>2021-11-14T19:49:03.549Z</time>
      </trkpt>
      <trkpt lat="47.559811" lon="8.074398">
        <ele>329.300448</ele>
        <time>2021-11-14T19:49:34.389Z</time>
      </trkpt>
      <trkpt lat="47.559426" lon="8.075372">
        <ele>330.471128</ele>
        <time>2021-11-14T19:49:49.839Z</time>
      </trkpt>
      <trkpt lat="47.559046" lon="8.076086">
        <ele>331.414213</ele>
        <time>2021-11-14T19:50:02.863Z</time>
      </trkpt>
      <trkpt lat="47.558613" lon="8.076826">
        <ele>332.347142</ele>
        <time>2021-11-14T19:50:17.446Z</time>
      </trkpt>
      <trkpt lat="47.557793" lon="8.078299">
        <ele>334.000871</ele>
        <time>2021-11-14T19:50:45.204Z</time>
      </trkpt>
      <trkpt lat="47.557256" lon="8.079416">
        <ele>332.770487</ele>
        <time>2021-11-14T19:50:57.052Z</time>
      </trkpt>
      <trkpt lat="47.557099" lon="8.079786">
        <ele>332.188263</ele>
        <time>2021-11-14T19:51:00.290Z</time>
      </trkpt>
      <trkpt lat="47.556853" lon="8.080477">
        <ele>331.147525</ele>
        <time>2021-11-14T19:51:05.676Z</time>
      </trkpt>
      <trkpt lat="47.556470" lon="8.081563">
        <ele>327.779133</ele>
        <time>2021-11-14T19:51:13.691Z</time>
      </trkpt>
      <trkpt lat="47.556083" lon="8.083354">
        <ele>321.568304</ele>
        <time>2021-11-14T19:51:25.495Z</time>
      </trkpt>
      <trkpt lat="47.555956" lon="8.084115">
        <ele>319.064205</ele>
        <time>2021-11-14T19:51:30.498Z</time>
      </trkpt>
      <trkpt lat="47.555899" lon="8.084472">
        <ele>317.892351</ele>
        <time>2021-11-14T19:51:32.818Z</time>
      </trkpt>
      <trkpt lat="47.555764" lon="8.085769">
        <ele>313.700317</ele>
        <time>2021-11-14T19:51:41.283Z</time>
      </trkpt>
      <trkpt lat="47.555733" lon="8.086819">
        <ele>312.146998</ele>
        <time>2021-11-14T19:51:48.211Z</time>
      </trkpt>
      <trkpt lat="47.555737" lon="8.087083">
        <ele>311.808734</ele>
        <time>2021-11-14T19:51:50.009Z</time>
      </trkpt>
      <trkpt lat="47.555780" lon="8.087557">
        <ele>311.196088</ele>
        <time>2021-11-14T19:51:53.499Z</time>
      </trkpt>
      <trkpt lat="47.555809" lon="8.087783">
        <ele>310.901400</ele>
        <time>2021-11-14T19:51:55.934Z</time>
      </trkpt>
      <trkpt lat="47.555829" lon="8.087941">
        <ele>310.695476</ele>
        <time>2021-11-14T19:51:57.531Z</time>
      </trkpt>
      <trkpt lat="47.555887" lon="8.088299">
        <ele>310.223857</ele>
        <time>2021-11-14T19:52:01.095Z</time>
      </trkpt>
      <trkpt lat="47.555939" lon="8.088552">
        <ele>310.048065</ele>
        <time>2021-11-14T19:52:03.891Z</time>
      </trkpt>
      <trkpt lat="47.555991" lon="8.088778">
        <ele>310.638276</ele>
        <time>2021-11-14T19:52:07.326Z</time>
      </trkpt>
      <trkpt lat="47.555997" lon="8.088801">
        <ele>310.699228</ele>
        <time>2021-11-14T19:52:07.919Z</time>
      </trkpt>
      <trkpt lat="47.556065" lon="8.089084">
        <ele>311.441773</ele>
        <time>2021-11-14T19:52:12.211Z</time>
      </trkpt>
      <trkpt lat="47.556111" lon="8.089266">
        <ele>311.922161</ele>
        <time>2021-11-14T19:52:16.019Z</time>
      </trkpt>
      <trkpt lat="47.556151" lon="8.089459">
        <ele>312.421214</ele>
        <time>2021-11-14T19:52:20.662Z</time>
      </trkpt>
      <trkpt lat="47.556137" lon="8.089730">
        <ele>313.093039</ele>
        <time>2021-11-14T19:52:25.880Z</time>
      </trkpt>
      <trkpt lat="47.556110" lon="8.089809">
        <ele>313.311927</ele>
        <time>2021-11-14T19:52:28.152Z</time>
      </trkpt>
      <trkpt lat="47.556193" lon="8.089926">
        <ele>313.731518</ele>
        <time>2021-11-14T19:52:32.129Z</time>
      </trkpt>
      <trkpt lat="47.556259" lon="8.090058">
        <ele>314.137593</ele>
        <time>2021-11-14T19:52:35.172Z</time>
      </trkpt>
      <trkpt lat="47.556527" lon="8.090721">
        <ele>316.047895</ele>
        <time>2021-11-14T19:52:53.428Z</time>
      </trkpt>
      <trkpt lat="47.556692" lon="8.091113">
        <ele>317.359446</ele>
        <time>2021-11-14T19:53:05.211Z</time>
      </trkpt>
      <trkpt lat="47.556850" lon="8.091457">
        <ele>318.651756</ele>
        <time>2021-11-14T19:53:15.720Z</time>
      </trkpt>
      <trkpt lat="47.557677" lon="8.092776">
        <ele>324.243210</ele>
        <time>2021-11-14T19:53:55.773Z</time>
      </trkpt>
      <trkpt lat="47.558531" lon="8.094661">
        <ele>330.223461</ele>
        <time>2021-11-14T19:54:38.956Z</time>
      </trkpt>
      <trkpt lat="47.558776" lon="8.095210">
        <ele>332.019107</ele>
        <time>2021-11-14T19:54:53.295Z</time>
      </trkpt>
      <trkpt lat="47.558857" lon="8.095293">
        <ele>332.555528</ele>
        <time>2021-11-14T19:54:58.117Z</time>
      </trkpt>
      <trkpt lat="47.558983" lon="8.095482">
        <ele>333.532099</ele>
        <time>2021-11-14T19:55:04.853Z</time>
      </trkpt>
      <trkpt lat="47.559606" lon="8.096837">
        <ele>339.558971</ele>
        <time>2021-11-14T19:55:53.797Z</time>
      </trkpt>
      <trkpt lat="47.560171" lon="8.097877">
        <ele>343.019182</ele>
        <time>2021-11-14T19:56:31.592Z</time>
      </trkpt>
      <trkpt lat="47.560787" lon="8.098864">
        <ele>345.537923</ele>
        <time>2021-11-14T19:56:59.839Z</time>
      </trkpt>
      <trkpt lat="47.561466" lon="8.099697">
        <ele>345.196837</ele>
        <time>2021-11-14T19:57:16.129Z</time>
      </trkpt>
      <trkpt lat="47.562207" lon="8.100413">
        <ele>343.016654</ele>
        <time>2021-11-14T19:57:28.721Z</time>
      </trkpt>
      <trkpt lat="47.563031" lon="8.100935">
        <ele>340.621970</ele>
        <time>2021-11-14T19:57:41.624Z</time>
      </trkpt>
      <trkpt lat="47.563202" lon="8.101042">
        <ele>340.097311</ele>
        <time>2021-11-14T19:57:44.211Z</time>
      </trkpt>
      <trkpt lat="47.564165" lon="8.101615">
        <ele>337.164145</ele>
        <time>2021-11-14T19:57:55.173Z</time>
      </trkpt>
      <trkpt lat="47.565727" lon="8.102512">
        <ele>334.016768</ele>
        <time>2021-11-14T19:58:14.361Z</time>
      </trkpt>
      <trkpt lat="47.566684" lon="8.102974">
        <ele>331.616325</ele>
        <time>2021-11-14T19:58:24.962Z</time>
      </trkpt>
      <trkpt lat="47.567683" lon="8.103272">
        <ele>329.071423</ele>
        <time>2021-11-14T19:58:35.582Z</time>
      </trkpt>
      <trkpt lat="47.569557" lon="8.103677">
        <ele>325.110390</ele>
        <time>2021-11-14T19:58:55.814Z</time>
      </trkpt>
      <trkpt lat="47.570159" lon="8.103813">
        <ele>325.304288</ele>
        <time>2021-11-14T19:59:03.259Z</time>
      </trkpt>
      <trkpt lat="47.570286" lon="8.103898">
        <ele>325.348659</ele>
        <time>2021-11-14T19:59:06.009Z</time>
      </trkpt>
      <trkpt lat="47.570517" lon="8.104111">
        <ele>325.435284</ele>
        <time>2021-11-14T19:59:11.477Z</time>
      </trkpt>
      <trkpt lat="47.570786" lon="8.104202">
        <ele>325.523139</ele>
        <time>2021-11-14T19:59:18.283Z</time>
      </trkpt>
      <trkpt lat="47.570863" lon="8.104203">
        <ele>325.547658</ele>
        <time>2021-11-14T19:59:19.496Z</time>
      </trkpt>
      <trkpt lat="47.571140" lon="8.104418">
        <ele>325.637657</ele>
        <time>2021-11-14T19:59:27.424Z</time>
      </trkpt>
      <trkpt lat="47.571149" lon="8.104460">
        <ele>325.635616</ele>
        <time>2021-11-14T19:59:28.002Z</time>
      </trkpt>
      <trkpt lat="47.571165" lon="8.104498">
        <ele>325.633541</ele>
        <time>2021-11-14T19:59:28.674Z</time>
      </trkpt>
      <trkpt lat="47.571182" lon="8.104674">
        <ele>325.625304</ele>
        <time>2021-11-14T19:59:31.568Z</time>
      </trkpt>
      <trkpt lat="47.571214" lon="8.104836">
        <ele>325.617485</ele>
        <time>2021-11-14T19:59:34.259Z</time>
      </trkpt>
      <trkpt lat="47.571234" lon="8.105037">
        <ele>325.608073</ele>
        <time>2021-11-14T19:59:36.000Z</time>
      </trkpt>
      <trkpt lat="47.571251" lon="8.105188">
        <ele>325.600981</ele>
        <time>2021-11-14T19:59:37.288Z</time>
      </trkpt>
      <trkpt lat="47.571298" lon="8.105561">
        <ele>325.583403</ele>
        <time>2021-11-14T19:59:41.653Z</time>
      </trkpt>
      <trkpt lat="47.571440" lon="8.106588">
        <ele>325.534840</ele>
        <time>2021-11-14T19:59:52.263Z</time>
      </trkpt>
      <trkpt lat="47.571461" lon="8.106820">
        <ele>325.523996</ele>
        <time>2021-11-14T19:59:54.056Z</time>
      </trkpt>
      <trkpt lat="47.571460" lon="8.106995">
        <ele>325.515889</ele>
        <time>2021-11-14T19:59:55.912Z</time>
      </trkpt>
      <trkpt lat="47.571458" lon="8.107087">
        <ele>325.363168</ele>
        <time>2021-11-14T19:59:56.559Z</time>
      </trkpt>
      <trkpt lat="47.571440" lon="8.107260">
        <ele>325.070469</ele>
        <time>2021-11-14T19:59:57.670Z</time>
      </trkpt>
      <trkpt lat="47.571253" lon="8.107823">
        <ele>324.021152</ele>
        <time>2021-11-14T20:00:01.830Z</time>
      </trkpt>
      <trkpt lat="47.570830" lon="8.108502">
        <ele>322.475766</ele>
        <time>2021-11-14T20:00:07.909Z</time>
      </trkpt>
      <trkpt lat="47.570582" lon="8.108889">
        <ele>321.583257</ele>
        <time>2021-11-14T20:00:11.505Z</time>
      </trkpt>
      <trkpt lat="47.570283" lon="8.109343">
        <ele>321.704427</ele>
        <time>2021-11-14T20:00:18.871Z</time>
      </trkpt>
      <trkpt lat="47.570263" lon="8.109376">
        <ele>321.793943</ele>
        <time>2021-11-14T20:00:19.700Z</time>
      </trkpt>
      <trkpt lat="47.569974" lon="8.109825">
        <ele>323.046201</ele>
        <time>2021-11-14T20:00:29.327Z</time>
      </trkpt>
      <trkpt lat="47.569787" lon="8.110094">
        <ele>323.825629</ele>
        <time>2021-11-14T20:00:35.989Z</time>
      </trkpt>
      <trkpt lat="47.569664" lon="8.110262">
        <ele>324.325910</ele>
        <time>2021-11-14T20:00:42.855Z</time>
      </trkpt>
      <trkpt lat="47.569574" lon="8.110385">
        <ele>324.692070</ele>
        <time>2021-11-14T20:00:44.797Z</time>
      </trkpt>
      <trkpt lat="47.569495" lon="8.110499">
        <ele>325.021853</ele>
        <time>2021-11-14T20:00:48.735Z</time>
      </trkpt>
      <trkpt lat="47.569423" lon="8.110628">
        <ele>325.359705</ele>
        <time>2021-11-14T20:00:54.649Z</time>
      </trkpt>
      <trkpt lat="47.569107" lon="8.111522">
        <ele>327.471909</ele>
        <time>2021-11-14T20:01:17.314Z</time>
      </trkpt>
      <trkpt lat="47.569083" lon="8.111567">
        <ele>327.596784</ele>
        <time>2021-11-14T20:01:19.910Z</time>
      </trkpt>
      <trkpt lat="47.568835" lon="8.112063">
        <ele>328.940749</ele>
        <time>2021-11-14T20:01:32.481Z</time>
      </trkpt>
      <trkpt lat="47.568167" lon="8.113323">
        <ele>332.246829</ele>
        <time>2021-11-14T20:01:59.867Z</time>
      </trkpt>
      <trkpt lat="47.567881" lon="8.113862">
        <ele>332.291445</ele>
        <time>2021-11-14T20:02:06.998Z</time>
      </trkpt>
      <trkpt lat="47.567654" lon="8.114290">
        <ele>332.326867</ele>
        <time>2021-11-14T20:02:11.625Z</time>
      </trkpt>
      <trkpt lat="47.567411" lon="8.114753">
        <ele>332.365033</ele>
        <time>2021-11-14T20:02:16.676Z</time>
      </trkpt>
      <trkpt lat="47.567157" lon="8.115310">
        <ele>332.408776</ele>
        <time>2021-11-14T20:02:22.992Z</time>
      </trkpt>
      <trkpt lat="47.567009" lon="8.116010">
        <ele>332.691571</ele>
        <time>2021-11-14T20:02:31.051Z</time>
      </trkpt>
      <trkpt lat="47.566983" lon="8.116203">
        <ele>332.776308</ele>
        <time>2021-11-14T20:02:32.613Z</time>
      </trkpt>
      <trkpt lat="47.566944" lon="8.116530">
        <ele>332.919282</ele>
        <time>2021-11-14T20:02:36.437Z</time>
      </trkpt>
      <trkpt lat="47.566811" lon="8.117556">
        <ele>333.369110</ele>
        <time>2021-11-14T20:02:48.802Z</time>
      </trkpt>
      <trkpt lat="47.566733" lon="8.118099">
        <ele>333.649695</ele>
        <time>2021-11-14T20:02:57.107Z</time>
      </trkpt>
      <trkpt lat="47.566644" lon="8.118715">
        <ele>334.167332</ele>
        <time>2021-11-14T20:03:06.846Z</time>
      </trkpt>
      <trkpt lat="47.566580" lon="8.119152">
        <ele>334.534774</ele>
        <time>2021-11-14T20:03:12.711Z</time>
      </trkpt>
      <trkpt lat="47.566566" lon="8.119245">
        <ele>334.613071</ele>
        <time>2021-11-14T20:03:14.350Z</time>
      </trkpt>
      <trkpt lat="47.566474" lon="8.119870">
        <ele>335.138710</ele>
        <time>2021-11-14T20:03:22.391Z</time>
      </trkpt>
      <trkpt lat="47.566431" lon="8.120180">
        <ele>335.398763</ele>
        <time>2021-11-14T20:03:25.914Z</time>
      </trkpt>
      <trkpt lat="47.566398" lon="8.120421">
        <ele>335.600828</ele>
        <time>2021-11-14T20:03:29.113Z</time>
      </trkpt>
      <trkpt lat="47.566366" lon="8.120637">
        <ele>335.779661</ele>
        <time>2021-11-14T20:03:31.594Z</time>
      </trkpt>
      <trkpt lat="47.566318" lon="8.120964">
        <ele>336.027990</ele>
        <time>2021-11-14T20:03:35.642Z</time>
      </trkpt>
      <trkpt lat="47.566151" lon="8.121930">
        <ele>336.767976</ele>
        <time>2021-11-14T20:03:48.373Z</time>
      </trkpt>
      <trkpt lat="47.566119" lon="8.122027">
        <ele>336.848099</ele>
        <time>2021-11-14T20:03:49.419Z</time>
      </trkpt>
      <trkpt lat="47.566102" lon="8.122133">
        <ele>336.928950</ele>
        <time>2021-11-14T20:03:51.086Z</time>
      </trkpt>
      <trkpt lat="47.565954" lon="8.122541">
        <ele>337.272691</ele>
        <time>2021-11-14T20:03:56.738Z</time>
      </trkpt>
      <trkpt lat="47.565933" lon="8.122582">
        <ele>337.310889</ele>
        <time>2021-11-14T20:03:57.516Z</time>
      </trkpt>
      <trkpt lat="47.565629" lon="8.123189">
        <ele>338.041888</ele>
        <time>2021-11-14T20:04:07.891Z</time>
      </trkpt>
      <trkpt lat="47.565434" lon="8.123568">
        <ele>338.822311</ele>
        <time>2021-11-14T20:04:15.415Z</time>
      </trkpt>
      <trkpt lat="47.565326" lon="8.123776">
        <ele>339.252066</ele>
        <time>2021-11-14T20:04:19.537Z</time>
      </trkpt>
      <trkpt lat="47.565268" lon="8.123888">
        <ele>339.483245</ele>
        <time>2021-11-14T20:04:22.793Z</time>
      </trkpt>
      <trkpt lat="47.565098" lon="8.124202">
        <ele>340.142450</ele>
        <time>2021-11-14T20:04:29.975Z</time>
      </trkpt>
      <trkpt lat="47.565033" lon="8.124341">
        <ele>340.419371</ele>
        <time>2021-11-14T20:04:33.517Z</time>
      </trkpt>
      <trkpt lat="47.564862" lon="8.124663">
        <ele>341.090344</ele>
        <time>2021-11-14T20:04:40.200Z</time>
      </trkpt>
      <trkpt lat="47.564445" lon="8.125480">
        <ele>342.641108</ele>
        <time>2021-11-14T20:04:56.884Z</time>
      </trkpt>
      <trkpt lat="47.564404" lon="8.125557">
        <ele>342.771449</ele>
        <time>2021-11-14T20:04:59.024Z</time>
      </trkpt>
      <trkpt lat="47.564281" lon="8.125780">
        <ele>343.154185</ele>
        <time>2021-11-14T20:05:03.160Z</time>
      </trkpt>
      <trkpt lat="47.564204" lon="8.125933">
        <ele>343.407820</ele>
        <time>2021-11-14T20:05:06.239Z</time>
      </trkpt>
      <trkpt lat="47.564142" lon="8.126069">
        <ele>343.625923</ele>
        <time>2021-11-14T20:05:08.824Z</time>
      </trkpt>
      <trkpt lat="47.564078" lon="8.126253">
        <ele>343.901004</ele>
        <time>2021-11-14T20:05:15.041Z</time>
      </trkpt>
      <trkpt lat="47.564050" lon="8.126343">
        <ele>344.032700</ele>
        <time>2021-11-14T20:05:17.927Z</time>
      </trkpt>
      <trkpt lat="47.564016" lon="8.126515">
        <ele>344.270867</ele>
        <time>2021-11-14T20:05:23.630Z</time>
      </trkpt>
      <trkpt lat="47.563988" lon="8.126616">
        <ele>344.415966</ele>
        <time>2021-11-14T20:05:26.773Z</time>
      </trkpt>
      <trkpt lat="47.563935" lon="8.126813">
        <ele>344.697790</ele>
        <time>2021-11-14T20:05:32.812Z</time>
      </trkpt>
      <trkpt lat="47.563932" lon="8.126822">
        <ele>344.711129</ele>
        <time>2021-11-14T20:05:33.114Z</time>
      </trkpt>
      <trkpt lat="47.563898" lon="8.126936">
        <ele>344.876756</ele>
        <time>2021-11-14T20:05:37.275Z</time>
      </trkpt>
      <trkpt lat="47.563829" lon="8.127101">
        <ele>345.134709</ele>
        <time>2021-11-14T20:05:42.907Z</time>
      </trkpt>
      <trkpt lat="47.563751" lon="8.127247">
        <ele>345.382169</ele>
        <time>2021-11-14T20:05:45.437Z</time>
      </trkpt>
      <trkpt lat="47.563627" lon="8.127420">
        <ele>345.695862</ele>
        <time>2021-11-14T20:05:49.332Z</time>
      </trkpt>
      <trkpt lat="47.563589" lon="8.127466">
        <ele>345.766177</ele>
        <time>2021-11-14T20:05:50.448Z</time>
      </trkpt>
      <trkpt lat="47.563398" lon="8.127697">
        <ele>346.119475</ele>
        <time>2021-11-14T20:05:55.221Z</time>
      </trkpt>
      <trkpt lat="47.563232" lon="8.127932">
        <ele>346.448464</ele>
        <time>2021-11-14T20:05:59.664Z</time>
      </trkpt>
      <trkpt lat="47.563096" lon="8.128178">
        <ele>346.755994</ele>
        <time>2021-11-14T20:06:03.783Z</time>
      </trkpt>
      <trkpt lat="47.562984" lon="8.128403">
        <ele>347.026368</ele>
        <time>2021-11-14T20:06:07.652Z</time>
      </trkpt>
      <trkpt lat="47.562839" lon="8.128684">
        <ele>347.368446</ele>
        <time>2021-11-14T20:06:12.629Z</time>
      </trkpt>
      <trkpt lat="47.562419" lon="8.129559">
        <ele>348.484940</ele>
        <time>2021-11-14T20:06:27.921Z</time>
      </trkpt>
      <trkpt lat="47.562200" lon="8.130042">
        <ele>349.277401</ele>
        <time>2021-11-14T20:06:35.838Z</time>
      </trkpt>
      <trkpt lat="47.562169" lon="8.130101">
        <ele>349.379234</ele>
        <time>2021-11-14T20:06:36.762Z</time>
      </trkpt>
      <trkpt lat="47.562119" lon="8.130197">
        <ele>349.544383</ele>
        <time>2021-11-14T20:06:38.292Z</time>
      </trkpt>
      <trkpt lat="47.561796" lon="8.130897">
        <ele>350.699234</ele>
        <time>2021-11-14T20:06:49.909Z</time>
      </trkpt>
      <trkpt lat="47.561185" lon="8.132211">
        <ele>354.211399</ele>
        <time>2021-11-14T20:07:19.422Z</time>
      </trkpt>
      <trkpt lat="47.561056" lon="8.132422">
        <ele>355.104699</ele>
        <time>2021-11-14T20:07:27.202Z</time>
      </trkpt>
      <trkpt lat="47.561161" lon="8.132610">
        <ele>355.870367</ele>
        <time>2021-11-14T20:07:31.658Z</time>
      </trkpt>
      <trkpt lat="47.561195" lon="8.132668">
        <ele>356.111414</ele>
        <time>2021-11-14T20:07:34.800Z</time>
      </trkpt>
      <trkpt lat="47.561323" lon="8.132897">
        <ele>357.044360</ele>
        <time>2021-11-14T20:07:41.044Z</time>
      </trkpt>
      <trkpt lat="47.561623" lon="8.133432">
        <ele>359.226797</ele>
        <time>2021-11-14T20:07:57.334Z</time>
      </trkpt>
      <trkpt lat="47.561664" lon="8.133579">
        <ele>359.725842</ele>
        <time>2021-11-14T20:08:02.906Z</time>
      </trkpt>
      <trkpt lat="47.561698" lon="8.133720">
        <ele>360.195616</ele>
        <time>2021-11-14T20:08:06.590Z</time>
      </trkpt>
      <trkpt lat="47.561725" lon="8.133913">
        <ele>360.757479</ele>
        <time>2021-11-14T20:08:11.145Z</time>
      </trkpt>
      <trkpt lat="47.561720" lon="8.135210">
        <ele>364.447067</ele>
        <time>2021-11-14T20:08:44.395Z</time>
      </trkpt>
      <trkpt lat="47.561711" lon="8.135438">
        <ele>365.096759</ele>
        <time>2021-11-14T20:08:49.386Z</time>
      </trkpt>
      <trkpt lat="47.561699" lon="8.135702">
        <ele>365.849453</ele>
        <time>2021-11-14T20:08:55.058Z</time>
      </trkpt>
      <trkpt lat="47.561695" lon="8.135815">
        <ele>366.171342</ele>
        <time>2021-11-14T20:08:57.004Z</time>
      </trkpt>
      <trkpt lat="47.561673" lon="8.136111">
        <ele>367.018455</ele>
        <time>2021-11-14T20:09:02.096Z</time>
      </trkpt>
      <trkpt lat="47.561651" lon="8.136422">
        <ele>367.776927</ele>
        <time>2021-11-14T20:09:05.594Z</time>
      </trkpt>
      <trkpt lat="47.561604" lon="8.136996">
        <ele>367.587193</ele>
        <time>2021-11-14T20:09:11.866Z</time>
      </trkpt>
      <trkpt lat="47.561574" lon="8.137322">
        <ele>367.479228</ele>
        <time>2021-11-14T20:09:15.180Z</time>
      </trkpt>
      <trkpt lat="47.561548" lon="8.137622">
        <ele>367.379977</ele>
        <time>2021-11-14T20:09:18.125Z</time>
      </trkpt>
      <trkpt lat="47.561531" lon="8.137825">
        <ele>367.312854</ele>
        <time>2021-11-14T20:09:20.100Z</time>
      </trkpt>
      <trkpt lat="47.561520" lon="8.138020">
        <ele>367.248643</ele>
        <time>2021-11-14T20:09:21.598Z</time>
      </trkpt>
      <trkpt lat="47.561504" lon="8.138613">
        <ele>367.053899</ele>
        <time>2021-11-14T20:09:26.102Z</time>
      </trkpt>
      <trkpt lat="47.561507" lon="8.138771">
        <ele>367.002032</ele>
        <time>2021-11-14T20:09:27.341Z</time>
      </trkpt>
      <trkpt lat="47.561660" lon="8.140164">
        <ele>366.424273</ele>
        <time>2021-11-14T20:09:37.938Z</time>
      </trkpt>
      <trkpt lat="47.561574" lon="8.141379">
        <ele>365.901463</ele>
        <time>2021-11-14T20:09:49.915Z</time>
      </trkpt>
      <trkpt lat="47.561563" lon="8.141574">
        <ele>365.817722</ele>
        <time>2021-11-14T20:09:51.999Z</time>
      </trkpt>
      <trkpt lat="47.561548" lon="8.141908">
        <ele>366.022796</ele>
        <time>2021-11-14T20:09:56.155Z</time>
      </trkpt>
      <trkpt lat="47.561542" lon="8.142165">
        <ele>366.293459</ele>
        <time>2021-11-14T20:09:59.155Z</time>
      </trkpt>
      <trkpt lat="47.561548" lon="8.142491">
        <ele>366.636711</ele>
        <time>2021-11-14T20:10:03.887Z</time>
      </trkpt>
      <trkpt lat="47.561569" lon="8.142863">
        <ele>367.029620</ele>
        <time>2021-11-14T20:10:09.184Z</time>
      </trkpt>
      <trkpt lat="47.561629" lon="8.143405">
        <ele>367.607717</ele>
        <time>2021-11-14T20:10:17.642Z</time>
      </trkpt>
      <trkpt lat="47.561693" lon="8.143892">
        <ele>368.129928</ele>
        <time>2021-11-14T20:10:25.268Z</time>
      </trkpt>
      <trkpt lat="47.561737" lon="8.144240">
        <ele>368.502581</ele>
        <time>2021-11-14T20:10:30.735Z</time>
      </trkpt>
      <trkpt lat="47.561764" lon="8.144413">
        <ele>368.682876</ele>
        <time>2021-11-14T20:10:33.728Z</time>
      </trkpt>
      <trkpt lat="47.561830" lon="8.144934">
        <ele>369.206991</ele>
        <time>2021-11-14T20:10:42.193Z</time>
      </trkpt>
      <trkpt lat="47.561843" lon="8.145077">
        <ele>369.349654</ele>
        <time>2021-11-14T20:10:44.454Z</time>
      </trkpt>
      <trkpt lat="47.561847" lon="8.145230">
        <ele>369.501040</ele>
        <time>2021-11-14T20:10:46.809Z</time>
      </trkpt>
      <trkpt lat="47.561842" lon="8.145448">
        <ele>369.716702</ele>
        <time>2021-11-14T20:10:50.150Z</time>
      </trkpt>
      <trkpt lat="47.561827" lon="8.145709">
        <ele>369.975689</ele>
        <time>2021-11-14T20:10:53.862Z</time>
      </trkpt>
      <trkpt lat="47.561811" lon="8.145912">
        <ele>370.177761</ele>
        <time>2021-11-14T20:10:56.503Z</time>
      </trkpt>
      <trkpt lat="47.561789" lon="8.146405">
        <ele>370.666259</ele>
        <time>2021-11-14T20:11:02.743Z</time>
      </trkpt>
      <trkpt lat="47.561783" lon="8.146574">
        <ele>370.833582</ele>
        <time>2021-11-14T20:11:04.943Z</time>
      </trkpt>
      <trkpt lat="47.561759" lon="8.147209">
        <ele>371.326021</ele>
        <time>2021-11-14T20:11:12.505Z</time>
      </trkpt>
      <trkpt lat="47.561778" lon="8.147534">
        <ele>371.470039</ele>
        <time>2021-11-14T20:11:16.316Z</time>
      </trkpt>
      <trkpt lat="47.561781" lon="8.147568">
        <ele>371.485177</ele>
        <time>2021-11-14T20:11:16.731Z</time>
      </trkpt>
      <trkpt lat="47.561822" lon="8.147813">
        <ele>371.596616</ele>
        <time>2021-11-14T20:11:19.364Z</time>
      </trkpt>
      <trkpt lat="47.561833" lon="8.147845">
        <ele>371.612470</ele>
        <time>2021-11-14T20:11:19.681Z</time>
      </trkpt>
      <trkpt lat="47.561913" lon="8.148081">
        <ele>371.729066</ele>
        <time>2021-11-14T20:11:22.611Z</time>
      </trkpt>
      <trkpt lat="47.561978" lon="8.148254">
        <ele>371.816483</ele>
        <time>2021-11-14T20:11:24.644Z</time>
      </trkpt>
      <trkpt lat="47.562009" lon="8.148365">
        <ele>371.869518</ele>
        <time>2021-11-14T20:11:26.006Z</time>
      </trkpt>
      <trkpt lat="47.562009" lon="8.148597">
        <ele>371.971940</ele>
        <time>2021-11-14T20:11:28.831Z</time>
      </trkpt>
      <trkpt lat="47.561998" lon="8.148673">
        <ele>372.006255</ele>
        <time>2021-11-14T20:11:29.564Z</time>
      </trkpt>
      <trkpt lat="47.561980" lon="8.148763">
        <ele>372.047697</ele>
        <time>2021-11-14T20:11:32.017Z</time>
      </trkpt>
      <trkpt lat="47.561943" lon="8.148889">
        <ele>372.108362</ele>
        <time>2021-11-14T20:11:35.631Z</time>
      </trkpt>
      <trkpt lat="47.561915" lon="8.148980">
        <ele>372.152515</ele>
        <time>2021-11-14T20:11:38.475Z</time>
      </trkpt>
      <trkpt lat="47.561767" lon="8.149503">
        <ele>372.415189</ele>
        <time>2021-11-14T20:11:53.915Z</time>
      </trkpt>
      <trkpt lat="47.561555" lon="8.150316">
        <ele>373.266588</ele>
        <time>2021-11-14T20:12:18.453Z</time>
      </trkpt>
      <trkpt lat="47.561512" lon="8.150470">
        <ele>373.429390</ele>
        <time>2021-11-14T20:12:23.800Z</time>
      </trkpt>
      <trkpt lat="47.561471" lon="8.150574">
        <ele>373.547048</ele>
        <time>2021-11-14T20:12:27.189Z</time>
      </trkpt>
      <trkpt lat="47.561352" lon="8.150768">
        <ele>373.803148</ele>
        <time>2021-11-14T20:12:34.644Z</time>
      </trkpt>
      <trkpt lat="47.561257" lon="8.150909">
        <ele>373.997783</ele>
        <time>2021-11-14T20:12:40.798Z</time>
      </trkpt>
      <trkpt lat="47.561109" lon="8.151163">
        <ele>374.325599</ele>
        <time>2021-11-14T20:12:50.103Z</time>
      </trkpt>
      <trkpt lat="47.561003" lon="8.151403">
        <ele>374.605793</ele>
        <time>2021-11-14T20:12:58.839Z</time>
      </trkpt>
      <trkpt lat="47.560916" lon="8.151600">
        <ele>374.835779</ele>
        <time>2021-11-14T20:13:05.324Z</time>
      </trkpt>
      <trkpt lat="47.560859" lon="8.151728">
        <ele>374.985587</ele>
        <time>2021-11-14T20:13:10.510Z</time>
      </trkpt>
      <trkpt lat="47.560747" lon="8.151985">
        <ele>375.353901</ele>
        <time>2021-11-14T20:13:19.273Z</time>
      </trkpt>
      <trkpt lat="47.560710" lon="8.152072">
        <ele>375.478587</ele>
        <time>2021-11-14T20:13:22.274Z</time>
      </trkpt>
      <trkpt lat="47.560668" lon="8.152171">
        <ele>375.620372</ele>
        <time>2021-11-14T20:13:26.456Z</time>
      </trkpt>
      <trkpt lat="47.560622" lon="8.152294">
        <ele>375.790877</ele>
        <time>2021-11-14T20:13:30.652Z</time>
      </trkpt>
      <trkpt lat="47.560547" lon="8.152508">
        <ele>376.083252</ele>
        <time>2021-11-14T20:13:37.586Z</time>
      </trkpt>
      <trkpt lat="47.560456" lon="8.152909">
        <ele>376.596209</ele>
        <time>2021-11-14T20:13:50.701Z</time>
      </trkpt>
      <trkpt lat="47.560422" lon="8.153030">
        <ele>376.755129</ele>
        <time>2021-11-14T20:13:54.483Z</time>
      </trkpt>
      <trkpt lat="47.560379" lon="8.153152">
        <ele>376.922012</ele>
        <time>2021-11-14T20:13:59.174Z</time>
      </trkpt>
      <trkpt lat="47.560330" lon="8.153256">
        <ele>377.075803</ele>
        <time>2021-11-14T20:14:02.867Z</time>
      </trkpt>
      <trkpt lat="47.560212" lon="8.153476">
        <ele>377.416543</ele>
        <time>2021-11-14T20:14:10.672Z</time>
      </trkpt>
      <trkpt lat="47.560153" lon="8.153582">
        <ele>377.583144</ele>
        <time>2021-11-14T20:14:13.300Z</time>
      </trkpt>
      <trkpt lat="47.560053" lon="8.153772">
        <ele>377.875299</ele>
        <time>2021-11-14T20:14:16.290Z</time>
      </trkpt>
      <trkpt lat="47.559990" lon="8.153866">
        <ele>378.035932</ele>
        <time>2021-11-14T20:14:17.824Z</time>
      </trkpt>
      <trkpt lat="47.559938" lon="8.153925">
        <ele>378.153605</ele>
        <time>2021-11-14T20:14:19.553Z</time>
      </trkpt>
      <trkpt lat="47.559905" lon="8.153956">
        <ele>378.223808</ele>
        <time>2021-11-14T20:14:20.586Z</time>
      </trkpt>
      <trkpt lat="47.559841" lon="8.154003">
        <ele>378.385960</ele>
        <time>2021-11-14T20:14:21.983Z</time>
      </trkpt>
      <trkpt lat="47.559698" lon="8.154088">
        <ele>378.738304</ele>
        <time>2021-11-14T20:14:24.564Z</time>
      </trkpt>
      <trkpt lat="47.559651" lon="8.154104">
        <ele>378.848585</ele>
        <time>2021-11-14T20:14:25.593Z</time>
      </trkpt>
      <trkpt lat="47.559591" lon="8.154124">
        <ele>378.989224</ele>
        <time>2021-11-14T20:14:27.237Z</time>
      </trkpt>
      <trkpt lat="47.559455" lon="8.154165">
        <ele>379.306604</ele>
        <time>2021-11-14T20:14:30.101Z</time>
      </trkpt>
      <trkpt lat="47.559284" lon="8.154179">
        <ele>379.698249</ele>
        <time>2021-11-14T20:14:33.857Z</time>
      </trkpt>
      <trkpt lat="47.559156" lon="8.154177">
        <ele>379.990979</ele>
        <time>2021-11-14T20:14:37.193Z</time>
      </trkpt>
      <trkpt lat="47.559032" lon="8.154178">
        <ele>380.274551</ele>
        <time>2021-11-14T20:14:39.808Z</time>
      </trkpt>
      <trkpt lat="47.558979" lon="8.154180">
        <ele>380.395792</ele>
        <time>2021-11-14T20:14:41.188Z</time>
      </trkpt>
      <trkpt lat="47.558924" lon="8.154185">
        <ele>380.521805</ele>
        <time>2021-11-14T20:14:42.643Z</time>
      </trkpt>
      <trkpt lat="47.558848" lon="8.154194">
        <ele>380.696158</ele>
        <time>2021-11-14T20:14:44.742Z</time>
      </trkpt>
      <trkpt lat="47.558498" lon="8.154242">
        <ele>381.499970</ele>
        <time>2021-11-14T20:14:53.215Z</time>
      </trkpt>
      <trkpt lat="47.557974" lon="8.154446">
        <ele>383.005843</ele>
        <time>2021-11-14T20:15:07.945Z</time>
      </trkpt>
      <trkpt lat="47.557909" lon="8.154469">
        <ele>383.261265</ele>
        <time>2021-11-14T20:15:09.700Z</time>
      </trkpt>
      <trkpt lat="47.557607" lon="8.154562">
        <ele>384.440202</ele>
        <time>2021-11-14T20:15:18.296Z</time>
      </trkpt>
      <trkpt lat="47.557234" lon="8.154662">
        <ele>385.888993</ele>
        <time>2021-11-14T20:15:29.434Z</time>
      </trkpt>
      <trkpt lat="47.557020" lon="8.154736">
        <ele>386.728899</ele>
        <time>2021-11-14T20:15:35.602Z</time>
      </trkpt>
      <trkpt lat="47.556982" lon="8.154756">
        <ele>386.883029</ele>
        <time>2021-11-14T20:15:37.821Z</time>
      </trkpt>
      <trkpt lat="47.556702" lon="8.155008">
        <ele>388.135151</ele>
        <time>2021-11-14T20:15:48.146Z</time>
      </trkpt>
      <trkpt lat="47.556361" lon="8.155432">
        <ele>389.794473</ele>
        <time>2021-11-14T20:16:03.683Z</time>
      </trkpt>
      <trkpt lat="47.555852" lon="8.155715">
        <ele>391.731452</ele>
        <time>2021-11-14T20:16:20.421Z</time>
      </trkpt>
      <trkpt lat="47.555483" lon="8.155879">
        <ele>393.104030</ele>
        <time>2021-11-14T20:16:32.095Z</time>
      </trkpt>
      <trkpt lat="47.555146" lon="8.156028">
        <ele>394.357042</ele>
        <time>2021-11-14T20:16:41.382Z</time>
      </trkpt>
      <trkpt lat="47.554024" lon="8.156353">
        <ele>397.160603</ele>
        <time>2021-11-14T20:17:09.496Z</time>
      </trkpt>
      <trkpt lat="47.553415" lon="8.156908">
        <ele>398.555282</ele>
        <time>2021-11-14T20:17:24.407Z</time>
      </trkpt>
      <trkpt lat="47.552966" lon="8.157085">
        <ele>399.586527</ele>
        <time>2021-11-14T20:17:34.040Z</time>
      </trkpt>
      <trkpt lat="47.552741" lon="8.157139">
        <ele>400.200148</ele>
        <time>2021-11-14T20:17:39.019Z</time>
      </trkpt>
      <trkpt lat="47.552683" lon="8.157162">
        <ele>400.361787</ele>
        <time>2021-11-14T20:17:40.525Z</time>
      </trkpt>
      <trkpt lat="47.552319" lon="8.157405">
        <ele>401.436590</ele>
        <time>2021-11-14T20:17:49.890Z</time>
      </trkpt>
      <trkpt lat="47.552174" lon="8.157599">
        <ele>401.962543</ele>
        <time>2021-11-14T20:17:55.061Z</time>
      </trkpt>
      <trkpt lat="47.551779" lon="8.158427">
        <ele>403.804866</ele>
        <time>2021-11-14T20:18:14.771Z</time>
      </trkpt>
      <trkpt lat="47.551653" lon="8.158711">
        <ele>404.554625</ele>
        <time>2021-11-14T20:18:21.786Z</time>
      </trkpt>
      <trkpt lat="47.551526" lon="8.158964">
        <ele>405.296892</ele>
        <time>2021-11-14T20:18:27.926Z</time>
      </trkpt>
      <trkpt lat="47.551447" lon="8.159096">
        <ele>405.712214</ele>
        <time>2021-11-14T20:18:31.322Z</time>
      </trkpt>
      <trkpt lat="47.551332" lon="8.159279">
        <ele>406.300849</ele>
        <time>2021-11-14T20:18:36.195Z</time>
      </trkpt>
      <trkpt lat="47.551164" lon="8.159529">
        <ele>407.131362</ele>
        <time>2021-11-14T20:18:44.102Z</time>
      </trkpt>
      <trkpt lat="47.550666" lon="8.160174">
        <ele>409.438499</ele>
        <time>2021-11-14T20:19:03.784Z</time>
      </trkpt>
      <trkpt lat="47.550099" lon="8.160724">
        <ele>410.776148</ele>
        <time>2021-11-14T20:19:20.554Z</time>
      </trkpt>
      <trkpt lat="47.549984" lon="8.160805">
        <ele>410.926919</ele>
        <time>2021-11-14T20:19:23.808Z</time>
      </trkpt>
      <trkpt lat="47.549905" lon="8.160854">
        <ele>411.028326</ele>
        <time>2021-11-14T20:19:24.888Z</time>
      </trkpt>
      <trkpt lat="47.549732" lon="8.160920">
        <ele>411.239851</ele>
        <time>2021-11-14T20:19:27.880Z</time>
      </trkpt>
      <trkpt lat="47.549617" lon="8.160942">
        <ele>411.377148</ele>
        <time>2021-11-14T20:19:30.275Z</time>
      </trkpt>
      <trkpt lat="47.549490" lon="8.160957">
        <ele>411.528001</ele>
        <time>2021-11-14T20:19:31.829Z</time>
      </trkpt>
      <trkpt lat="47.548672" lon="8.160912">
        <ele>412.609251</ele>
        <time>2021-11-14T20:19:45.625Z</time>
      </trkpt>
      <trkpt lat="47.548497" lon="8.160960">
        <ele>413.018728</ele>
        <time>2021-11-14T20:19:48.809Z</time>
      </trkpt>
      <trkpt lat="47.548340" lon="8.161015">
        <ele>413.389910</ele>
        <time>2021-11-14T20:19:51.135Z</time>
      </trkpt>
      <trkpt lat="47.547978" lon="8.161155">
        <ele>414.250698</ele>
        <time>2021-11-14T20:19:58.137Z</time>
      </trkpt>
      <trkpt lat="47.547763" lon="8.161258">
        <ele>414.770583</ele>
        <time>2021-11-14T20:20:03.416Z</time>
      </trkpt>
      <trkpt lat="47.547713" lon="8.161271">
        <ele>414.887379</ele>
        <time>2021-11-14T20:20:04.571Z</time>
      </trkpt>
      <trkpt lat="47.547597" lon="8.161255">
        <ele>415.155423</ele>
        <time>2021-11-14T20:20:07.112Z</time>
      </trkpt>
      <trkpt lat="47.547553" lon="8.161213">
        <ele>415.275850</ele>
        <time>2021-11-14T20:20:09.108Z</time>
      </trkpt>
      <trkpt lat="47.547463" lon="8.161007">
        <ele>415.656929</ele>
        <time>2021-11-14T20:20:13.023Z</time>
      </trkpt>
      <trkpt lat="47.547400" lon="8.160898">
        <ele>415.879783</ele>
        <time>2021-11-14T20:20:15.680Z</time>
      </trkpt>
      <trkpt lat="47.547324" lon="8.160802">
        <ele>416.109570</ele>
        <time>2021-11-14T20:20:19.581Z</time>
      </trkpt>
      <trkpt lat="47.547271" lon="8.160738">
        <ele>416.266885</ele>
        <time>2021-11-14T20:20:21.294Z</time>
      </trkpt>
      <trkpt lat="47.547119" lon="8.160507">
        <ele>417.259705</ele>
        <time>2021-11-14T20:20:28.381Z</time>
      </trkpt>
      <trkpt lat="47.547062" lon="8.160424">
        <ele>417.803680</ele>
        <time>2021-11-14T20:20:32.568Z</time>
      </trkpt>
      <trkpt lat="47.546793" lon="8.160028">
        <ele>420.384746</ele>
        <time>2021-11-14T20:20:47.583Z</time>
      </trkpt>
      <trkpt lat="47.546464" lon="8.159690">
        <ele>423.109732</ele>
        <time>2021-11-14T20:21:04.770Z</time>
      </trkpt>
      <trkpt lat="47.546205" lon="8.159521">
        <ele>425.035962</ele>
        <time>2021-11-14T20:21:17.670Z</time>
      </trkpt>
      <trkpt lat="47.545798" lon="8.159287">
        <ele>428.007400</ele>
        <time>2021-11-14T20:21:37.652Z</time>
      </trkpt>
      <trkpt lat="47.545206" lon="8.158933">
        <ele>432.841897</ele>
        <time>2021-11-14T20:22:07.244Z</time>
      </trkpt>
      <trkpt lat="47.545006" lon="8.158816">
        <ele>434.504716</ele>
        <time>2021-11-14T20:22:17.961Z</time>
      </trkpt>
      <trkpt lat="47.544401" lon="8.158281">
        <ele>439.953296</ele>
        <time>2021-11-14T20:22:49.632Z</time>
      </trkpt>
      <trkpt lat="47.544125" lon="8.158062">
        <ele>442.374479</ele>
        <time>2021-11-14T20:23:03.094Z</time>
      </trkpt>
      <trkpt lat="47.544028" lon="8.157991">
        <ele>443.236179</ele>
        <time>2021-11-14T20:23:08.644Z</time>
      </trkpt>
      <trkpt lat="47.542966" lon="8.157604">
        <ele>452.083022</ele>
        <time>2021-11-14T20:23:58.360Z</time>
      </trkpt>
      <trkpt lat="47.542634" lon="8.157526">
        <ele>454.802208</ele>
        <time>2021-11-14T20:24:14.366Z</time>
      </trkpt>
      <trkpt lat="47.542080" lon="8.157404">
        <ele>459.796260</ele>
        <time>2021-11-14T20:24:42.767Z</time>
      </trkpt>
      <trkpt lat="47.541274" lon="8.157256">
        <ele>467.805078</ele>
        <time>2021-11-14T20:25:26.921Z</time>
      </trkpt>
      <trkpt lat="47.540927" lon="8.157312">
        <ele>471.247102</ele>
        <time>2021-11-14T20:25:46.729Z</time>
      </trkpt>
      <trkpt lat="47.540810" lon="8.157356">
        <ele>472.437441</ele>
        <time>2021-11-14T20:25:54.880Z</time>
      </trkpt>
      <trkpt lat="47.540306" lon="8.157642">
        <ele>478.050544</ele>
        <time>2021-11-14T20:26:23.630Z</time>
      </trkpt>
      <trkpt lat="47.539939" lon="8.157871">
        <ele>482.384736</ele>
        <time>2021-11-14T20:26:46.017Z</time>
      </trkpt>
      <trkpt lat="47.539262" lon="8.158347">
        <ele>490.540828</ele>
        <time>2021-11-14T20:27:31.711Z</time>
      </trkpt>
      <trkpt lat="47.538652" lon="8.158920">
        <ele>498.175000</ele>
        <time>2021-11-14T20:28:14.923Z</time>
      </trkpt>
      <trkpt lat="47.538402" lon="8.158993">
        <ele>500.785570</ele>
        <time>2021-11-14T20:28:29.136Z</time>
      </trkpt>
      <trkpt lat="47.538129" lon="8.158926">
        <ele>503.620616</ele>
        <time>2021-11-14T20:28:43.452Z</time>
      </trkpt>
      <trkpt lat="47.537993" lon="8.158861">
        <ele>505.084685</ele>
        <time>2021-11-14T20:28:53.457Z</time>
      </trkpt>
      <trkpt lat="47.537777" lon="8.158663">
        <ele>507.687101</ele>
        <time>2021-11-14T20:29:05.939Z</time>
      </trkpt>
      <trkpt lat="47.537308" lon="8.158309">
        <ele>513.037969</ele>
        <time>2021-11-14T20:29:35.281Z</time>
      </trkpt>
      <trkpt lat="47.536680" lon="8.158080">
        <ele>517.404911</ele>
        <time>2021-11-14T20:30:08.952Z</time>
      </trkpt>
      <trkpt lat="47.535911" lon="8.157613">
        <ele>523.016758</ele>
        <time>2021-11-14T20:30:35.251Z</time>
      </trkpt>
      <trkpt lat="47.535831" lon="8.157512">
        <ele>523.726523</ele>
        <time>2021-11-14T20:30:42.436Z</time>
      </trkpt>
      <trkpt lat="47.535755" lon="8.157281">
        <ele>524.897934</ele>
        <time>2021-11-14T20:30:44.397Z</time>
      </trkpt>
      <trkpt lat="47.535755" lon="8.156923">
        <ele>526.807611</ele>
        <time>2021-11-14T20:30:57.225Z</time>
      </trkpt>
      <trkpt lat="47.535886" lon="8.156623">
        <ele>528.752961</ele>
        <time>2021-11-14T20:31:06.828Z</time>
      </trkpt>
      <trkpt lat="47.536227" lon="8.156418">
        <ele>531.720979</ele>
        <time>2021-11-14T20:31:23.798Z</time>
      </trkpt>
      <trkpt lat="47.536375" lon="8.156215">
        <ele>533.347749</ele>
        <time>2021-11-14T20:31:30.252Z</time>
      </trkpt>
      <trkpt lat="47.536379" lon="8.156114">
        <ele>533.898619</ele>
        <time>2021-11-14T20:31:30.956Z</time>
      </trkpt>
      <trkpt lat="47.536365" lon="8.156042">
        <ele>534.306581</ele>
        <time>2021-11-14T20:31:36.479Z</time>
      </trkpt>
      <trkpt lat="47.536275" lon="8.155911">
        <ele>535.324226</ele>
        <time>2021-11-14T20:31:43.990Z</time>
      </trkpt>
      <trkpt lat="47.535929" lon="8.155793">
        <ele>538.187697</ele>
        <time>2021-11-14T20:31:59.762Z</time>
      </trkpt>
      <trkpt lat="47.535638" lon="8.155780">
        <ele>541.126071</ele>
        <time>2021-11-14T20:32:17.100Z</time>
      </trkpt>
      <trkpt lat="47.535382" lon="8.155853">
        <ele>544.565983</ele>
        <time>2021-11-14T20:32:30.262Z</time>
      </trkpt>
      <trkpt lat="47.535321" lon="8.155886">
        <ele>545.422874</ele>
        <time>2021-11-14T20:32:37.227Z</time>
      </trkpt>
      <trkpt lat="47.535038" lon="8.156042">
        <ele>549.407231</ele>
        <time>2021-11-14T20:32:56.875Z</time>
      </trkpt>
      <trkpt lat="47.534225" lon="8.156664">
        <ele>561.481199</ele>
        <time>2021-11-14T20:34:05.431Z</time>
      </trkpt>
      <trkpt lat="47.533688" lon="8.156925">
        <ele>567.896853</ele>
        <time>2021-11-14T20:34:41.893Z</time>
      </trkpt>
      <trkpt lat="47.533018" lon="8.157247">
        <ele>575.461685</ele>
        <time>2021-11-14T20:35:23.348Z</time>
      </trkpt>
      <trkpt lat="47.532785" lon="8.157393">
        <ele>578.178730</ele>
        <time>2021-11-14T20:35:37.870Z</time>
      </trkpt>
      <trkpt lat="47.532610" lon="8.157621">
        <ele>580.681813</ele>
        <time>2021-11-14T20:35:50.467Z</time>
      </trkpt>
      <trkpt lat="47.532528" lon="8.157790">
        <ele>582.190854</ele>
        <time>2021-11-14T20:35:58.466Z</time>
      </trkpt>
      <trkpt lat="47.532498" lon="8.157872">
        <ele>582.713273</ele>
        <time>2021-11-14T20:36:02.130Z</time>
      </trkpt>
      <trkpt lat="47.532429" lon="8.158184">
        <ele>583.351336</ele>
        <time>2021-11-14T20:36:10.842Z</time>
      </trkpt>
      <trkpt lat="47.532432" lon="8.158587">
        <ele>584.134603</ele>
        <time>2021-11-14T20:36:19.684Z</time>
      </trkpt>
      <trkpt lat="47.532460" lon="8.158776">
        <ele>584.510657</ele>
        <time>2021-11-14T20:36:25.374Z</time>
      </trkpt>
      <trkpt lat="47.532477" lon="8.158926">
        <ele>584.806256</ele>
        <time>2021-11-14T20:36:29.829Z</time>
      </trkpt>
      <trkpt lat="47.532485" lon="8.159048">
        <ele>585.044475</ele>
        <time>2021-11-14T20:36:30.541Z</time>
      </trkpt>
      <trkpt lat="47.532482" lon="8.159131">
        <ele>585.206014</ele>
        <time>2021-11-14T20:36:32.329Z</time>
      </trkpt>
      <trkpt lat="47.532470" lon="8.159209">
        <ele>585.361491</ele>
        <time>2021-11-14T20:36:34.948Z</time>
      </trkpt>
      <trkpt lat="47.532302" lon="8.159474">
        <ele>586.067961</ele>
        <time>2021-11-14T20:36:38.571Z</time>
      </trkpt>
      <trkpt lat="47.532123" lon="8.159504">
        <ele>586.586498</ele>
        <time>2021-11-14T20:36:44.161Z</time>
      </trkpt>
      <trkpt lat="47.532070" lon="8.159485">
        <ele>586.743462</ele>
        <time>2021-11-14T20:36:46.724Z</time>
      </trkpt>
      <trkpt lat="47.532025" lon="8.159458">
        <ele>586.883219</ele>
        <time>2021-11-14T20:36:47.681Z</time>
      </trkpt>
      <trkpt lat="47.531737" lon="8.159129">
        <ele>587.632599</ele>
        <time>2021-11-14T20:36:52.123Z</time>
      </trkpt>
      <trkpt lat="47.531683" lon="8.159092">
        <ele>587.272245</ele>
        <time>2021-11-14T20:36:52.618Z</time>
      </trkpt>
      <trkpt lat="47.531625" lon="8.159067">
        <ele>586.906395</ele>
        <time>2021-11-14T20:36:53.212Z</time>
      </trkpt>
      <trkpt lat="47.531550" lon="8.159038">
        <ele>586.436932</ele>
        <time>2021-11-14T20:36:55.692Z</time>
      </trkpt>
      <trkpt lat="47.531478" lon="8.159022">
        <ele>585.995983</ele>
        <time>2021-11-14T20:36:57.009Z</time>
      </trkpt>
      <trkpt lat="47.531400" lon="8.159005">
        <ele>585.518489</ele>
        <time>2021-11-14T20:36:58.028Z</time>
      </trkpt>
      <trkpt lat="47.531366" lon="8.158998">
        <ele>585.310588</ele>
        <time>2021-11-14T20:36:58.348Z</time>
      </trkpt>
      <trkpt lat="47.531310" lon="8.158988">
        <ele>584.968967</ele>
        <time>2021-11-14T20:36:58.814Z</time>
      </trkpt>
      <trkpt lat="47.530516" lon="8.158915">
        <ele>580.150850</ele>
        <time>2021-11-14T20:37:06.013Z</time>
      </trkpt>
      <trkpt lat="47.529891" lon="8.159001">
        <ele>576.183188</ele>
        <time>2021-11-14T20:37:11.437Z</time>
      </trkpt>
      <trkpt lat="47.529736" lon="8.159189">
        <ele>574.629214</ele>
        <time>2021-11-14T20:37:13.228Z</time>
      </trkpt>
      <trkpt lat="47.529654" lon="8.159620">
        <ele>572.284073</ele>
        <time>2021-11-14T20:37:15.927Z</time>
      </trkpt>
      <trkpt lat="47.529635" lon="8.159696">
        <ele>571.859637</ele>
        <time>2021-11-14T20:37:16.410Z</time>
      </trkpt>
      <trkpt lat="47.529614" lon="8.159742">
        <ele>571.568827</ele>
        <time>2021-11-14T20:37:16.737Z</time>
      </trkpt>
      <trkpt lat="47.529587" lon="8.159773">
        <ele>571.303841</ele>
        <time>2021-11-14T20:37:17.022Z</time>
      </trkpt>
      <trkpt lat="47.529554" lon="8.159792">
        <ele>571.029216</ele>
        <time>2021-11-14T20:37:17.324Z</time>
      </trkpt>
      <trkpt lat="47.529513" lon="8.159796">
        <ele>570.710512</ele>
        <time>2021-11-14T20:37:17.667Z</time>
      </trkpt>
      <trkpt lat="47.529427" lon="8.159752">
        <ele>570.004775</ele>
        <time>2021-11-14T20:37:18.522Z</time>
      </trkpt>
      <trkpt lat="47.529173" lon="8.159303">
        <ele>566.937014</ele>
        <time>2021-11-14T20:37:22.029Z</time>
      </trkpt>
      <trkpt lat="47.528995" lon="8.159185">
        <ele>565.424361</ele>
        <time>2021-11-14T20:37:23.731Z</time>
      </trkpt>
      <trkpt lat="47.528775" lon="8.159174">
        <ele>563.716968</ele>
        <time>2021-11-14T20:37:25.813Z</time>
      </trkpt>
      <trkpt lat="47.528479" lon="8.159315">
        <ele>562.341749</ele>
        <time>2021-11-14T20:37:28.646Z</time>
      </trkpt>
      <trkpt lat="47.528376" lon="8.159282">
        <ele>562.027326</ele>
        <time>2021-11-14T20:37:29.718Z</time>
      </trkpt>
      <trkpt lat="47.528358" lon="8.159233">
        <ele>561.914947</ele>
        <time>2021-11-14T20:37:30.034Z</time>
      </trkpt>
      <trkpt lat="47.528287" lon="8.159214">
        <ele>561.699679</ele>
        <time>2021-11-14T20:37:30.660Z</time>
      </trkpt>
      <trkpt lat="47.527983" lon="8.159252">
        <ele>560.789431</ele>
        <time>2021-11-14T20:37:33.826Z</time>
      </trkpt>
      <trkpt lat="47.527958" lon="8.159243">
        <ele>560.712668</ele>
        <time>2021-11-14T20:37:34.041Z</time>
      </trkpt>
      <trkpt lat="47.527947" lon="8.159230">
        <ele>560.670679</ele>
        <time>2021-11-14T20:37:34.179Z</time>
      </trkpt>
      <trkpt lat="47.527937" lon="8.159204">
        <ele>560.610397</ele>
        <time>2021-11-14T20:37:35.145Z</time>
      </trkpt>
      <trkpt lat="47.527831" lon="8.158278">
        <ele>558.718224</ele>
        <time>2021-11-14T20:37:42.280Z</time>
      </trkpt>
      <trkpt lat="47.527755" lon="8.158037">
        <ele>558.182355</ele>
        <time>2021-11-14T20:37:44.359Z</time>
      </trkpt>
      <trkpt lat="47.527713" lon="8.157956">
        <ele>557.976605</ele>
        <time>2021-11-14T20:37:46.022Z</time>
      </trkpt>
      <trkpt lat="47.527439" lon="8.157168">
        <ele>557.310077</ele>
        <time>2021-11-14T20:37:54.079Z</time>
      </trkpt>
      <trkpt lat="47.526984" lon="8.155261">
        <ele>556.336299</ele>
        <time>2021-11-14T20:38:12.999Z</time>
      </trkpt>
      <trkpt lat="47.526626" lon="8.154250">
        <ele>554.477461</ele>
        <time>2021-11-14T20:38:21.108Z</time>
      </trkpt>
      <trkpt lat="47.526555" lon="8.153923">
        <ele>553.918155</ele>
        <time>2021-11-14T20:38:23.609Z</time>
      </trkpt>
      <trkpt lat="47.526521" lon="8.153700">
        <ele>553.545902</ele>
        <time>2021-11-14T20:38:28.118Z</time>
      </trkpt>
      <trkpt lat="47.526505" lon="8.153493">
        <ele>553.206641</ele>
        <time>2021-11-14T20:38:32.615Z</time>
      </trkpt>
      <trkpt lat="47.526455" lon="8.153308">
        <ele>552.882170</ele>
        <time>2021-11-14T20:38:36.719Z</time>
      </trkpt>
      <trkpt lat="47.526376" lon="8.153143">
        <ele>552.552814</ele>
        <time>2021-11-14T20:38:38.037Z</time>
      </trkpt>
      <trkpt lat="47.526233" lon="8.152973">
        <ele>552.109286</ele>
        <time>2021-11-14T20:38:40.039Z</time>
      </trkpt>
      <trkpt lat="47.526015" lon="8.152528">
        <ele>550.620080</ele>
        <time>2021-11-14T20:38:43.762Z</time>
      </trkpt>
      <trkpt lat="47.525986" lon="8.152431">
        <ele>550.332728</ele>
        <time>2021-11-14T20:38:44.427Z</time>
      </trkpt>
      <trkpt lat="47.525781" lon="8.151732">
        <ele>548.268426</ele>
        <time>2021-11-14T20:38:49.387Z</time>
      </trkpt>
      <trkpt lat="47.525712" lon="8.151526">
        <ele>547.645541</ele>
        <time>2021-11-14T20:38:50.919Z</time>
      </trkpt>
      <trkpt lat="47.525631" lon="8.151281">
        <ele>546.906614</ele>
        <time>2021-11-14T20:38:52.641Z</time>
      </trkpt>
      <trkpt lat="47.525477" lon="8.150925">
        <ele>545.761378</ele>
        <time>2021-11-14T20:38:55.443Z</time>
      </trkpt>
      <trkpt lat="47.525250" lon="8.150500">
        <ele>544.339320</ele>
        <time>2021-11-14T20:38:58.929Z</time>
      </trkpt>
      <trkpt lat="47.524838" lon="8.149751">
        <ele>541.920843</ele>
        <time>2021-11-14T20:39:05.387Z</time>
      </trkpt>
      <trkpt lat="47.524547" lon="8.149022">
        <ele>539.800781</ele>
        <time>2021-11-14T20:39:11.132Z</time>
      </trkpt>
      <trkpt lat="47.524468" lon="8.148740">
        <ele>539.036456</ele>
        <time>2021-11-14T20:39:13.112Z</time>
      </trkpt>
      <trkpt lat="47.524426" lon="8.148623">
        <ele>538.704732</ele>
        <time>2021-11-14T20:39:14.087Z</time>
      </trkpt>
      <trkpt lat="47.524342" lon="8.148337">
        <ele>537.880993</ele>
        <time>2021-11-14T20:39:16.147Z</time>
      </trkpt>
      <trkpt lat="47.524236" lon="8.148019">
        <ele>536.868266</ele>
        <time>2021-11-14T20:39:18.648Z</time>
      </trkpt>
      <trkpt lat="47.524184" lon="8.147870">
        <ele>536.389300</ele>
        <time>2021-11-14T20:39:19.766Z</time>
      </trkpt>
      <trkpt lat="47.524101" lon="8.147621">
        <ele>535.596314</ele>
        <time>2021-11-14T20:39:21.689Z</time>
      </trkpt>
      <trkpt lat="47.523983" lon="8.147357">
        <ele>534.692215</ele>
        <time>2021-11-14T20:39:23.840Z</time>
      </trkpt>
      <trkpt lat="47.523819" lon="8.147090">
        <ele>533.661497</ele>
        <time>2021-11-14T20:39:26.250Z</time>
      </trkpt>
      <trkpt lat="47.523253" lon="8.146107">
        <ele>529.566060</ele>
        <time>2021-11-14T20:39:34.487Z</time>
      </trkpt>
      <trkpt lat="47.523143" lon="8.145922">
        <ele>528.422428</ele>
        <time>2021-11-14T20:39:35.956Z</time>
      </trkpt>
      <trkpt lat="47.522931" lon="8.145526">
        <ele>526.077823</ele>
        <time>2021-11-14T20:39:39.021Z</time>
      </trkpt>
      <trkpt lat="47.522791" lon="8.145287">
        <ele>524.609900</ele>
        <time>2021-11-14T20:39:40.972Z</time>
      </trkpt>
      <trkpt lat="47.522731" lon="8.145171">
        <ele>523.931967</ele>
        <time>2021-11-14T20:39:41.825Z</time>
      </trkpt>
      <trkpt lat="47.522611" lon="8.144805">
        <ele>522.044290</ele>
        <time>2021-11-14T20:39:44.314Z</time>
      </trkpt>
      <trkpt lat="47.522534" lon="8.143857">
        <ele>517.654809</ele>
        <time>2021-11-14T20:39:50.021Z</time>
      </trkpt>
      <trkpt lat="47.521571" lon="8.142474">
        <ele>509.013011</ele>
        <time>2021-11-14T20:40:02.193Z</time>
      </trkpt>
      <trkpt lat="47.521505" lon="8.142343">
        <ele>508.302000</ele>
        <time>2021-11-14T20:40:03.228Z</time>
      </trkpt>
      <trkpt lat="47.521323" lon="8.141385">
        <ele>504.267367</ele>
        <time>2021-11-14T20:40:09.459Z</time>
      </trkpt>
      <trkpt lat="47.521217" lon="8.141214">
        <ele>503.367567</ele>
        <time>2021-11-14T20:40:10.933Z</time>
      </trkpt>
      <trkpt lat="47.520979" lon="8.141091">
        <ele>501.920571</ele>
        <time>2021-11-14T20:40:13.277Z</time>
      </trkpt>
      <trkpt lat="47.520809" lon="8.141121">
        <ele>500.937822</ele>
        <time>2021-11-14T20:40:14.883Z</time>
      </trkpt>
      <trkpt lat="47.520728" lon="8.141141">
        <ele>500.466442</ele>
        <time>2021-11-14T20:40:15.630Z</time>
      </trkpt>
      <trkpt lat="47.520656" lon="8.141153">
        <ele>500.050534</ele>
        <time>2021-11-14T20:40:16.315Z</time>
      </trkpt>
      <trkpt lat="47.520494" lon="8.141123">
        <ele>499.113369</ele>
        <time>2021-11-14T20:40:17.786Z</time>
      </trkpt>
      <trkpt lat="47.520353" lon="8.141020">
        <ele>498.210862</ele>
        <time>2021-11-14T20:40:19.247Z</time>
      </trkpt>
      <trkpt lat="47.520231" lon="8.140864">
        <ele>497.285579</ele>
        <time>2021-11-14T20:40:20.730Z</time>
      </trkpt>
      <trkpt lat="47.520122" lon="8.140718">
        <ele>496.441886</ele>
        <time>2021-11-14T20:40:22.087Z</time>
      </trkpt>
      <trkpt lat="47.520010" lon="8.140561">
        <ele>495.563553</ele>
        <time>2021-11-14T20:40:23.533Z</time>
      </trkpt>
      <trkpt lat="47.519799" lon="8.140263">
        <ele>493.904398</ele>
        <time>2021-11-14T20:40:26.166Z</time>
      </trkpt>
      <trkpt lat="47.519606" lon="8.139968">
        <ele>492.326079</ele>
        <time>2021-11-14T20:40:28.645Z</time>
      </trkpt>
      <trkpt lat="47.519509" lon="8.139849">
        <ele>491.609316</ele>
        <time>2021-11-14T20:40:29.834Z</time>
      </trkpt>
      <trkpt lat="47.519420" lon="8.139752">
        <ele>490.980507</ele>
        <time>2021-11-14T20:40:30.821Z</time>
      </trkpt>
      <trkpt lat="47.519094" lon="8.139647">
        <ele>489.082156</ele>
        <time>2021-11-14T20:40:33.899Z</time>
      </trkpt>
      <trkpt lat="47.518769" lon="8.139831">
        <ele>487.102305</ele>
        <time>2021-11-14T20:40:37.125Z</time>
      </trkpt>
      <trkpt lat="47.518669" lon="8.139927">
        <ele>486.424170</ele>
        <time>2021-11-14T20:40:38.209Z</time>
      </trkpt>
      <trkpt lat="47.518621" lon="8.139978">
        <ele>486.114895</ele>
        <time>2021-11-14T20:40:38.822Z</time>
      </trkpt>
      <trkpt lat="47.518520" lon="8.140038">
        <ele>486.025031</ele>
        <time>2021-11-14T20:40:39.976Z</time>
      </trkpt>
      <trkpt lat="47.518444" lon="8.139763">
        <ele>485.859326</ele>
        <time>2021-11-14T20:40:41.873Z</time>
      </trkpt>
      <trkpt lat="47.518154" lon="8.138644">
        <ele>485.190911</ele>
        <time>2021-11-14T20:40:51.500Z</time>
      </trkpt>
      <trkpt lat="47.518104" lon="8.138332">
        <ele>485.012082</ele>
        <time>2021-11-14T20:40:54.961Z</time>
      </trkpt>
      <trkpt lat="47.518054" lon="8.137953">
        <ele>484.796725</ele>
        <time>2021-11-14T20:41:00.517Z</time>
      </trkpt>
      <trkpt lat="47.518030" lon="8.137790">
        <ele>484.703687</ele>
        <time>2021-11-14T20:41:03.240Z</time>
      </trkpt>
      <trkpt lat="47.517976" lon="8.137488">
        <ele>485.099934</ele>
        <time>2021-11-14T20:41:09.066Z</time>
      </trkpt>
      <trkpt lat="47.517845" lon="8.137000">
        <ele>486.402032</ele>
        <time>2021-11-14T20:41:18.864Z</time>
      </trkpt>
      <trkpt lat="47.517686" lon="8.136537">
        <ele>487.689956</ele>
        <time>2021-11-14T20:41:28.870Z</time>
      </trkpt>
      <trkpt lat="47.517541" lon="8.136103">
        <ele>488.890561</ele>
        <time>2021-11-14T20:41:38.981Z</time>
      </trkpt>
      <trkpt lat="47.517476" lon="8.135870">
        <ele>489.515646</ele>
        <time>2021-11-14T20:41:44.468Z</time>
      </trkpt>
      <trkpt lat="47.517380" lon="8.135284">
        <ele>491.010807</ele>
        <time>2021-11-14T20:41:58.254Z</time>
      </trkpt>
      <trkpt lat="47.517374" lon="8.134964">
        <ele>491.960346</ele>
        <time>2021-11-14T20:42:05.301Z</time>
      </trkpt>
      <trkpt lat="47.517506" lon="8.134288">
        <ele>494.184748</ele>
        <time>2021-11-14T20:42:20.637Z</time>
      </trkpt>
      <trkpt lat="47.517600" lon="8.134020">
        <ele>495.139346</ele>
        <time>2021-11-14T20:42:27.389Z</time>
      </trkpt>
      <trkpt lat="47.517646" lon="8.133904">
        <ele>495.564565</ele>
        <time>2021-11-14T20:42:30.257Z</time>
      </trkpt>
      <trkpt lat="47.517932" lon="8.133229">
        <ele>498.083418</ele>
        <time>2021-11-14T20:42:47.833Z</time>
      </trkpt>
      <trkpt lat="47.518221" lon="8.132565">
        <ele>500.874719</ele>
        <time>2021-11-14T20:43:06.493Z</time>
      </trkpt>
      <trkpt lat="47.518527" lon="8.131863">
        <ele>504.356877</ele>
        <time>2021-11-14T20:43:29.372Z</time>
      </trkpt>
      <trkpt lat="47.518696" lon="8.131473">
        <ele>506.288064</ele>
        <time>2021-11-14T20:43:41.691Z</time>
      </trkpt>
      <trkpt lat="47.518837" lon="8.131164">
        <ele>507.842254</ele>
        <time>2021-11-14T20:43:51.391Z</time>
      </trkpt>
      <trkpt lat="47.518939" lon="8.131029">
        <ele>508.686499</ele>
        <time>2021-11-14T20:43:57.265Z</time>
      </trkpt>
      <trkpt lat="47.519016" lon="8.130950">
        <ele>509.264587</ele>
        <time>2021-11-14T20:44:00.656Z</time>
      </trkpt>
      <trkpt lat="47.519115" lon="8.130853">
        <ele>509.997158</ele>
        <time>2021-11-14T20:44:05.689Z</time>
      </trkpt>
      <trkpt lat="47.519537" lon="8.130421">
        <ele>514.304752</ele>
        <time>2021-11-14T20:44:27.966Z</time>
      </trkpt>
      <trkpt lat="47.519957" lon="8.129855">
        <ele>519.471363</ele>
        <time>2021-11-14T20:44:52.749Z</time>
      </trkpt>
      <trkpt lat="47.520822" lon="8.128489">
        <ele>533.013986</ele>
        <time>2021-11-14T20:46:08.212Z</time>
      </trkpt>
      <trkpt lat="47.520851" lon="8.128363">
        <ele>534.263903</ele>
        <time>2021-11-14T20:46:13.787Z</time>
      </trkpt>
      <trkpt lat="47.520824" lon="8.128212">
        <ele>535.730595</ele>
        <time>2021-11-14T20:46:24.952Z</time>
      </trkpt>
      <trkpt lat="47.520650" lon="8.128120">
        <ele>538.299481</ele>
        <time>2021-11-14T20:46:34.795Z</time>
      </trkpt>
      <trkpt lat="47.520505" lon="8.128188">
        <ele>540.414244</ele>
        <time>2021-11-14T20:46:48.491Z</time>
      </trkpt>
      <trkpt lat="47.520467" lon="8.128201">
        <ele>540.956511</ele>
        <time>2021-11-14T20:46:52.552Z</time>
      </trkpt>
      <trkpt lat="47.520344" lon="8.128214">
        <ele>542.671047</ele>
        <time>2021-11-14T20:46:58.765Z</time>
      </trkpt>
      <trkpt lat="47.520230" lon="8.128176">
        <ele>544.295760</ele>
        <time>2021-11-14T20:47:06.329Z</time>
      </trkpt>
      <trkpt lat="47.520129" lon="8.128104">
        <ele>545.854321</ele>
        <time>2021-11-14T20:47:18.173Z</time>
      </trkpt>
      <trkpt lat="47.519948" lon="8.127803">
        <ele>549.638690</ele>
        <time>2021-11-14T20:47:35.397Z</time>
      </trkpt>
      <trkpt lat="47.519773" lon="8.127131">
        <ele>555.712900</ele>
        <time>2021-11-14T20:48:14.286Z</time>
      </trkpt>
      <trkpt lat="47.519714" lon="8.126761">
        <ele>558.707476</ele>
        <time>2021-11-14T20:48:31.750Z</time>
      </trkpt>
      <trkpt lat="47.519704" lon="8.126247">
        <ele>562.757860</ele>
        <time>2021-11-14T20:48:55.838Z</time>
      </trkpt>
      <trkpt lat="47.519641" lon="8.125947">
        <ele>565.232530</ele>
        <time>2021-11-14T20:49:10.661Z</time>
      </trkpt>
      <trkpt lat="47.519073" lon="8.124669">
        <ele>574.566746</ele>
        <time>2021-11-14T20:49:58.493Z</time>
      </trkpt>
      <trkpt lat="47.519000" lon="8.124585">
        <ele>574.943714</ele>
        <time>2021-11-14T20:50:01.720Z</time>
      </trkpt>
      <trkpt lat="47.518640" lon="8.124328">
        <ele>576.573305</ele>
        <time>2021-11-14T20:50:15.004Z</time>
      </trkpt>
      <trkpt lat="47.518224" lon="8.124020">
        <ele>578.469770</ele>
        <time>2021-11-14T20:50:27.582Z</time>
      </trkpt>
      <trkpt lat="47.518119" lon="8.123894">
        <ele>579.020852</ele>
        <time>2021-11-14T20:50:31.749Z</time>
      </trkpt>
      <trkpt lat="47.518043" lon="8.123755">
        <ele>579.513342</ele>
        <time>2021-11-14T20:50:34.024Z</time>
      </trkpt>
      <trkpt lat="47.517865" lon="8.123246">
        <ele>580.055160</ele>
        <time>2021-11-14T20:50:42.088Z</time>
      </trkpt>
      <trkpt lat="47.517595" lon="8.122024">
        <ele>577.961050</ele>
        <time>2021-11-14T20:50:52.638Z</time>
      </trkpt>
      <trkpt lat="47.517430" lon="8.121363">
        <ele>576.813272</ele>
        <time>2021-11-14T20:50:57.182Z</time>
      </trkpt>
      <trkpt lat="47.517380" lon="8.121126">
        <ele>576.408866</ele>
        <time>2021-11-14T20:50:58.788Z</time>
      </trkpt>
      <trkpt lat="47.517360" lon="8.120980">
        <ele>576.166228</ele>
        <time>2021-11-14T20:50:59.666Z</time>
      </trkpt>
      <trkpt lat="47.517437" lon="8.120369">
        <ele>573.290091</ele>
        <time>2021-11-14T20:51:03.508Z</time>
      </trkpt>
      <trkpt lat="47.517519" lon="8.120168">
        <ele>572.156348</ele>
        <time>2021-11-14T20:51:04.993Z</time>
      </trkpt>
      <trkpt lat="47.517621" lon="8.119982">
        <ele>570.999576</ele>
        <time>2021-11-14T20:51:06.395Z</time>
      </trkpt>
      <trkpt lat="47.517857" lon="8.119775">
        <ele>569.038674</ele>
        <time>2021-11-14T20:51:08.798Z</time>
      </trkpt>
      <trkpt lat="47.518824" lon="8.119333">
        <ele>562.474065</ele>
        <time>2021-11-14T20:51:17.773Z</time>
      </trkpt>
      <trkpt lat="47.519064" lon="8.119070">
        <ele>561.332427</ele>
        <time>2021-11-14T20:51:20.515Z</time>
      </trkpt>
      <trkpt lat="47.519180" lon="8.118910">
        <ele>560.726268</ele>
        <time>2021-11-14T20:51:21.977Z</time>
      </trkpt>
      <trkpt lat="47.519221" lon="8.118862">
        <ele>560.526420</ele>
        <time>2021-11-14T20:51:22.502Z</time>
      </trkpt>
      <trkpt lat="47.519187" lon="8.118830">
        <ele>560.372378</ele>
        <time>2021-11-14T20:51:23.179Z</time>
      </trkpt>
      <trkpt lat="47.519020" lon="8.118892">
        <ele>559.714070</ele>
        <time>2021-11-14T20:51:24.879Z</time>
      </trkpt>
      <trkpt lat="47.518865" lon="8.118958">
        <ele>559.097391</ele>
        <time>2021-11-14T20:51:26.480Z</time>
      </trkpt>
      <trkpt lat="47.518662" lon="8.118990">
        <ele>558.316812</ele>
        <time>2021-11-14T20:51:28.660Z</time>
      </trkpt>
      <trkpt lat="47.518372" lon="8.119045">
        <ele>557.198905</ele>
        <time>2021-11-14T20:51:31.962Z</time>
      </trkpt>
      <trkpt lat="47.518291" lon="8.118990">
        <ele>556.858180</ele>
        <time>2021-11-14T20:51:32.835Z</time>
      </trkpt>
      <trkpt lat="47.518226" lon="8.118790">
        <ele>556.387550</ele>
        <time>2021-11-14T20:51:34.704Z</time>
      </trkpt>
      <trkpt lat="47.518234" lon="8.118678">
        <ele>556.458995</ele>
        <time>2021-11-14T20:51:35.726Z</time>
      </trkpt>
      <trkpt lat="47.518325" lon="8.118433">
        <ele>556.636370</ele>
        <time>2021-11-14T20:51:37.869Z</time>
      </trkpt>
      <trkpt lat="47.518622" lon="8.118005">
        <ele>557.025655</ele>
        <time>2021-11-14T20:51:47.001Z</time>
      </trkpt>
      <trkpt lat="47.518740" lon="8.117714">
        <ele>557.240974</ele>
        <time>2021-11-14T20:51:52.046Z</time>
      </trkpt>
      <trkpt lat="47.518885" lon="8.117042">
        <ele>557.688493</ele>
        <time>2021-11-14T20:52:02.028Z</time>
      </trkpt>
      <trkpt lat="47.518892" lon="8.116720">
        <ele>557.892863</ele>
        <time>2021-11-14T20:52:06.037Z</time>
      </trkpt>
      <trkpt lat="47.518474" lon="8.113619">
        <ele>561.432783</ele>
        <time>2021-11-14T20:52:54.362Z</time>
      </trkpt>
      <trkpt lat="47.518295" lon="8.113056">
        <ele>561.428163</ele>
        <time>2021-11-14T20:53:03.974Z</time>
      </trkpt>
      <trkpt lat="47.517983" lon="8.112466">
        <ele>561.422600</ele>
        <time>2021-11-14T20:53:12.504Z</time>
      </trkpt>
      <trkpt lat="47.517585" lon="8.111839">
        <ele>561.416212</ele>
        <time>2021-11-14T20:53:19.669Z</time>
      </trkpt>
      <trkpt lat="47.517402" lon="8.111532">
        <ele>560.677978</ele>
        <time>2021-11-14T20:53:22.590Z</time>
      </trkpt>
      <trkpt lat="47.517126" lon="8.111099">
        <ele>558.672616</ele>
        <time>2021-11-14T20:53:26.471Z</time>
      </trkpt>
      <trkpt lat="47.516960" lon="8.110849">
        <ele>557.491786</ele>
        <time>2021-11-14T20:53:28.706Z</time>
      </trkpt>
      <trkpt lat="47.516730" lon="8.110266">
        <ele>555.217694</ele>
        <time>2021-11-14T20:53:32.957Z</time>
      </trkpt>
      <trkpt lat="47.516517" lon="8.109548">
        <ele>552.576349</ele>
        <time>2021-11-14T20:53:37.738Z</time>
      </trkpt>
      <trkpt lat="47.516180" lon="8.108478">
        <ele>546.974600</ele>
        <time>2021-11-14T20:53:44.923Z</time>
      </trkpt>
      <trkpt lat="47.515524" lon="8.106413">
        <ele>535.028020</ele>
        <time>2021-11-14T20:53:58.694Z</time>
      </trkpt>
      <trkpt lat="47.515271" lon="8.105582">
        <ele>529.447691</ele>
        <time>2021-11-14T20:54:04.101Z</time>
      </trkpt>
      <trkpt lat="47.515233" lon="8.105459">
        <ele>528.619649</ele>
        <time>2021-11-14T20:54:04.886Z</time>
      </trkpt>
      <trkpt lat="47.514931" lon="8.104527">
        <ele>521.846786</ele>
        <time>2021-11-14T20:54:10.853Z</time>
      </trkpt>
      <trkpt lat="47.514756" lon="8.103964">
        <ele>516.503641</ele>
        <time>2021-11-14T20:54:14.395Z</time>
      </trkpt>
      <trkpt lat="47.514667" lon="8.103702">
        <ele>513.975255</ele>
        <time>2021-11-14T20:54:16.067Z</time>
      </trkpt>
      <trkpt lat="47.514173" lon="8.102716">
        <ele>503.391119</ele>
        <time>2021-11-14T20:54:23.013Z</time>
      </trkpt>
      <trkpt lat="47.513402" lon="8.101592">
        <ele>490.366734</ele>
        <time>2021-11-14T20:54:32.045Z</time>
      </trkpt>
      <trkpt lat="47.513274" lon="8.101477">
        <ele>488.594348</ele>
        <time>2021-11-14T20:54:33.360Z</time>
      </trkpt>
      <trkpt lat="47.513213" lon="8.101454">
        <ele>487.849198</ele>
        <time>2021-11-14T20:54:33.879Z</time>
      </trkpt>
      <trkpt lat="47.513097" lon="8.101440">
        <ele>486.471467</ele>
        <time>2021-11-14T20:54:34.884Z</time>
      </trkpt>
      <trkpt lat="47.512294" lon="8.101446">
        <ele>478.072380</ele>
        <time>2021-11-14T20:54:41.846Z</time>
      </trkpt>
      <trkpt lat="47.511784" lon="8.101451">
        <ele>475.123593</ele>
        <time>2021-11-14T20:54:46.329Z</time>
      </trkpt>
      <trkpt lat="47.511350" lon="8.101444">
        <ele>472.614140</ele>
        <time>2021-11-14T20:54:50.593Z</time>
      </trkpt>
      <trkpt lat="47.510731" lon="8.101349">
        <ele>469.016022</ele>
        <time>2021-11-14T20:54:56.734Z</time>
      </trkpt>
      <trkpt lat="47.509944" lon="8.100887">
        <ele>465.874926</ele>
        <time>2021-11-14T20:55:05.130Z</time>
      </trkpt>
      <trkpt lat="47.509638" lon="8.100703">
        <ele>464.692056</ele>
        <time>2021-11-14T20:55:08.422Z</time>
      </trkpt>
      <trkpt lat="47.509622" lon="8.100692">
        <ele>464.628875</ele>
        <time>2021-11-14T20:55:08.600Z</time>
      </trkpt>
      <trkpt lat="47.509412" lon="8.100549">
        <ele>463.801026</ele>
        <time>2021-11-14T20:55:10.926Z</time>
      </trkpt>
      <trkpt lat="47.509343" lon="8.100494">
        <ele>463.520363</ele>
        <time>2021-11-14T20:55:11.724Z</time>
      </trkpt>
      <trkpt lat="47.509176" lon="8.100345">
        <ele>462.822041</ele>
        <time>2021-11-14T20:55:13.691Z</time>
      </trkpt>
      <trkpt lat="47.508688" lon="8.099702">
        <ele>460.986806</ele>
        <time>2021-11-14T20:55:20.160Z</time>
      </trkpt>
      <trkpt lat="47.508596" lon="8.099602">
        <ele>460.692253</ele>
        <time>2021-11-14T20:55:21.237Z</time>
      </trkpt>
      <trkpt lat="47.508511" lon="8.099532">
        <ele>460.441233</ele>
        <time>2021-11-14T20:55:22.157Z</time>
      </trkpt>
      <trkpt lat="47.508401" lon="8.099452">
        <ele>460.124944</ele>
        <time>2021-11-14T20:55:23.466Z</time>
      </trkpt>
      <trkpt lat="47.508341" lon="8.099423">
        <ele>459.962055</ele>
        <time>2021-11-14T20:55:24.111Z</time>
      </trkpt>
      <trkpt lat="47.508035" lon="8.099268">
        <ele>459.127398</ele>
        <time>2021-11-14T20:55:27.588Z</time>
      </trkpt>
      <trkpt lat="47.507728" lon="8.099150">
        <ele>458.308838</ele>
        <time>2021-11-14T20:55:31.386Z</time>
      </trkpt>
      <trkpt lat="47.507666" lon="8.099135">
        <ele>458.146709</ele>
        <time>2021-11-14T20:55:32.102Z</time>
      </trkpt>
      <trkpt lat="47.507495" lon="8.099134">
        <ele>457.705397</ele>
        <time>2021-11-14T20:55:33.973Z</time>
      </trkpt>
      <trkpt lat="47.507198" lon="8.099101">
        <ele>457.201695</ele>
        <time>2021-11-14T20:55:38.024Z</time>
      </trkpt>
      <trkpt lat="47.507131" lon="8.099082">
        <ele>457.091406</ele>
        <time>2021-11-14T20:55:38.725Z</time>
      </trkpt>
      <trkpt lat="47.506976" lon="8.099024">
        <ele>456.832933</ele>
        <time>2021-11-14T20:55:41.347Z</time>
      </trkpt>
      <trkpt lat="47.506874" lon="8.098948">
        <ele>456.648318</ele>
        <time>2021-11-14T20:55:42.742Z</time>
      </trkpt>
      <trkpt lat="47.506767" lon="8.098876">
        <ele>456.458297</ele>
        <time>2021-11-14T20:55:43.994Z</time>
      </trkpt>
      <trkpt lat="47.506485" lon="8.098597">
        <ele>455.909937</ele>
        <time>2021-11-14T20:55:47.793Z</time>
      </trkpt>
      <trkpt lat="47.506383" lon="8.098483">
        <ele>455.703311</ele>
        <time>2021-11-14T20:55:49.554Z</time>
      </trkpt>
      <trkpt lat="47.506023" lon="8.098051">
        <ele>454.954089</ele>
        <time>2021-11-14T20:55:54.573Z</time>
      </trkpt>
      <trkpt lat="47.505855" lon="8.097849">
        <ele>454.440940</ele>
        <time>2021-11-14T20:55:56.827Z</time>
      </trkpt>
      <trkpt lat="47.505811" lon="8.097796">
        <ele>454.237452</ele>
        <time>2021-11-14T20:55:57.452Z</time>
      </trkpt>
      <trkpt lat="47.505520" lon="8.097456">
        <ele>452.907598</ele>
        <time>2021-11-14T20:56:01.429Z</time>
      </trkpt>
      <trkpt lat="47.505224" lon="8.097111">
        <ele>451.556155</ele>
        <time>2021-11-14T20:56:05.260Z</time>
      </trkpt>
      <trkpt lat="47.505090" lon="8.096968">
        <ele>450.963582</ele>
        <time>2021-11-14T20:56:06.857Z</time>
      </trkpt>
      <trkpt lat="47.504977" lon="8.096829">
        <ele>450.436542</ele>
        <time>2021-11-14T20:56:08.306Z</time>
      </trkpt>
      <trkpt lat="47.504815" lon="8.096672">
        <ele>449.741948</ele>
        <time>2021-11-14T20:56:10.124Z</time>
      </trkpt>
      <trkpt lat="47.504630" lon="8.096527">
        <ele>448.991028</ele>
        <time>2021-11-14T20:56:12.118Z</time>
      </trkpt>
      <trkpt lat="47.503767" lon="8.095971">
        <ele>445.786327</ele>
        <time>2021-11-14T20:56:21.078Z</time>
      </trkpt>
      <trkpt lat="47.503482" lon="8.095792">
        <ele>444.747082</ele>
        <time>2021-11-14T20:56:24.099Z</time>
      </trkpt>
      <trkpt lat="47.502910" lon="8.095439">
        <ele>442.666797</ele>
        <time>2021-11-14T20:56:30.826Z</time>
      </trkpt>
      <trkpt lat="47.502574" lon="8.095231">
        <ele>442.068999</ele>
        <time>2021-11-14T20:56:35.255Z</time>
      </trkpt>
      <trkpt lat="47.502282" lon="8.095019">
        <ele>441.825621</ele>
        <time>2021-11-14T20:56:39.250Z</time>
      </trkpt>
      <trkpt lat="47.502217" lon="8.094977">
        <ele>441.772548</ele>
        <time>2021-11-14T20:56:40.024Z</time>
      </trkpt>
      <trkpt lat="47.502110" lon="8.094873">
        <ele>441.676759</ele>
        <time>2021-11-14T20:56:41.436Z</time>
      </trkpt>
      <trkpt lat="47.502026" lon="8.094768">
        <ele>441.594486</ele>
        <time>2021-11-14T20:56:43.573Z</time>
      </trkpt>
      <trkpt lat="47.501590" lon="8.094043">
        <ele>441.103786</ele>
        <time>2021-11-14T20:56:52.315Z</time>
      </trkpt>
      <trkpt lat="47.501513" lon="8.093894">
        <ele>441.008948</ele>
        <time>2021-11-14T20:56:54.863Z</time>
      </trkpt>
      <trkpt lat="47.501149" lon="8.093186">
        <ele>440.272807</ele>
        <time>2021-11-14T20:57:02.742Z</time>
      </trkpt>
      <trkpt lat="47.500685" lon="8.092227">
        <ele>439.178763</ele>
        <time>2021-11-14T20:57:12.631Z</time>
      </trkpt>
      <trkpt lat="47.500507" lon="8.091877">
        <ele>438.772440</ele>
        <time>2021-11-14T20:57:15.862Z</time>
      </trkpt>
      <trkpt lat="47.500332" lon="8.091539">
        <ele>438.279848</ele>
        <time>2021-11-14T20:57:18.929Z</time>
      </trkpt>
      <trkpt lat="47.498994" lon="8.089359">
        <ele>430.543449</ele>
        <time>2021-11-14T20:57:38.410Z</time>
      </trkpt>
      <trkpt lat="47.498851" lon="8.089152">
        <ele>429.615633</ele>
        <time>2021-11-14T20:57:40.299Z</time>
      </trkpt>
      <trkpt lat="47.498666" lon="8.088885">
        <ele>428.417055</ele>
        <time>2021-11-14T20:57:42.660Z</time>
      </trkpt>
      <trkpt lat="47.498481" lon="8.088558">
        <ele>427.080405</ele>
        <time>2021-11-14T20:57:45.385Z</time>
      </trkpt>
      <trkpt lat="47.498188" lon="8.087851">
        <ele>424.481070</ele>
        <time>2021-11-14T20:57:50.703Z</time>
      </trkpt>
      <trkpt lat="47.497928" lon="8.087452">
        <ele>422.875117</ele>
        <time>2021-11-14T20:57:54.324Z</time>
      </trkpt>
      <trkpt lat="47.497737" lon="8.087270">
        <ele>422.082252</ele>
        <time>2021-11-14T20:57:56.508Z</time>
      </trkpt>
      <trkpt lat="47.497376" lon="8.086991">
        <ele>420.660800</ele>
        <time>2021-11-14T20:58:00.723Z</time>
      </trkpt>
      <trkpt lat="47.496950" lon="8.086653">
        <ele>418.973738</ele>
        <time>2021-11-14T20:58:05.717Z</time>
      </trkpt>
      <trkpt lat="47.496752" lon="8.086468">
        <ele>418.156464</ele>
        <time>2021-11-14T20:58:08.047Z</time>
      </trkpt>
      <trkpt lat="47.496576" lon="8.086291">
        <ele>417.413769</ele>
        <time>2021-11-14T20:58:10.349Z</time>
      </trkpt>
      <trkpt lat="47.496519" lon="8.086234">
        <ele>417.173665</ele>
        <time>2021-11-14T20:58:10.957Z</time>
      </trkpt>
      <trkpt lat="47.496422" lon="8.086009">
        <ele>416.432935</ele>
        <time>2021-11-14T20:58:12.717Z</time>
      </trkpt>
      <trkpt lat="47.496373" lon="8.085787">
        <ele>415.746593</ele>
        <time>2021-11-14T20:58:14.407Z</time>
      </trkpt>
      <trkpt lat="47.496274" lon="8.085642">
        <ele>415.140779</ele>
        <time>2021-11-14T20:58:15.696Z</time>
      </trkpt>
      <trkpt lat="47.496002" lon="8.085400">
        <ele>413.760371</ele>
        <time>2021-11-14T20:58:18.780Z</time>
      </trkpt>
      <trkpt lat="47.495636" lon="8.084745">
        <ele>411.262431</ele>
        <time>2021-11-14T20:58:24.368Z</time>
      </trkpt>
      <trkpt lat="47.495549" lon="8.084639">
        <ele>410.772284</ele>
        <time>2021-11-14T20:58:25.369Z</time>
      </trkpt>
      <trkpt lat="47.495445" lon="8.084551">
        <ele>410.251213</ele>
        <time>2021-11-14T20:58:26.500Z</time>
      </trkpt>
      <trkpt lat="47.495171" lon="8.084232">
        <ele>408.824228</ele>
        <time>2021-11-14T20:58:29.765Z</time>
      </trkpt>
      <trkpt lat="47.495106" lon="8.084168">
        <ele>408.553917</ele>
        <time>2021-11-14T20:58:30.523Z</time>
      </trkpt>
      <trkpt lat="47.495055" lon="8.084135">
        <ele>408.361194</ele>
        <time>2021-11-14T20:58:31.098Z</time>
      </trkpt>
      <trkpt lat="47.494924" lon="8.084065">
        <ele>407.878957</ele>
        <time>2021-11-14T20:58:32.411Z</time>
      </trkpt>
      <trkpt lat="47.494822" lon="8.084015">
        <ele>407.506921</ele>
        <time>2021-11-14T20:58:33.466Z</time>
      </trkpt>
      <trkpt lat="47.494898" lon="8.083514">
        <ele>406.305693</ele>
        <time>2021-11-14T20:58:36.834Z</time>
      </trkpt>
      <trkpt lat="47.494933" lon="8.083243">
        <ele>405.660232</ele>
        <time>2021-11-14T20:58:38.680Z</time>
      </trkpt>
      <trkpt lat="47.494963" lon="8.083009">
        <ele>405.103040</ele>
        <time>2021-11-14T20:58:40.239Z</time>
      </trkpt>
      <trkpt lat="47.494982" lon="8.082826">
        <ele>404.669902</ele>
        <time>2021-11-14T20:58:41.509Z</time>
      </trkpt>
      <trkpt lat="47.495018" lon="8.082502">
        <ele>403.901750</ele>
        <time>2021-11-14T20:58:44.030Z</time>
      </trkpt>
      <trkpt lat="47.495034" lon="8.082354">
        <ele>403.551113</ele>
        <time>2021-11-14T20:58:45.066Z</time>
      </trkpt>
      <trkpt lat="47.495088" lon="8.082021">
        <ele>402.901580</ele>
        <time>2021-11-14T20:58:47.732Z</time>
      </trkpt>
      <trkpt lat="47.495132" lon="8.081754">
        <ele>402.757813</ele>
        <time>2021-11-14T20:58:49.950Z</time>
      </trkpt>
      <trkpt lat="47.495162" lon="8.081632">
        <ele>402.689897</ele>
        <time>2021-11-14T20:58:51.003Z</time>
      </trkpt>
      <trkpt lat="47.495207" lon="8.081445">
        <ele>402.586055</ele>
        <time>2021-11-14T20:58:52.580Z</time>
      </trkpt>
      <trkpt lat="47.495281" lon="8.081177">
        <ele>402.434604</ele>
        <time>2021-11-14T20:58:55.095Z</time>
      </trkpt>
      <trkpt lat="47.495292" lon="8.081144">
        <ele>402.415355</ele>
        <time>2021-11-14T20:58:55.381Z</time>
      </trkpt>
      <trkpt lat="47.495384" lon="8.080873">
        <ele>402.256702</ele>
        <time>2021-11-14T20:58:57.931Z</time>
      </trkpt>
      <trkpt lat="47.495515" lon="8.080558">
        <ele>402.063208</ele>
        <time>2021-11-14T20:59:01.341Z</time>
      </trkpt>
      <trkpt lat="47.495562" lon="8.080466">
        <ele>402.002873</ele>
        <time>2021-11-14T20:59:02.436Z</time>
      </trkpt>
      <trkpt lat="47.495681" lon="8.080229">
        <ele>401.848408</ele>
        <time>2021-11-14T20:59:05.306Z</time>
      </trkpt>
      <trkpt lat="47.495859" lon="8.079943">
        <ele>401.644997</ele>
        <time>2021-11-14T20:59:09.142Z</time>
      </trkpt>
      <trkpt lat="47.496040" lon="8.079701">
        <ele>401.470723</ele>
        <time>2021-11-14T20:59:12.358Z</time>
      </trkpt>
      <trkpt lat="47.496380" lon="8.079285">
        <ele>401.180760</ele>
        <time>2021-11-14T20:59:18.382Z</time>
      </trkpt>
      <trkpt lat="47.496446" lon="8.079280">
        <ele>401.137320</ele>
        <time>2021-11-14T20:59:19.541Z</time>
      </trkpt>
      <trkpt lat="47.496793" lon="8.078891">
        <ele>400.851192</ele>
        <time>2021-11-14T20:59:27.564Z</time>
      </trkpt>
      <trkpt lat="47.497038" lon="8.078610">
        <ele>400.647457</ele>
        <time>2021-11-14T20:59:33.075Z</time>
      </trkpt>
      <trkpt lat="47.497125" lon="8.078508">
        <ele>400.574503</ele>
        <time>2021-11-14T20:59:34.928Z</time>
      </trkpt>
      <trkpt lat="47.497112" lon="8.078490">
        <ele>400.562802</ele>
        <time>2021-11-14T20:59:35.182Z</time>
      </trkpt>
      <trkpt lat="47.497084" lon="8.078448">
        <ele>400.536598</ele>
        <time>2021-11-14T20:59:35.796Z</time>
      </trkpt>
      <trkpt lat="47.497208" lon="8.078293">
        <ele>400.429913</ele>
        <time>2021-11-14T20:59:37.970Z</time>
      </trkpt>
      <trkpt lat="47.497325" lon="8.078131">
        <ele>400.294076</ele>
        <time>2021-11-14T20:59:39.797Z</time>
      </trkpt>
      <trkpt lat="47.497745" lon="8.077494">
        <ele>399.635276</ele>
        <time>2021-11-14T20:59:46.928Z</time>
      </trkpt>
      <trkpt lat="47.498061" lon="8.076857">
        <ele>399.050343</ele>
        <time>2021-11-14T20:59:52.851Z</time>
      </trkpt>
      <trkpt lat="47.498612" lon="8.075468">
        <ele>398.640953</ele>
        <time>2021-11-14T21:00:07.376Z</time>
      </trkpt>
      <trkpt lat="47.498775" lon="8.075058">
        <ele>398.797619</ele>
        <time>2021-11-14T21:00:12.836Z</time>
      </trkpt>
      <trkpt lat="47.498880" lon="8.074711">
        <ele>398.922834</ele>
        <time>2021-11-14T21:00:17.416Z</time>
      </trkpt>
      <trkpt lat="47.498960" lon="8.074378">
        <ele>399.039226</ele>
        <time>2021-11-14T21:00:22.314Z</time>
      </trkpt>
      <trkpt lat="47.499013" lon="8.074135">
        <ele>399.123318</ele>
        <time>2021-11-14T21:00:25.242Z</time>
      </trkpt>
      <trkpt lat="47.499051" lon="8.073942">
        <ele>399.189522</ele>
        <time>2021-11-14T21:00:28.363Z</time>
      </trkpt>
      <trkpt lat="47.499138" lon="8.073263">
        <ele>399.158414</ele>
        <time>2021-11-14T21:00:36.982Z</time>
      </trkpt>
      <trkpt lat="47.499170" lon="8.072504">
        <ele>398.947596</ele>
        <time>2021-11-14T21:00:47.175Z</time>
      </trkpt>
      <trkpt lat="47.499016" lon="8.069840">
        <ele>395.921209</ele>
        <time>2021-11-14T21:01:07.646Z</time>
      </trkpt>
      <trkpt lat="47.499026" lon="8.069468">
        <ele>395.108118</ele>
        <time>2021-11-14T21:01:10.077Z</time>
      </trkpt>
      <trkpt lat="47.499075" lon="8.068991">
        <ele>394.054377</ele>
        <time>2021-11-14T21:01:13.267Z</time>
      </trkpt>
      <trkpt lat="47.499075" lon="8.068991">
        <ele>394.054377</ele>
        <time>2021-11-14T21:01:13.279Z</time>
      </trkpt>
      <trkpt lat="47.499104" lon="8.068766">
        <ele>393.554115</ele>
        <time>2021-11-14T21:01:14.734Z</time>
      </trkpt>
      <trkpt lat="47.499148" lon="8.068524">
        <ele>393.006783</ele>
        <time>2021-11-14T21:01:16.398Z</time>
      </trkpt>
      <trkpt lat="47.499201" lon="8.068229">
        <ele>392.261400</ele>
        <time>2021-11-14T21:01:18.299Z</time>
      </trkpt>
      <trkpt lat="47.499519" lon="8.066520">
        <ele>387.596609</ele>
        <time>2021-11-14T21:01:29.795Z</time>
      </trkpt>
      <trkpt lat="47.499531" lon="8.066460">
        <ele>387.431943</ele>
        <time>2021-11-14T21:01:30.230Z</time>
      </trkpt>
      <trkpt lat="47.499591" lon="8.066154">
        <ele>386.593460</ele>
        <time>2021-11-14T21:01:32.411Z</time>
      </trkpt>
      <trkpt lat="47.499610" lon="8.066051">
        <ele>386.312489</ele>
        <time>2021-11-14T21:01:33.201Z</time>
      </trkpt>
      <trkpt lat="47.499668" lon="8.065730">
        <ele>385.624572</ele>
        <time>2021-11-14T21:01:35.616Z</time>
      </trkpt>
      <trkpt lat="47.499682" lon="8.065635">
        <ele>385.539039</ele>
        <time>2021-11-14T21:01:36.346Z</time>
      </trkpt>
      <trkpt lat="47.499770" lon="8.065082">
        <ele>385.039274</ele>
        <time>2021-11-14T21:01:40.737Z</time>
      </trkpt>
      <trkpt lat="47.499809" lon="8.064788">
        <ele>384.775715</ele>
        <time>2021-11-14T21:01:43.128Z</time>
      </trkpt>
      <trkpt lat="47.499832" lon="8.064625">
        <ele>384.629237</ele>
        <time>2021-11-14T21:01:44.470Z</time>
      </trkpt>
      <trkpt lat="47.499921" lon="8.063941">
        <ele>384.016492</ele>
        <time>2021-11-14T21:01:50.539Z</time>
      </trkpt>
      <trkpt lat="47.499972" lon="8.063575">
        <ele>383.687760</ele>
        <time>2021-11-14T21:01:53.706Z</time>
      </trkpt>
      <trkpt lat="47.500065" lon="8.063116">
        <ele>383.292898</ele>
        <time>2021-11-14T21:01:57.704Z</time>
      </trkpt>
      <trkpt lat="47.500111" lon="8.062899">
        <ele>383.141314</ele>
        <time>2021-11-14T21:01:59.593Z</time>
      </trkpt>
      <trkpt lat="47.500321" lon="8.061955">
        <ele>382.478908</ele>
        <time>2021-11-14T21:02:07.934Z</time>
      </trkpt>
      <trkpt lat="47.500357" lon="8.061762">
        <ele>382.345462</ele>
        <time>2021-11-14T21:02:09.578Z</time>
      </trkpt>
      <trkpt lat="47.500421" lon="8.061418">
        <ele>382.107652</ele>
        <time>2021-11-14T21:02:12.571Z</time>
      </trkpt>
      <trkpt lat="47.500438" lon="8.061324">
        <ele>382.042796</ele>
        <time>2021-11-14T21:02:13.326Z</time>
      </trkpt>
      <trkpt lat="47.500538" lon="8.060723">
        <ele>381.630262</ele>
        <time>2021-11-14T21:02:18.362Z</time>
      </trkpt>
      <trkpt lat="47.500573" lon="8.060533">
        <ele>381.585797</ele>
        <time>2021-11-14T21:02:20.000Z</time>
      </trkpt>
      <trkpt lat="47.500588" lon="8.060437">
        <ele>381.575553</ele>
        <time>2021-11-14T21:02:20.750Z</time>
      </trkpt>
      <trkpt lat="47.500604" lon="8.060344">
        <ele>381.565577</ele>
        <time>2021-11-14T21:02:21.493Z</time>
      </trkpt>
      <trkpt lat="47.500708" lon="8.059752">
        <ele>381.501987</ele>
        <time>2021-11-14T21:02:26.443Z</time>
      </trkpt>
      <trkpt lat="47.500919" lon="8.058927">
        <ele>381.410283</ele>
        <time>2021-11-14T21:02:34.838Z</time>
      </trkpt>
      <trkpt lat="47.501139" lon="8.058076">
        <ele>381.415795</ele>
        <time>2021-11-14T21:02:45.987Z</time>
      </trkpt>
      <trkpt lat="47.501265" lon="8.057592">
        <ele>381.930546</ele>
        <time>2021-11-14T21:02:53.113Z</time>
      </trkpt>
      <trkpt lat="47.501287" lon="8.057595">
        <ele>381.963000</ele>
        <time>2021-11-14T21:02:53.573Z</time>
      </trkpt>
      <trkpt lat="47.501352" lon="8.057560">
        <ele>382.064605</ele>
        <time>2021-11-14T21:02:54.933Z</time>
      </trkpt>
      <trkpt lat="47.501377" lon="8.057505">
        <ele>382.130391</ele>
        <time>2021-11-14T21:02:55.842Z</time>
      </trkpt>
      <trkpt lat="47.501386" lon="8.057452">
        <ele>382.184624</ele>
        <time>2021-11-14T21:02:56.824Z</time>
      </trkpt>
      <trkpt lat="47.501371" lon="8.057371">
        <ele>382.267974</ele>
        <time>2021-11-14T21:02:57.925Z</time>
      </trkpt>
      <trkpt lat="47.501356" lon="8.057344">
        <ele>382.302665</ele>
        <time>2021-11-14T21:02:58.659Z</time>
      </trkpt>
      <trkpt lat="47.501459" lon="8.056906">
        <ele>382.762917</ele>
        <time>2021-11-14T21:03:05.559Z</time>
      </trkpt>
      <trkpt lat="47.501717" lon="8.055892">
        <ele>383.838209</ele>
        <time>2021-11-14T21:03:21.816Z</time>
      </trkpt>
      <trkpt lat="47.501751" lon="8.055654">
        <ele>383.898273</ele>
        <time>2021-11-14T21:03:25.445Z</time>
      </trkpt>
      <trkpt lat="47.501784" lon="8.055340">
        <ele>383.704813</ele>
        <time>2021-11-14T21:03:29.291Z</time>
      </trkpt>
      <trkpt lat="47.501806" lon="8.054996">
        <ele>383.494453</ele>
        <time>2021-11-14T21:03:33.354Z</time>
      </trkpt>
      <trkpt lat="47.501851" lon="8.054393">
        <ele>383.125118</ele>
        <time>2021-11-14T21:03:38.652Z</time>
      </trkpt>
      <trkpt lat="47.501857" lon="8.054265">
        <ele>383.047006</ele>
        <time>2021-11-14T21:03:39.593Z</time>
      </trkpt>
      <trkpt lat="47.501923" lon="8.053252">
        <ele>382.427439</ele>
        <time>2021-11-14T21:03:47.250Z</time>
      </trkpt>
      <trkpt lat="47.502020" lon="8.051188">
        <ele>377.914502</ele>
        <time>2021-11-14T21:04:01.176Z</time>
      </trkpt>
      <trkpt lat="47.502094" lon="8.049547">
        <ele>374.479809</ele>
        <time>2021-11-14T21:04:12.207Z</time>
      </trkpt>
      <trkpt lat="47.502090" lon="8.048236">
        <ele>371.950456</ele>
        <time>2021-11-14T21:04:21.449Z</time>
      </trkpt>
      <trkpt lat="47.502044" lon="8.047705">
        <ele>371.011496</ele>
        <time>2021-11-14T21:04:25.385Z</time>
      </trkpt>
      <trkpt lat="47.502029" lon="8.047540">
        <ele>370.843600</ele>
        <time>2021-11-14T21:04:26.584Z</time>
      </trkpt>
      <trkpt lat="47.501759" lon="8.046002">
        <ele>369.241067</ele>
        <time>2021-11-14T21:04:38.892Z</time>
      </trkpt>
      <trkpt lat="47.501515" lon="8.044851">
        <ele>368.034849</ele>
        <time>2021-11-14T21:04:48.921Z</time>
      </trkpt>
      <trkpt lat="47.501358" lon="8.044092">
        <ele>367.254783</ele>
        <time>2021-11-14T21:04:55.474Z</time>
      </trkpt>
      <trkpt lat="47.501234" lon="8.043345">
        <ele>366.498853</ele>
        <time>2021-11-14T21:05:01.532Z</time>
      </trkpt>
      <trkpt lat="47.501123" lon="8.042252">
        <ele>365.186059</ele>
        <time>2021-11-14T21:05:09.745Z</time>
      </trkpt>
      <trkpt lat="47.501065" lon="8.041677">
        <ele>364.291296</ele>
        <time>2021-11-14T21:05:13.768Z</time>
      </trkpt>
      <trkpt lat="47.501009" lon="8.040934">
        <ele>363.140688</ele>
        <time>2021-11-14T21:05:19.088Z</time>
      </trkpt>
      <trkpt lat="47.501026" lon="8.040085">
        <ele>361.833461</ele>
        <time>2021-11-14T21:05:25.258Z</time>
      </trkpt>
      <trkpt lat="47.501026" lon="8.040085">
        <ele>361.833461</ele>
        <time>2021-11-14T21:05:25.268Z</time>
      </trkpt>
      <trkpt lat="47.501083" lon="8.039040">
        <ele>361.294607</ele>
        <time>2021-11-14T21:05:33.714Z</time>
      </trkpt>
      <trkpt lat="47.501120" lon="8.039033">
        <ele>361.270696</ele>
        <time>2021-11-14T21:05:34.087Z</time>
      </trkpt>
      <trkpt lat="47.501198" lon="8.038918">
        <ele>361.200123</ele>
        <time>2021-11-14T21:05:35.681Z</time>
      </trkpt>
      <trkpt lat="47.501143" lon="8.038725">
        <ele>361.109409</ele>
        <time>2021-11-14T21:05:37.570Z</time>
      </trkpt>
      <trkpt lat="47.501107" lon="8.038707">
        <ele>361.085051</ele>
        <time>2021-11-14T21:05:38.041Z</time>
      </trkpt>
      <trkpt lat="47.501117" lon="8.038538">
        <ele>361.011582</ele>
        <time>2021-11-14T21:05:39.408Z</time>
      </trkpt>
      <trkpt lat="47.501141" lon="8.038290">
        <ele>360.903084</ele>
        <time>2021-11-14T21:05:41.974Z</time>
      </trkpt>
      <trkpt lat="47.501181" lon="8.037704">
        <ele>360.648013</ele>
        <time>2021-11-14T21:05:48.032Z</time>
      </trkpt>
      <trkpt lat="47.501269" lon="8.036713">
        <ele>360.662032</ele>
        <time>2021-11-14T21:06:00.223Z</time>
      </trkpt>
      <trkpt lat="47.501358" lon="8.035895">
        <ele>360.764950</ele>
        <time>2021-11-14T21:06:09.926Z</time>
      </trkpt>
      <trkpt lat="47.501430" lon="8.035235">
        <ele>360.847994</ele>
        <time>2021-11-14T21:06:16.550Z</time>
      </trkpt>
      <trkpt lat="47.501641" lon="8.034168">
        <ele>360.351228</ele>
        <time>2021-11-14T21:06:26.047Z</time>
      </trkpt>
      <trkpt lat="47.501669" lon="8.033986">
        <ele>360.216063</ele>
        <time>2021-11-14T21:06:27.556Z</time>
      </trkpt>
      <trkpt lat="47.501698" lon="8.034000">
        <ele>360.183368</ele>
        <time>2021-11-14T21:06:27.886Z</time>
      </trkpt>
      <trkpt lat="47.501807" lon="8.033950">
        <ele>360.061052</ele>
        <time>2021-11-14T21:06:29.334Z</time>
      </trkpt>
      <trkpt lat="47.501827" lon="8.033911">
        <ele>360.025596</ele>
        <time>2021-11-14T21:06:29.702Z</time>
      </trkpt>
      <trkpt lat="47.501840" lon="8.033865">
        <ele>359.989489</ele>
        <time>2021-11-14T21:06:30.159Z</time>
      </trkpt>
      <trkpt lat="47.501821" lon="8.033715">
        <ele>359.878978</ele>
        <time>2021-11-14T21:06:31.371Z</time>
      </trkpt>
      <trkpt lat="47.501785" lon="8.033665">
        <ele>359.826064</ele>
        <time>2021-11-14T21:06:31.974Z</time>
      </trkpt>
      <trkpt lat="47.501831" lon="8.033540">
        <ele>359.722990</ele>
        <time>2021-11-14T21:06:33.116Z</time>
      </trkpt>
      <trkpt lat="47.501831" lon="8.033540">
        <ele>359.722990</ele>
        <time>2021-11-14T21:06:33.128Z</time>
      </trkpt>
      <trkpt lat="47.501831" lon="8.033540">
        <ele>359.722990</ele>
        <time>2021-11-14T21:06:33.199Z</time>
      </trkpt>
      <trkpt lat="47.501972" lon="8.033162">
        <ele>359.410319</ele>
        <time>2021-11-14T21:06:36.613Z</time>
      </trkpt>
      <trkpt lat="47.502050" lon="8.032952">
        <ele>359.236785</ele>
        <time>2021-11-14T21:06:38.530Z</time>
      </trkpt>
      <trkpt lat="47.502278" lon="8.032378">
        <ele>358.705328</ele>
        <time>2021-11-14T21:06:43.669Z</time>
      </trkpt>
      <trkpt lat="47.502589" lon="8.031477">
        <ele>357.801193</ele>
        <time>2021-11-14T21:06:51.550Z</time>
      </trkpt>
      <trkpt lat="47.503055" lon="8.030264">
        <ele>356.566896</ele>
        <time>2021-11-14T21:07:02.764Z</time>
      </trkpt>
      <trkpt lat="47.503408" lon="8.029412">
        <ele>356.028605</ele>
        <time>2021-11-14T21:07:11.130Z</time>
      </trkpt>
      <trkpt lat="47.503617" lon="8.028907">
        <ele>355.709646</ele>
        <time>2021-11-14T21:07:16.128Z</time>
      </trkpt>
      <trkpt lat="47.503672" lon="8.028775">
        <ele>355.626120</ele>
        <time>2021-11-14T21:07:17.470Z</time>
      </trkpt>
      <trkpt lat="47.504063" lon="8.027828">
        <ele>355.075542</ele>
        <time>2021-11-14T21:07:27.266Z</time>
      </trkpt>
      <trkpt lat="47.504221" lon="8.027444">
        <ele>354.925688</ele>
        <time>2021-11-14T21:07:31.385Z</time>
      </trkpt>
      <trkpt lat="47.504606" lon="8.026545">
        <ele>354.570929</ele>
        <time>2021-11-14T21:07:41.292Z</time>
      </trkpt>
      <trkpt lat="47.504614" lon="8.026525">
        <ele>354.563182</ele>
        <time>2021-11-14T21:07:41.454Z</time>
      </trkpt>
      <trkpt lat="47.504641" lon="8.026538">
        <ele>354.549174</ele>
        <time>2021-11-14T21:07:41.881Z</time>
      </trkpt>
      <trkpt lat="47.504663" lon="8.026539">
        <ele>354.538315</ele>
        <time>2021-11-14T21:07:42.200Z</time>
      </trkpt>
      <trkpt lat="47.504689" lon="8.026530">
        <ele>354.525141</ele>
        <time>2021-11-14T21:07:42.587Z</time>
      </trkpt>
      <trkpt lat="47.504716" lon="8.026506">
        <ele>354.509604</ele>
        <time>2021-11-14T21:07:42.996Z</time>
      </trkpt>
      <trkpt lat="47.504737" lon="8.026462">
        <ele>354.491648</ele>
        <time>2021-11-14T21:07:43.481Z</time>
      </trkpt>
      <trkpt lat="47.504744" lon="8.026435">
        <ele>354.482010</ele>
        <time>2021-11-14T21:07:43.735Z</time>
      </trkpt>
      <trkpt lat="47.504745" lon="8.026393">
        <ele>354.468003</ele>
        <time>2021-11-14T21:07:44.106Z</time>
      </trkpt>
      <trkpt lat="47.504733" lon="8.026338">
        <ele>354.448740</ele>
        <time>2021-11-14T21:07:44.610Z</time>
      </trkpt>
      <trkpt lat="47.504704" lon="8.026294">
        <ele>354.428252</ele>
        <time>2021-11-14T21:07:45.139Z</time>
      </trkpt>
      <trkpt lat="47.504725" lon="8.026244">
        <ele>354.408630</ele>
        <time>2021-11-14T21:07:45.689Z</time>
      </trkpt>
      <trkpt lat="47.504760" lon="8.026163">
        <ele>354.376583</ele>
        <time>2021-11-14T21:07:46.474Z</time>
      </trkpt>
      <trkpt lat="47.504823" lon="8.026024">
        <ele>354.320796</ele>
        <time>2021-11-14T21:07:47.979Z</time>
      </trkpt>
      <trkpt lat="47.505192" lon="8.025207">
        <ele>353.552495</ele>
        <time>2021-11-14T21:07:56.330Z</time>
      </trkpt>
      <trkpt lat="47.505559" lon="8.024486">
        <ele>352.763123</ele>
        <time>2021-11-14T21:08:03.594Z</time>
      </trkpt>
      <trkpt lat="47.505612" lon="8.024383">
        <ele>352.649909</ele>
        <time>2021-11-14T21:08:04.621Z</time>
      </trkpt>
      <trkpt lat="47.505697" lon="8.024216">
        <ele>352.467078</ele>
        <time>2021-11-14T21:08:06.192Z</time>
      </trkpt>
      <trkpt lat="47.505883" lon="8.023827">
        <ele>352.050359</ele>
        <time>2021-11-14T21:08:09.800Z</time>
      </trkpt>
      <trkpt lat="47.506199" lon="8.023103">
        <ele>350.748985</ele>
        <time>2021-11-14T21:08:16.172Z</time>
      </trkpt>
      <trkpt lat="47.506232" lon="8.023038">
        <ele>350.617040</ele>
        <time>2021-11-14T21:08:16.764Z</time>
      </trkpt>
      <trkpt lat="47.506258" lon="8.022985">
        <ele>350.510749</ele>
        <time>2021-11-14T21:08:17.239Z</time>
      </trkpt>
      <trkpt lat="47.506468" lon="8.022553">
        <ele>349.647092</ele>
        <time>2021-11-14T21:08:21.086Z</time>
      </trkpt>
      <trkpt lat="47.506535" lon="8.022414">
        <ele>349.370000</ele>
        <time>2021-11-14T21:08:22.289Z</time>
      </trkpt>
      <trkpt lat="47.506621" lon="8.022234">
        <ele>349.012236</ele>
        <time>2021-11-14T21:08:23.880Z</time>
      </trkpt>
      <trkpt lat="47.506655" lon="8.022123">
        <ele>348.814463</ele>
        <time>2021-11-14T21:08:24.743Z</time>
      </trkpt>
      <trkpt lat="47.506678" lon="8.022015">
        <ele>348.630708</ele>
        <time>2021-11-14T21:08:25.525Z</time>
      </trkpt>
      <trkpt lat="47.506735" lon="8.021861">
        <ele>348.345757</ele>
        <time>2021-11-14T21:08:26.766Z</time>
      </trkpt>
      <trkpt lat="47.506867" lon="8.021604">
        <ele>347.821862</ele>
        <time>2021-11-14T21:08:28.995Z</time>
      </trkpt>
      <trkpt lat="47.506910" lon="8.021529">
        <ele>347.662233</ele>
        <time>2021-11-14T21:08:29.666Z</time>
      </trkpt>
      <trkpt lat="47.506949" lon="8.021459">
        <ele>347.530463</ele>
        <time>2021-11-14T21:08:30.321Z</time>
      </trkpt>
      <trkpt lat="47.507007" lon="8.021362">
        <ele>347.352494</ele>
        <time>2021-11-14T21:08:31.222Z</time>
      </trkpt>
      <trkpt lat="47.507213" lon="8.021061">
        <ele>346.763828</ele>
        <time>2021-11-14T21:08:34.224Z</time>
      </trkpt>
      <trkpt lat="47.507466" lon="8.020697">
        <ele>346.046313</ele>
        <time>2021-11-14T21:08:37.942Z</time>
      </trkpt>
      <trkpt lat="47.507609" lon="8.020484">
        <ele>345.633747</ele>
        <time>2021-11-14T21:08:40.138Z</time>
      </trkpt>
      <trkpt lat="47.507666" lon="8.020400">
        <ele>345.470175</ele>
        <time>2021-11-14T21:08:41.027Z</time>
      </trkpt>
      <trkpt lat="47.507863" lon="8.020075">
        <ele>344.870278</ele>
        <time>2021-11-14T21:08:44.367Z</time>
      </trkpt>
      <trkpt lat="47.507951" lon="8.019911">
        <ele>344.582541</ele>
        <time>2021-11-14T21:08:46.032Z</time>
      </trkpt>
      <trkpt lat="47.508029" lon="8.019761">
        <ele>344.322483</ele>
        <time>2021-11-14T21:08:47.467Z</time>
      </trkpt>
      <trkpt lat="47.508075" lon="8.019669">
        <ele>344.165236</ele>
        <time>2021-11-14T21:08:48.396Z</time>
      </trkpt>
      <trkpt lat="47.508117" lon="8.019584">
        <ele>344.020556</ele>
        <time>2021-11-14T21:08:49.228Z</time>
      </trkpt>
      <trkpt lat="47.508273" lon="8.019268">
        <ele>343.913442</ele>
        <time>2021-11-14T21:08:52.432Z</time>
      </trkpt>
      <trkpt lat="47.508403" lon="8.018982">
        <ele>343.869216</ele>
        <time>2021-11-14T21:08:55.380Z</time>
      </trkpt>
      <trkpt lat="47.508436" lon="8.018909">
        <ele>343.857946</ele>
        <time>2021-11-14T21:08:56.126Z</time>
      </trkpt>
      <trkpt lat="47.508505" lon="8.018716">
        <ele>343.829931</ele>
        <time>2021-11-14T21:08:58.077Z</time>
      </trkpt>
      <trkpt lat="47.508517" lon="8.018677">
        <ele>343.824433</ele>
        <time>2021-11-14T21:08:58.489Z</time>
      </trkpt>
      <trkpt lat="47.508544" lon="8.018690">
        <ele>343.819041</ele>
        <time>2021-11-14T21:08:58.944Z</time>
      </trkpt>
      <trkpt lat="47.508639" lon="8.018617">
        <ele>343.798711</ele>
        <time>2021-11-14T21:09:00.391Z</time>
      </trkpt>
      <trkpt lat="47.508635" lon="8.018495">
        <ele>343.783041</ele>
        <time>2021-11-14T21:09:01.483Z</time>
      </trkpt>
      <trkpt lat="47.508617" lon="8.018463">
        <ele>343.777698</ele>
        <time>2021-11-14T21:09:01.920Z</time>
      </trkpt>
      <trkpt lat="47.508636" lon="8.018423">
        <ele>343.771425</ele>
        <time>2021-11-14T21:09:02.418Z</time>
      </trkpt>
      <trkpt lat="47.508699" lon="8.018304">
        <ele>343.752027</ele>
        <time>2021-11-14T21:09:04.083Z</time>
      </trkpt>
      <trkpt lat="47.508805" lon="8.018141">
        <ele>343.722999</ele>
        <time>2021-11-14T21:09:06.462Z</time>
      </trkpt>
      <trkpt lat="47.508896" lon="8.018035">
        <ele>343.701007</ele>
        <time>2021-11-14T21:09:08.340Z</time>
      </trkpt>
      <trkpt lat="47.508988" lon="8.017959">
        <ele>343.680997</ele>
        <time>2021-11-14T21:09:10.240Z</time>
      </trkpt>
      <trkpt lat="47.509105" lon="8.017861">
        <ele>343.655465</ele>
        <time>2021-11-14T21:09:12.443Z</time>
      </trkpt>
      <trkpt lat="47.509253" lon="8.017765">
        <ele>343.624775</ele>
        <time>2021-11-14T21:09:15.226Z</time>
      </trkpt>
      <trkpt lat="47.509437" lon="8.017668">
        <ele>343.706353</ele>
        <time>2021-11-14T21:09:18.646Z</time>
      </trkpt>
      <trkpt lat="47.509596" lon="8.017609">
        <ele>343.804863</ele>
        <time>2021-11-14T21:09:21.496Z</time>
      </trkpt>
      <trkpt lat="47.509728" lon="8.017576">
        <ele>343.885314</ele>
        <time>2021-11-14T21:09:23.921Z</time>
      </trkpt>
      <trkpt lat="47.509872" lon="8.017541">
        <ele>343.973012</ele>
        <time>2021-11-14T21:09:26.478Z</time>
      </trkpt>
      <trkpt lat="47.510117" lon="8.017458">
        <ele>344.124056</ele>
        <time>2021-11-14T21:09:31.016Z</time>
      </trkpt>
      <trkpt lat="47.510624" lon="8.017217">
        <ele>344.444068</ele>
        <time>2021-11-14T21:09:40.509Z</time>
      </trkpt>
      <trkpt lat="47.511079" lon="8.016999">
        <ele>344.689106</ele>
        <time>2021-11-14T21:09:48.530Z</time>
      </trkpt>
      <trkpt lat="47.511835" lon="8.016624">
        <ele>344.577502</ele>
        <time>2021-11-14T21:10:00.587Z</time>
      </trkpt>
      <trkpt lat="47.511937" lon="8.016578">
        <ele>344.562577</ele>
        <time>2021-11-14T21:10:02.259Z</time>
      </trkpt>
      <trkpt lat="47.512292" lon="8.016407">
        <ele>344.510321</ele>
        <time>2021-11-14T21:10:07.421Z</time>
      </trkpt>
      <trkpt lat="47.512572" lon="8.016270">
        <ele>344.469043</ele>
        <time>2021-11-14T21:10:11.325Z</time>
      </trkpt>
      <trkpt lat="47.512748" lon="8.016153">
        <ele>344.417282</ele>
        <time>2021-11-14T21:10:13.937Z</time>
      </trkpt>
      <trkpt lat="47.512943" lon="8.015998">
        <ele>344.154179</ele>
        <time>2021-11-14T21:10:16.795Z</time>
      </trkpt>
      <trkpt lat="47.513615" lon="8.015346">
        <ele>343.199083</ele>
        <time>2021-11-14T21:10:26.349Z</time>
      </trkpt>
      <trkpt lat="47.513872" lon="8.015092">
        <ele>342.831758</ele>
        <time>2021-11-14T21:10:29.859Z</time>
      </trkpt>
      <trkpt lat="47.513919" lon="8.015052">
        <ele>342.767314</ele>
        <time>2021-11-14T21:10:30.500Z</time>
      </trkpt>
      <trkpt lat="47.514036" lon="8.014936">
        <ele>342.599925</ele>
        <time>2021-11-14T21:10:32.125Z</time>
      </trkpt>
      <trkpt lat="47.514162" lon="8.014813">
        <ele>342.420515</ele>
        <time>2021-11-14T21:10:33.832Z</time>
      </trkpt>
      <trkpt lat="47.514271" lon="8.014718">
        <ele>342.269486</ele>
        <time>2021-11-14T21:10:35.282Z</time>
      </trkpt>
      <trkpt lat="47.514464" lon="8.014550">
        <ele>341.998522</ele>
        <time>2021-11-14T21:10:37.913Z</time>
      </trkpt>
      <trkpt lat="47.514628" lon="8.014407">
        <ele>341.768172</ele>
        <time>2021-11-14T21:10:40.121Z</time>
      </trkpt>
      <trkpt lat="47.514746" lon="8.014292">
        <ele>341.597196</ele>
        <time>2021-11-14T21:10:41.771Z</time>
      </trkpt>
      <trkpt lat="47.515054" lon="8.014017">
        <ele>341.161894</ele>
        <time>2021-11-14T21:10:45.999Z</time>
      </trkpt>
      <trkpt lat="47.515263" lon="8.013836">
        <ele>340.868851</ele>
        <time>2021-11-14T21:10:48.883Z</time>
      </trkpt>
      <trkpt lat="47.515468" lon="8.013643">
        <ele>340.574832</ele>
        <time>2021-11-14T21:10:51.782Z</time>
      </trkpt>
      <trkpt lat="47.515487" lon="8.013682">
        <ele>340.535525</ele>
        <time>2021-11-14T21:10:52.149Z</time>
      </trkpt>
      <trkpt lat="47.515592" lon="8.013719">
        <ele>340.404895</ele>
        <time>2021-11-14T21:10:53.481Z</time>
      </trkpt>
      <trkpt lat="47.515625" lon="8.013694">
        <ele>340.360031</ele>
        <time>2021-11-14T21:10:53.908Z</time>
      </trkpt>
      <trkpt lat="47.515640" lon="8.013674">
        <ele>340.335601</ele>
        <time>2021-11-14T21:10:54.167Z</time>
      </trkpt>
      <trkpt lat="47.515666" lon="8.013522">
        <ele>340.207431</ele>
        <time>2021-11-14T21:10:55.479Z</time>
      </trkpt>
      <trkpt lat="47.515654" lon="8.013483">
        <ele>340.172399</ele>
        <time>2021-11-14T21:10:55.858Z</time>
      </trkpt>
      <trkpt lat="47.515686" lon="8.013458">
        <ele>340.129282</ele>
        <time>2021-11-14T21:10:56.258Z</time>
      </trkpt>
      <trkpt lat="47.516968" lon="8.012240">
        <ele>339.015454</ele>
        <time>2021-11-14T21:11:16.025Z</time>
      </trkpt>
      <trkpt lat="47.517220" lon="8.011958">
        <ele>338.750207</ele>
        <time>2021-11-14T21:11:20.151Z</time>
      </trkpt>
      <trkpt lat="47.517559" lon="8.011519">
        <ele>338.052197</ele>
        <time>2021-11-14T21:11:25.679Z</time>
      </trkpt>
      <trkpt lat="47.517842" lon="8.011140">
        <ele>337.460785</ele>
        <time>2021-11-14T21:11:30.079Z</time>
      </trkpt>
      <trkpt lat="47.518005" lon="8.011373">
        <ele>337.109637</ele>
        <time>2021-11-14T21:11:32.607Z</time>
      </trkpt>
      <trkpt lat="47.518031" lon="8.011413">
        <ele>337.051526</ele>
        <time>2021-11-14T21:11:33.020Z</time>
      </trkpt>
      <trkpt lat="47.518672" lon="8.012356">
        <ele>335.676261</ele>
        <time>2021-11-14T21:11:42.883Z</time>
      </trkpt>
      <trkpt lat="47.518762" lon="8.012505">
        <ele>335.481030</ele>
        <time>2021-11-14T21:11:44.342Z</time>
      </trkpt>
      <trkpt lat="47.519066" lon="8.012986">
        <ele>334.837649</ele>
        <time>2021-11-14T21:11:49.246Z</time>
      </trkpt>
      <trkpt lat="47.519283" lon="8.013313">
        <ele>334.389917</ele>
        <time>2021-11-14T21:11:52.771Z</time>
      </trkpt>
      <trkpt lat="47.519407" lon="8.013567">
        <ele>334.083828</ele>
        <time>2021-11-14T21:11:55.273Z</time>
      </trkpt>
      <trkpt lat="47.519506" lon="8.013880">
        <ele>333.746281</ele>
        <time>2021-11-14T21:11:58.097Z</time>
      </trkpt>
      <trkpt lat="47.519542" lon="8.014115">
        <ele>333.510945</ele>
        <time>2021-11-14T21:12:00.167Z</time>
      </trkpt>
      <trkpt lat="47.519550" lon="8.014167">
        <ele>333.458859</ele>
        <time>2021-11-14T21:12:00.618Z</time>
      </trkpt>
      <trkpt lat="47.519560" lon="8.014397">
        <ele>333.479217</ele>
        <time>2021-11-14T21:12:02.656Z</time>
      </trkpt>
      <trkpt lat="47.519567" lon="8.014689">
        <ele>333.557579</ele>
        <time>2021-11-14T21:12:05.610Z</time>
      </trkpt>
      <trkpt lat="47.519570" lon="8.014933">
        <ele>333.623028</ele>
        <time>2021-11-14T21:12:08.251Z</time>
      </trkpt>
      <trkpt lat="47.519564" lon="8.015041">
        <ele>333.652091</ele>
        <time>2021-11-14T21:12:09.563Z</time>
      </trkpt>
      <trkpt lat="47.519666" lon="8.015011">
        <ele>333.693388</ele>
        <time>2021-11-14T21:12:11.404Z</time>
      </trkpt>
      <trkpt lat="47.520115" lon="8.014648">
        <ele>333.896542</ele>
        <time>2021-11-14T21:12:20.954Z</time>
      </trkpt>
      <trkpt lat="47.520539" lon="8.014558">
        <ele>334.066643</ele>
        <time>2021-11-14T21:12:28.951Z</time>
      </trkpt>
      <trkpt lat="47.520848" lon="8.014542">
        <ele>334.144437</ele>
        <time>2021-11-14T21:12:34.229Z</time>
      </trkpt>
      <trkpt lat="47.520953" lon="8.014530">
        <ele>334.147710</ele>
        <time>2021-11-14T21:12:35.689Z</time>
      </trkpt>
      <trkpt lat="47.521150" lon="8.014447">
        <ele>334.154076</ele>
        <time>2021-11-14T21:12:38.899Z</time>
      </trkpt>
      <trkpt lat="47.521292" lon="8.014319">
        <ele>334.159243</ele>
        <time>2021-11-14T21:12:41.100Z</time>
      </trkpt>
      <trkpt lat="47.521454" lon="8.014134">
        <ele>334.165601</ele>
        <time>2021-11-14T21:12:44.296Z</time>
      </trkpt>
      <trkpt lat="47.521508" lon="8.014076">
        <ele>334.167674</ele>
        <time>2021-11-14T21:12:45.237Z</time>
      </trkpt>
      <trkpt lat="47.521532" lon="8.014046">
        <ele>334.168650</ele>
        <time>2021-11-14T21:12:45.689Z</time>
      </trkpt>
      <trkpt lat="47.521611" lon="8.013949">
        <ele>334.171840</ele>
        <time>2021-11-14T21:12:46.951Z</time>
      </trkpt>
      <trkpt lat="47.521782" lon="8.013652">
        <ele>334.180032</ele>
        <time>2021-11-14T21:12:51.186Z</time>
      </trkpt>
      <trkpt lat="47.521857" lon="8.013314">
        <ele>334.187499</ele>
        <time>2021-11-14T21:12:54.838Z</time>
      </trkpt>
      <trkpt lat="47.521867" lon="8.013168">
        <ele>334.190579</ele>
        <time>2021-11-14T21:12:56.264Z</time>
      </trkpt>
      <trkpt lat="47.521884" lon="8.013019">
        <ele>334.193750</ele>
        <time>2021-11-14T21:12:58.005Z</time>
      </trkpt>
      <trkpt lat="47.521999" lon="8.011997">
        <ele>334.396518</ele>
        <time>2021-11-14T21:13:11.640Z</time>
      </trkpt>
      <trkpt lat="47.522135" lon="8.011541">
        <ele>334.506778</ele>
        <time>2021-11-14T21:13:18.685Z</time>
      </trkpt>
      <trkpt lat="47.522752" lon="8.010942">
        <ele>334.748427</ele>
        <time>2021-11-14T21:13:35.741Z</time>
      </trkpt>
      <trkpt lat="47.523475" lon="8.009886">
        <ele>335.310075</ele>
        <time>2021-11-14T21:13:59.806Z</time>
      </trkpt>
      <trkpt lat="47.523750" lon="8.009595">
        <ele>335.506613</ele>
        <time>2021-11-14T21:14:07.447Z</time>
      </trkpt>
      <trkpt lat="47.525125" lon="8.008474">
        <ele>335.546207</ele>
        <time>2021-11-14T21:14:40.529Z</time>
      </trkpt>
      <trkpt lat="47.525704" lon="8.008036">
        <ele>335.362696</ele>
        <time>2021-11-14T21:14:52.237Z</time>
      </trkpt>
      <trkpt lat="47.526398" lon="8.007517">
        <ele>334.274339</ele>
        <time>2021-11-14T21:15:05.214Z</time>
      </trkpt>
      <trkpt lat="47.527466" lon="8.006442">
        <ele>332.133228</ele>
        <time>2021-11-14T21:15:25.769Z</time>
      </trkpt>
      <trkpt lat="47.528852" lon="8.005150">
        <ele>329.163052</ele>
        <time>2021-11-14T21:15:51.861Z</time>
      </trkpt>
      <trkpt lat="47.529337" lon="8.004498">
        <ele>327.772185</ele>
        <time>2021-11-14T21:16:02.615Z</time>
      </trkpt>
      <trkpt lat="47.529391" lon="8.004422">
        <ele>327.612955</ele>
        <time>2021-11-14T21:16:03.802Z</time>
      </trkpt>
      <trkpt lat="47.530077" lon="8.003471">
        <ele>325.604499</ele>
        <time>2021-11-14T21:16:18.102Z</time>
      </trkpt>
      <trkpt lat="47.531127" lon="8.002157">
        <ele>322.563240</ele>
        <time>2021-11-14T21:16:39.163Z</time>
      </trkpt>
      <trkpt lat="47.531407" lon="8.001793">
        <ele>321.735361</ele>
        <time>2021-11-14T21:16:44.900Z</time>
      </trkpt>
      <trkpt lat="47.531789" lon="8.001140">
        <ele>321.025327</ele>
        <time>2021-11-14T21:16:54.145Z</time>
      </trkpt>
      <trkpt lat="47.532176" lon="8.000088">
        <ele>320.495862</ele>
        <time>2021-11-14T21:17:08.884Z</time>
      </trkpt>
      <trkpt lat="47.532283" lon="7.999633">
        <ele>320.282927</ele>
        <time>2021-11-14T21:17:15.814Z</time>
      </trkpt>
      <trkpt lat="47.532321" lon="7.999312">
        <ele>320.138897</ele>
        <time>2021-11-14T21:17:20.572Z</time>
      </trkpt>
      <trkpt lat="47.532314" lon="7.998991">
        <ele>320.128023</ele>
        <time>2021-11-14T21:17:25.017Z</time>
      </trkpt>
      <trkpt lat="47.532616" lon="7.998942">
        <ele>320.201103</ele>
        <time>2021-11-14T21:17:31.596Z</time>
      </trkpt>
      <trkpt lat="47.532745" lon="7.998891">
        <ele>320.233221</ele>
        <time>2021-11-14T21:17:34.632Z</time>
      </trkpt>
      <trkpt lat="47.532880" lon="7.998728">
        <ele>320.275118</ele>
        <time>2021-11-14T21:17:38.372Z</time>
      </trkpt>
      <trkpt lat="47.534115" lon="7.996823">
        <ele>320.186747</ele>
        <time>2021-11-14T21:18:15.907Z</time>
      </trkpt>
      <trkpt lat="47.535091" lon="7.993681">
        <ele>318.479458</ele>
        <time>2021-11-14T21:18:56.699Z</time>
      </trkpt>
      <trkpt lat="47.535530" lon="7.992828">
        <ele>318.034451</ele>
        <time>2021-11-14T21:19:08.857Z</time>
      </trkpt>
      <trkpt lat="47.535558" lon="7.992745">
        <ele>318.050737</ele>
        <time>2021-11-14T21:19:10.260Z</time>
      </trkpt>
      <trkpt lat="47.535601" lon="7.992617">
        <ele>318.075831</ele>
        <time>2021-11-14T21:19:12.474Z</time>
      </trkpt>
      <trkpt lat="47.535603" lon="7.992576">
        <ele>318.083046</ele>
        <time>2021-11-14T21:19:13.494Z</time>
      </trkpt>
      <trkpt lat="47.535497" lon="7.992318">
        <ele>318.136055</ele>
        <time>2021-11-14T21:19:17.195Z</time>
      </trkpt>
      <trkpt lat="47.535110" lon="7.991631">
        <ele>318.293097</ele>
        <time>2021-11-14T21:19:30.979Z</time>
      </trkpt>
      <trkpt lat="47.534860" lon="7.991148">
        <ele>318.399920</ele>
        <time>2021-11-14T21:19:40.447Z</time>
      </trkpt>
      <trkpt lat="47.534644" lon="7.990797">
        <ele>318.562031</ele>
        <time>2021-11-14T21:19:48.212Z</time>
      </trkpt>
      <trkpt lat="47.534606" lon="7.990590">
        <ele>318.686035</ele>
        <time>2021-11-14T21:19:51.558Z</time>
      </trkpt>
      <trkpt lat="47.534609" lon="7.990394">
        <ele>318.799366</ele>
        <time>2021-11-14T21:19:55.168Z</time>
      </trkpt>
      <trkpt lat="47.534723" lon="7.989575">
        <ele>319.282759</ele>
        <time>2021-11-14T21:20:09.754Z</time>
      </trkpt>
      <trkpt lat="47.534771" lon="7.988562">
        <ele>319.869779</ele>
        <time>2021-11-14T21:20:26.534Z</time>
      </trkpt>
      <trkpt lat="47.534795" lon="7.988078">
        <ele>319.737617</ele>
        <time>2021-11-14T21:20:32.807Z</time>
      </trkpt>
      <trkpt lat="47.534985" lon="7.988144">
        <ele>319.477333</ele>
        <time>2021-11-14T21:20:35.043Z</time>
      </trkpt>
      <trkpt lat="47.535196" lon="7.988134">
        <ele>319.195772</ele>
        <time>2021-11-14T21:20:37.778Z</time>
      </trkpt>
      <trkpt lat="47.535393" lon="7.988043">
        <ele>318.920547</ele>
        <time>2021-11-14T21:20:40.205Z</time>
      </trkpt>
      <trkpt lat="47.535735" lon="7.987639">
        <ele>318.337114</ele>
        <time>2021-11-14T21:20:45.202Z</time>
      </trkpt>
      <trkpt lat="47.535862" lon="7.987408">
        <ele>318.068869</ele>
        <time>2021-11-14T21:20:47.340Z</time>
      </trkpt>
      <trkpt lat="47.535935" lon="7.987272">
        <ele>317.912422</ele>
        <time>2021-11-14T21:20:48.651Z</time>
      </trkpt>
      <trkpt lat="47.536140" lon="7.986963">
        <ele>317.551937</ele>
        <time>2021-11-14T21:20:51.678Z</time>
      </trkpt>
      <trkpt lat="47.536465" lon="7.986660">
        <ele>317.263637</ele>
        <time>2021-11-14T21:20:55.820Z</time>
      </trkpt>
      <trkpt lat="47.536685" lon="7.986543">
        <ele>317.088150</ele>
        <time>2021-11-14T21:20:58.709Z</time>
      </trkpt>
      <trkpt lat="47.536796" lon="7.986519">
        <ele>317.003934</ele>
        <time>2021-11-14T21:20:59.955Z</time>
      </trkpt>
      <trkpt lat="47.537167" lon="7.986470">
        <ele>316.724302</ele>
        <time>2021-11-14T21:21:04.997Z</time>
      </trkpt>
      <trkpt lat="47.537409" lon="7.986449">
        <ele>316.542310</ele>
        <time>2021-11-14T21:21:09.050Z</time>
      </trkpt>
      <trkpt lat="47.537821" lon="7.986433">
        <ele>316.247804</ele>
        <time>2021-11-14T21:21:15.537Z</time>
      </trkpt>
      <trkpt lat="47.537815" lon="7.986191">
        <ele>316.392535</ele>
        <time>2021-11-14T21:21:18.278Z</time>
      </trkpt>
      <trkpt lat="47.537812" lon="7.986127">
        <ele>316.430877</ele>
        <time>2021-11-14T21:21:19.641Z</time>
      </trkpt>
      <trkpt lat="47.537884" lon="7.985939">
        <ele>316.560057</ele>
        <time>2021-11-14T21:21:21.585Z</time>
      </trkpt>
      <trkpt lat="47.538208" lon="7.985592">
        <ele>316.914007</ele>
        <time>2021-11-14T21:21:29.241Z</time>
      </trkpt>
      <trkpt lat="47.538891" lon="7.984830">
        <ele>317.670972</ele>
        <time>2021-11-14T21:21:46.502Z</time>
      </trkpt>
      <trkpt lat="47.538988" lon="7.984674">
        <ele>317.797725</ele>
        <time>2021-11-14T21:21:49.853Z</time>
      </trkpt>
      <trkpt lat="47.539087" lon="7.984241">
        <ele>317.517582</ele>
        <time>2021-11-14T21:21:54.646Z</time>
      </trkpt>
      <trkpt lat="47.539141" lon="7.984006">
        <ele>317.322299</ele>
        <time>2021-11-14T21:21:57.133Z</time>
      </trkpt>
      <trkpt lat="47.539165" lon="7.983910">
        <ele>317.241766</ele>
        <time>2021-11-14T21:21:57.910Z</time>
      </trkpt>
      <trkpt lat="47.539266" lon="7.983513">
        <ele>316.908017</ele>
        <time>2021-11-14T21:22:01.340Z</time>
      </trkpt>
      <trkpt lat="47.539359" lon="7.983508">
        <ele>316.799574</ele>
        <time>2021-11-14T21:22:02.779Z</time>
      </trkpt>
      <trkpt lat="47.539746" lon="7.983424">
        <ele>316.343791</ele>
        <time>2021-11-14T21:22:09.083Z</time>
      </trkpt>
      <trkpt lat="47.540009" lon="7.983581">
        <ele>316.013369</ele>
        <time>2021-11-14T21:22:13.645Z</time>
      </trkpt>
      <trkpt lat="47.540197" lon="7.983795">
        <ele>315.737084</ele>
        <time>2021-11-14T21:22:17.325Z</time>
      </trkpt>
      <trkpt lat="47.540570" lon="7.984220">
        <ele>314.531011</ele>
        <time>2021-11-14T21:22:24.488Z</time>
      </trkpt>
      <trkpt lat="47.540609" lon="7.984254">
        <ele>314.414917</ele>
        <time>2021-11-14T21:22:25.121Z</time>
      </trkpt>
      <trkpt lat="47.540750" lon="7.984343">
        <ele>314.021716</ele>
        <time>2021-11-14T21:22:27.353Z</time>
      </trkpt>
      <trkpt lat="47.541183" lon="7.984395">
        <ele>312.907224</ele>
        <time>2021-11-14T21:22:33.816Z</time>
      </trkpt>
      <trkpt lat="47.541734" lon="7.984406">
        <ele>311.493522</ele>
        <time>2021-11-14T21:22:42.063Z</time>
      </trkpt>
      <trkpt lat="47.542126" lon="7.984398">
        <ele>310.800725</ele>
        <time>2021-11-14T21:22:48.128Z</time>
      </trkpt>
      <trkpt lat="47.542208" lon="7.984399">
        <ele>310.694200</ele>
        <time>2021-11-14T21:22:49.021Z</time>
      </trkpt>
      <trkpt lat="47.542145" lon="7.983983">
        <ele>310.320340</ele>
        <time>2021-11-14T21:22:52.307Z</time>
      </trkpt>
      <trkpt lat="47.542068" lon="7.983338">
        <ele>309.745957</ele>
        <time>2021-11-14T21:22:57.386Z</time>
      </trkpt>
      <trkpt lat="47.542087" lon="7.982565">
        <ele>309.067657</ele>
        <time>2021-11-14T21:23:03.699Z</time>
      </trkpt>
      <trkpt lat="47.542122" lon="7.980765">
        <ele>309.332786</ele>
        <time>2021-11-14T21:23:22.501Z</time>
      </trkpt>
      <trkpt lat="47.542138" lon="7.980233">
        <ele>309.529974</ele>
        <time>2021-11-14T21:23:29.286Z</time>
      </trkpt>
      <trkpt lat="47.542153" lon="7.979253">
        <ele>310.120968</ele>
        <time>2021-11-14T21:23:42.761Z</time>
      </trkpt>
      <trkpt lat="47.542119" lon="7.977479">
        <ele>312.015623</ele>
        <time>2021-11-14T21:24:08.454Z</time>
      </trkpt>
      <trkpt lat="47.542030" lon="7.976464">
        <ele>313.008230</ele>
        <time>2021-11-14T21:24:23.391Z</time>
      </trkpt>
      <trkpt lat="47.541613" lon="7.974143">
        <ele>314.867727</ele>
        <time>2021-11-14T21:24:55.418Z</time>
      </trkpt>
      <trkpt lat="47.541444" lon="7.973570">
        <ele>314.822196</ele>
        <time>2021-11-14T21:25:02.513Z</time>
      </trkpt>
      <trkpt lat="47.541111" lon="7.971844">
        <ele>314.691485</ele>
        <time>2021-11-14T21:25:18.798Z</time>
      </trkpt>
      <trkpt lat="47.541050" lon="7.971427">
        <ele>314.370905</ele>
        <time>2021-11-14T21:25:22.262Z</time>
      </trkpt>
      <trkpt lat="47.541007" lon="7.971034">
        <ele>314.039218</ele>
        <time>2021-11-14T21:25:25.417Z</time>
      </trkpt>
      <trkpt lat="47.540951" lon="7.969978">
        <ele>313.156736</ele>
        <time>2021-11-14T21:25:33.722Z</time>
      </trkpt>
      <trkpt lat="47.540930" lon="7.969589">
        <ele>312.831619</ele>
        <time>2021-11-14T21:25:36.789Z</time>
      </trkpt>
      <trkpt lat="47.540938" lon="7.969459">
        <ele>312.722865</ele>
        <time>2021-11-14T21:25:37.763Z</time>
      </trkpt>
      <trkpt lat="47.540988" lon="7.968696">
        <ele>311.956252</ele>
        <time>2021-11-14T21:25:43.867Z</time>
      </trkpt>
      <trkpt lat="47.541122" lon="7.967754">
        <ele>310.887088</ele>
        <time>2021-11-14T21:25:51.849Z</time>
      </trkpt>
      <trkpt lat="47.541502" lon="7.965586">
        <ele>308.015761</ele>
        <time>2021-11-14T21:26:08.118Z</time>
      </trkpt>
      <trkpt lat="47.541593" lon="7.965571">
        <ele>307.813042</ele>
        <time>2021-11-14T21:26:09.089Z</time>
      </trkpt>
      <trkpt lat="47.541714" lon="7.965522">
        <ele>307.535317</ele>
        <time>2021-11-14T21:26:10.448Z</time>
      </trkpt>
      <trkpt lat="47.542210" lon="7.965313">
        <ele>306.393606</ele>
        <time>2021-11-14T21:26:16.092Z</time>
      </trkpt>
      <trkpt lat="47.542271" lon="7.965269">
        <ele>306.243392</ele>
        <time>2021-11-14T21:26:17.143Z</time>
      </trkpt>
      <trkpt lat="47.542253" lon="7.965169">
        <ele>306.088714</ele>
        <time>2021-11-14T21:26:18.254Z</time>
      </trkpt>
      <trkpt lat="47.542511" lon="7.963476">
        <ele>303.954845</ele>
        <time>2021-11-14T21:26:36.417Z</time>
      </trkpt>
      <trkpt lat="47.542516" lon="7.962915">
        <ele>303.306158</ele>
        <time>2021-11-14T21:26:42.865Z</time>
      </trkpt>
      <trkpt lat="47.542515" lon="7.962778">
        <ele>303.147749</ele>
        <time>2021-11-14T21:26:44.440Z</time>
      </trkpt>
      <trkpt lat="47.542513" lon="7.962471">
        <ele>302.792778</ele>
        <time>2021-11-14T21:26:47.948Z</time>
      </trkpt>
      <trkpt lat="47.542619" lon="7.961728">
        <ele>302.019770</ele>
        <time>2021-11-14T21:26:56.706Z</time>
      </trkpt>
      <trkpt lat="47.542689" lon="7.961423">
        <ele>301.720888</ele>
        <time>2021-11-14T21:27:00.254Z</time>
      </trkpt>
      <trkpt lat="47.542731" lon="7.961265">
        <ele>301.563342</ele>
        <time>2021-11-14T21:27:02.126Z</time>
      </trkpt>
      <trkpt lat="47.542800" lon="7.960973">
        <ele>301.276310</ele>
        <time>2021-11-14T21:27:05.524Z</time>
      </trkpt>
      <trkpt lat="47.542861" lon="7.960776">
        <ele>301.075226</ele>
        <time>2021-11-14T21:27:07.884Z</time>
      </trkpt>
      <trkpt lat="47.542960" lon="7.960501">
        <ele>300.786071</ele>
        <time>2021-11-14T21:27:11.258Z</time>
      </trkpt>
      <trkpt lat="47.543357" lon="7.959668">
        <ele>299.963211</ele>
        <time>2021-11-14T21:27:22.748Z</time>
      </trkpt>
      <trkpt lat="47.543374" lon="7.959437">
        <ele>299.945421</ele>
        <time>2021-11-14T21:27:25.425Z</time>
      </trkpt>
      <trkpt lat="47.543322" lon="7.959242">
        <ele>299.929369</ele>
        <time>2021-11-14T21:27:27.991Z</time>
      </trkpt>
      <trkpt lat="47.543244" lon="7.959135">
        <ele>299.917313</ele>
        <time>2021-11-14T21:27:30.007Z</time>
      </trkpt>
      <trkpt lat="47.543178" lon="7.959043">
        <ele>299.907034</ele>
        <time>2021-11-14T21:27:31.681Z</time>
      </trkpt>
      <trkpt lat="47.542693" lon="7.958608">
        <ele>299.842731</ele>
        <time>2021-11-14T21:27:43.973Z</time>
      </trkpt>
      <trkpt lat="47.542441" lon="7.958428">
        <ele>299.811001</ele>
        <time>2021-11-14T21:27:49.734Z</time>
      </trkpt>
      <trkpt lat="47.542259" lon="7.958287">
        <ele>299.787706</ele>
        <time>2021-11-14T21:27:54.459Z</time>
      </trkpt>
      <trkpt lat="47.541830" lon="7.958033">
        <ele>299.847800</ele>
        <time>2021-11-14T21:28:04.152Z</time>
      </trkpt>
      <trkpt lat="47.541700" lon="7.957963">
        <ele>299.882554</ele>
        <time>2021-11-14T21:28:07.517Z</time>
      </trkpt>
      <trkpt lat="47.541539" lon="7.957892">
        <ele>299.924760</ele>
        <time>2021-11-14T21:28:10.992Z</time>
      </trkpt>
      <trkpt lat="47.541305" lon="7.957787">
        <ele>299.986192</ele>
        <time>2021-11-14T21:28:16.598Z</time>
      </trkpt>
      <trkpt lat="47.541355" lon="7.957559">
        <ele>300.026853</ele>
        <time>2021-11-14T21:28:18.887Z</time>
      </trkpt>
      <trkpt lat="47.541450" lon="7.956897">
        <ele>300.141644</ele>
        <time>2021-11-14T21:28:26.581Z</time>
      </trkpt>
      <trkpt lat="47.541464" lon="7.956698">
        <ele>300.175579</ele>
        <time>2021-11-14T21:28:28.561Z</time>
      </trkpt>
      <trkpt lat="47.541533" lon="7.955526">
        <ele>300.221035</ele>
        <time>2021-11-14T21:28:39.877Z</time>
      </trkpt>
      <trkpt lat="47.541554" lon="7.955311">
        <ele>300.220751</ele>
        <time>2021-11-14T21:28:41.915Z</time>
      </trkpt>
      <trkpt lat="47.541735" lon="7.953892">
        <ele>300.218867</ele>
        <time>2021-11-14T21:28:56.123Z</time>
      </trkpt>
      <trkpt lat="47.541773" lon="7.953695">
        <ele>300.237464</ele>
        <time>2021-11-14T21:28:58.371Z</time>
      </trkpt>
      <trkpt lat="47.541791" lon="7.953601">
        <ele>300.255178</ele>
        <time>2021-11-14T21:28:59.406Z</time>
      </trkpt>
      <trkpt lat="47.541991" lon="7.952667">
        <ele>300.432821</ele>
        <time>2021-11-14T21:29:10.262Z</time>
      </trkpt>
      <trkpt lat="47.542169" lon="7.951815">
        <ele>300.594511</ele>
        <time>2021-11-14T21:29:19.999Z</time>
      </trkpt>
      <trkpt lat="47.542192" lon="7.951713">
        <ele>300.614007</ele>
        <time>2021-11-14T21:29:21.262Z</time>
      </trkpt>
      <trkpt lat="47.542357" lon="7.951037">
        <ele>300.748888</ele>
        <time>2021-11-14T21:29:28.726Z</time>
      </trkpt>
      <trkpt lat="47.542444" lon="7.950687">
        <ele>300.823757</ele>
        <time>2021-11-14T21:29:32.557Z</time>
      </trkpt>
      <trkpt lat="47.542546" lon="7.950274">
        <ele>300.912034</ele>
        <time>2021-11-14T21:29:36.973Z</time>
      </trkpt>
      <trkpt lat="47.542554" lon="7.950231">
        <ele>300.920988</ele>
        <time>2021-11-14T21:29:37.444Z</time>
      </trkpt>
      <trkpt lat="47.542560" lon="7.950202">
        <ele>300.927076</ele>
        <time>2021-11-14T21:29:37.766Z</time>
      </trkpt>
      <trkpt lat="47.542609" lon="7.949914">
        <ele>300.986695</ele>
        <time>2021-11-14T21:29:40.722Z</time>
      </trkpt>
      <trkpt lat="47.542719" lon="7.949175">
        <ele>301.138601</ele>
        <time>2021-11-14T21:29:48.673Z</time>
      </trkpt>
      <trkpt lat="47.542826" lon="7.948298">
        <ele>301.634113</ele>
        <time>2021-11-14T21:29:59.568Z</time>
      </trkpt>
      <trkpt lat="47.542838" lon="7.948225">
        <ele>301.708249</ele>
        <time>2021-11-14T21:30:00.395Z</time>
      </trkpt>
      <trkpt lat="47.542838" lon="7.948225">
        <ele>301.708249</ele>
        <time>2021-11-14T21:30:00.417Z</time>
      </trkpt>
      <trkpt lat="47.542875" lon="7.948001">
        <ele>301.935795</ele>
        <time>2021-11-14T21:30:03.215Z</time>
      </trkpt>
      <trkpt lat="47.542928" lon="7.947798">
        <ele>302.150559</ele>
        <time>2021-11-14T21:30:06.138Z</time>
      </trkpt>
      <trkpt lat="47.542957" lon="7.947651">
        <ele>302.301675</ele>
        <time>2021-11-14T21:30:07.905Z</time>
      </trkpt>
      <trkpt lat="47.543050" lon="7.947411">
        <ele>302.574731</ele>
        <time>2021-11-14T21:30:12.210Z</time>
      </trkpt>
      <trkpt lat="47.543087" lon="7.947317">
        <ele>302.682099</ele>
        <time>2021-11-14T21:30:13.489Z</time>
      </trkpt>
      <trkpt lat="47.543092" lon="7.947257">
        <ele>302.741752</ele>
        <time>2021-11-14T21:30:14.278Z</time>
      </trkpt>
      <trkpt lat="47.543097" lon="7.947186">
        <ele>302.812189</ele>
        <time>2021-11-14T21:30:15.193Z</time>
      </trkpt>
      <trkpt lat="47.543086" lon="7.947052">
        <ele>302.945383</ele>
        <time>2021-11-14T21:30:16.973Z</time>
      </trkpt>
      <trkpt lat="47.543056" lon="7.946935">
        <ele>303.068877</ele>
        <time>2021-11-14T21:30:19.324Z</time>
      </trkpt>
      <trkpt lat="47.543045" lon="7.946881">
        <ele>303.124532</ele>
        <time>2021-11-14T21:30:20.437Z</time>
      </trkpt>
      <trkpt lat="47.542982" lon="7.946547">
        <ele>303.466720</ele>
        <time>2021-11-14T21:30:25.053Z</time>
      </trkpt>
      <trkpt lat="47.542974" lon="7.946495">
        <ele>303.519346</ele>
        <time>2021-11-14T21:30:26.249Z</time>
      </trkpt>
      <trkpt lat="47.542960" lon="7.946400">
        <ele>303.615292</ele>
        <time>2021-11-14T21:30:28.086Z</time>
      </trkpt>
      <trkpt lat="47.542916" lon="7.945730">
        <ele>304.312204</ele>
        <time>2021-11-14T21:30:38.662Z</time>
      </trkpt>
      <trkpt lat="47.542913" lon="7.945267">
        <ele>304.805171</ele>
        <time>2021-11-14T21:30:46.148Z</time>
      </trkpt>
      <trkpt lat="47.543007" lon="7.943867">
        <ele>306.303071</ele>
        <time>2021-11-14T21:31:06.888Z</time>
      </trkpt>
      <trkpt lat="47.543161" lon="7.942213">
        <ele>306.336358</ele>
        <time>2021-11-14T21:31:24.493Z</time>
      </trkpt>
      <trkpt lat="47.543435" lon="7.940670">
        <ele>305.702589</ele>
        <time>2021-11-14T21:31:37.595Z</time>
      </trkpt>
      <trkpt lat="47.543435" lon="7.940669">
        <ele>305.701497</ele>
        <time>2021-11-14T21:31:37.605Z</time>
      </trkpt>
      <trkpt lat="47.543826" lon="7.939433">
        <ele>304.210940</ele>
        <time>2021-11-14T21:31:48.090Z</time>
      </trkpt>
      <trkpt lat="47.544472" lon="7.937932">
        <ele>302.212124</ele>
        <time>2021-11-14T21:32:01.529Z</time>
      </trkpt>
      <trkpt lat="47.544705" lon="7.937395">
        <ele>301.465421</ele>
        <time>2021-11-14T21:32:06.403Z</time>
      </trkpt>
      <trkpt lat="47.544903" lon="7.936917">
        <ele>300.809424</ele>
        <time>2021-11-14T21:32:10.663Z</time>
      </trkpt>
      <trkpt lat="47.545074" lon="7.936484">
        <ele>300.222633</ele>
        <time>2021-11-14T21:32:14.494Z</time>
      </trkpt>
      <trkpt lat="47.545457" lon="7.935110">
        <ele>299.073404</ele>
        <time>2021-11-14T21:32:25.831Z</time>
      </trkpt>
      <trkpt lat="47.545674" lon="7.933625">
        <ele>298.146452</ele>
        <time>2021-11-14T21:32:38.971Z</time>
      </trkpt>
      <trkpt lat="47.545675" lon="7.933609">
        <ele>298.158523</ele>
        <time>2021-11-14T21:32:39.083Z</time>
      </trkpt>
      <trkpt lat="47.545702" lon="7.933290">
        <ele>298.400052</ele>
        <time>2021-11-14T21:32:42.644Z</time>
      </trkpt>
      <trkpt lat="47.545724" lon="7.932758">
        <ele>298.800472</ele>
        <time>2021-11-14T21:32:48.911Z</time>
      </trkpt>
      <trkpt lat="47.545721" lon="7.931992">
        <ele>299.375948</ele>
        <time>2021-11-14T21:32:58.819Z</time>
      </trkpt>
      <trkpt lat="47.545696" lon="7.931497">
        <ele>299.748861</ele>
        <time>2021-11-14T21:33:06.137Z</time>
      </trkpt>
      <trkpt lat="47.545661" lon="7.930955">
        <ele>300.186202</ele>
        <time>2021-11-14T21:33:14.851Z</time>
      </trkpt>
      <trkpt lat="47.545563" lon="7.929641">
        <ele>301.563814</ele>
        <time>2021-11-14T21:33:37.191Z</time>
      </trkpt>
      <trkpt lat="47.545475" lon="7.928419">
        <ele>302.844452</ele>
        <time>2021-11-14T21:33:53.493Z</time>
      </trkpt>
      <trkpt lat="47.545421" lon="7.927686">
        <ele>301.864345</ele>
        <time>2021-11-14T21:33:59.597Z</time>
      </trkpt>
      <trkpt lat="47.545406" lon="7.927306">
        <ele>301.337840</ele>
        <time>2021-11-14T21:34:02.501Z</time>
      </trkpt>
      <trkpt lat="47.545407" lon="7.927001">
        <ele>300.915966</ele>
        <time>2021-11-14T21:34:04.787Z</time>
      </trkpt>
      <trkpt lat="47.545409" lon="7.926773">
        <ele>300.600575</ele>
        <time>2021-11-14T21:34:06.417Z</time>
      </trkpt>
      <trkpt lat="47.545417" lon="7.925848">
        <ele>299.321031</ele>
        <time>2021-11-14T21:34:12.752Z</time>
      </trkpt>
      <trkpt lat="47.545446" lon="7.925350">
        <ele>298.189268</ele>
        <time>2021-11-14T21:34:16.043Z</time>
      </trkpt>
      <trkpt lat="47.545466" lon="7.924880">
        <ele>297.012730</ele>
        <time>2021-11-14T21:34:19.097Z</time>
      </trkpt>
      <trkpt lat="47.545481" lon="7.924396">
        <ele>295.802272</ele>
        <time>2021-11-14T21:34:22.180Z</time>
      </trkpt>
      <trkpt lat="47.545521" lon="7.923709">
        <ele>294.079559</ele>
        <time>2021-11-14T21:34:26.705Z</time>
      </trkpt>
      <trkpt lat="47.545536" lon="7.923407">
        <ele>293.323029</ele>
        <time>2021-11-14T21:34:28.853Z</time>
      </trkpt>
      <trkpt lat="47.545553" lon="7.923142">
        <ele>292.657994</ele>
        <time>2021-11-14T21:34:30.684Z</time>
      </trkpt>
      <trkpt lat="47.545587" lon="7.922895">
        <ele>292.343851</ele>
        <time>2021-11-14T21:34:32.618Z</time>
      </trkpt>
      <trkpt lat="47.545641" lon="7.922610">
        <ele>292.080139</ele>
        <time>2021-11-14T21:34:34.764Z</time>
      </trkpt>
      <trkpt lat="47.545690" lon="7.922369">
        <ele>291.855911</ele>
        <time>2021-11-14T21:34:36.770Z</time>
      </trkpt>
      <trkpt lat="47.545699" lon="7.922325">
        <ele>291.814952</ele>
        <time>2021-11-14T21:34:37.064Z</time>
      </trkpt>
      <trkpt lat="47.545714" lon="7.922249">
        <ele>291.744411</ele>
        <time>2021-11-14T21:34:37.654Z</time>
      </trkpt>
      <trkpt lat="47.545778" lon="7.921947">
        <ele>291.462420</ele>
        <time>2021-11-14T21:34:40.357Z</time>
      </trkpt>
      <trkpt lat="47.545810" lon="7.921755">
        <ele>291.286236</ele>
        <time>2021-11-14T21:34:41.838Z</time>
      </trkpt>
      <trkpt lat="47.545881" lon="7.921096">
        <ele>290.691722</ele>
        <time>2021-11-14T21:34:47.299Z</time>
      </trkpt>
      <trkpt lat="47.545913" lon="7.920765">
        <ele>290.393836</ele>
        <time>2021-11-14T21:34:50.192Z</time>
      </trkpt>
      <trkpt lat="47.545973" lon="7.920313">
        <ele>290.107727</ele>
        <time>2021-11-14T21:34:54.663Z</time>
      </trkpt>
      <trkpt lat="47.546128" lon="7.919617">
        <ele>289.957316</ele>
        <time>2021-11-14T21:35:01.903Z</time>
      </trkpt>
      <trkpt lat="47.546262" lon="7.919081">
        <ele>289.840012</ele>
        <time>2021-11-14T21:35:07.952Z</time>
      </trkpt>
      <trkpt lat="47.546821" lon="7.916867">
        <ele>289.167002</ele>
        <time>2021-11-14T21:35:28.620Z</time>
      </trkpt>
      <trkpt lat="47.547032" lon="7.916218">
        <ele>288.904936</ele>
        <time>2021-11-14T21:35:34.927Z</time>
      </trkpt>
      <trkpt lat="47.547091" lon="7.916039">
        <ele>288.832466</ele>
        <time>2021-11-14T21:35:36.701Z</time>
      </trkpt>
      <trkpt lat="47.547113" lon="7.915971">
        <ele>288.805033</ele>
        <time>2021-11-14T21:35:37.291Z</time>
      </trkpt>
      <trkpt lat="47.547423" lon="7.915080">
        <ele>288.708093</ele>
        <time>2021-11-14T21:35:46.778Z</time>
      </trkpt>
      <trkpt lat="47.547994" lon="7.913433">
        <ele>288.992325</ele>
        <time>2021-11-14T21:36:06.483Z</time>
      </trkpt>
      <trkpt lat="47.548027" lon="7.913334">
        <ele>289.009274</ele>
        <time>2021-11-14T21:36:07.842Z</time>
      </trkpt>
      <trkpt lat="47.548412" lon="7.912168">
        <ele>289.827851</ele>
        <time>2021-11-14T21:36:24.245Z</time>
      </trkpt>
      <trkpt lat="47.549012" lon="7.910340">
        <ele>291.367689</ele>
        <time>2021-11-14T21:36:51.205Z</time>
      </trkpt>
      <trkpt lat="47.549102" lon="7.910058">
        <ele>291.651832</ele>
        <time>2021-11-14T21:36:55.383Z</time>
      </trkpt>
      <trkpt lat="47.549195" lon="7.909756">
        <ele>291.954203</ele>
        <time>2021-11-14T21:36:59.630Z</time>
      </trkpt>
      <trkpt lat="47.549244" lon="7.909593">
        <ele>292.116741</ele>
        <time>2021-11-14T21:37:02.013Z</time>
      </trkpt>
      <trkpt lat="47.549320" lon="7.909342">
        <ele>292.367328</ele>
        <time>2021-11-14T21:37:05.468Z</time>
      </trkpt>
      <trkpt lat="47.549520" lon="7.908678">
        <ele>293.029657</ele>
        <time>2021-11-14T21:37:14.961Z</time>
      </trkpt>
      <trkpt lat="47.549539" lon="7.908625">
        <ele>293.084321</ele>
        <time>2021-11-14T21:37:15.723Z</time>
      </trkpt>
      <trkpt lat="47.550497" lon="7.905558">
        <ele>298.569737</ele>
        <time>2021-11-14T21:38:10.946Z</time>
      </trkpt>
      <trkpt lat="47.550283" lon="7.905413">
        <ele>299.416013</ele>
        <time>2021-11-14T21:38:18.708Z</time>
      </trkpt>
      <trkpt lat="47.550283" lon="7.905413">
        <ele>299.416013</ele>
        <time>2021-11-14T21:38:18.910Z</time>
      </trkpt>
      <trkpt lat="47.550067" lon="7.905245">
        <ele>300.293352</ele>
        <time>2021-11-14T21:38:26.771Z</time>
      </trkpt>
      <trkpt lat="47.549867" lon="7.905155">
        <ele>301.045063</ele>
        <time>2021-11-14T21:38:34.909Z</time>
      </trkpt>
      <trkpt lat="47.549868" lon="7.905010">
        <ele>301.397045</ele>
        <time>2021-11-14T21:38:37.983Z</time>
      </trkpt>
      <trkpt lat="47.550025" lon="7.904774">
        <ele>302.201383</ele>
        <time>2021-11-14T21:38:46.595Z</time>
      </trkpt>
      <trkpt lat="47.550302" lon="7.904164">
        <ele>303.985972</ele>
        <time>2021-11-14T21:39:04.431Z</time>
      </trkpt>
      <trkpt lat="47.550498" lon="7.903445">
        <ele>305.884705</ele>
        <time>2021-11-14T21:39:23.827Z</time>
      </trkpt>
      <trkpt lat="47.550688" lon="7.902451">
        <ele>308.414887</ele>
        <time>2021-11-14T21:39:46.375Z</time>
      </trkpt>
      <trkpt lat="47.550757" lon="7.901591">
        <ele>310.535964</ele>
        <time>2021-11-14T21:40:06.171Z</time>
      </trkpt>
      <trkpt lat="47.550769" lon="7.901362">
        <ele>311.191427</ele>
        <time>2021-11-14T21:40:12.079Z</time>
      </trkpt>
      <trkpt lat="47.550801" lon="7.900244">
        <ele>314.402708</ele>
        <time>2021-11-14T21:40:36.477Z</time>
      </trkpt>
      <trkpt lat="47.550819" lon="7.898109">
        <ele>319.786270</ele>
        <time>2021-11-14T21:41:23.517Z</time>
      </trkpt>
      <trkpt lat="47.550648" lon="7.896481">
        <ele>323.001748</ele>
        <time>2021-11-14T21:41:51.172Z</time>
      </trkpt>
      <trkpt lat="47.550639" lon="7.896345">
        <ele>323.268442</ele>
        <time>2021-11-14T21:41:53.547Z</time>
      </trkpt>
      <trkpt lat="47.550660" lon="7.896255">
        <ele>323.426538</ele>
        <time>2021-11-14T21:41:54.348Z</time>
      </trkpt>
      <trkpt lat="47.550838" lon="7.895509">
        <ele>324.083448</ele>
        <time>2021-11-14T21:42:04.516Z</time>
      </trkpt>
      <trkpt lat="47.550878" lon="7.895158">
        <ele>324.378980</ele>
        <time>2021-11-14T21:42:08.578Z</time>
      </trkpt>
      <trkpt lat="47.550908" lon="7.894308">
        <ele>325.085632</ele>
        <time>2021-11-14T21:42:19.050Z</time>
      </trkpt>
      <trkpt lat="47.550892" lon="7.893176">
        <ele>326.885458</ele>
        <time>2021-11-14T21:42:33.768Z</time>
      </trkpt>
      <trkpt lat="47.550904" lon="7.891725">
        <ele>330.634106</ele>
        <time>2021-11-14T21:43:03.530Z</time>
      </trkpt>
      <trkpt lat="47.550915" lon="7.890600">
        <ele>334.191069</ele>
        <time>2021-11-14T21:43:32.370Z</time>
      </trkpt>
      <trkpt lat="47.550833" lon="7.889069">
        <ele>340.644943</ele>
        <time>2021-11-14T21:44:15.004Z</time>
      </trkpt>
      <trkpt lat="47.550831" lon="7.888611">
        <ele>342.569616</ele>
        <time>2021-11-14T21:44:27.574Z</time>
      </trkpt>
      <trkpt lat="47.550789" lon="7.887816">
        <ele>345.753349</ele>
        <time>2021-11-14T21:44:48.186Z</time>
      </trkpt>
      <trkpt lat="47.550758" lon="7.887295">
        <ele>347.785551</ele>
        <time>2021-11-14T21:45:02.007Z</time>
      </trkpt>
      <trkpt lat="47.550677" lon="7.886476">
        <ele>351.001769</ele>
        <time>2021-11-14T21:45:23.496Z</time>
      </trkpt>
      <trkpt lat="47.550548" lon="7.885799">
        <ele>353.735086</ele>
        <time>2021-11-14T21:45:40.699Z</time>
      </trkpt>
      <trkpt lat="47.550391" lon="7.885109">
        <ele>355.990156</ele>
        <time>2021-11-14T21:45:58.336Z</time>
      </trkpt>
      <trkpt lat="47.550332" lon="7.884727">
        <ele>357.164260</ele>
        <time>2021-11-14T21:46:07.027Z</time>
      </trkpt>
      <trkpt lat="47.550234" lon="7.883221">
        <ele>361.697356</ele>
        <time>2021-11-14T21:46:39.858Z</time>
      </trkpt>
      <trkpt lat="47.549927" lon="7.881490">
        <ele>366.045072</ele>
        <time>2021-11-14T21:47:12.122Z</time>
      </trkpt>
      <trkpt lat="47.549726" lon="7.880786">
        <ele>367.872360</ele>
        <time>2021-11-14T21:47:28.099Z</time>
      </trkpt>
      <trkpt lat="47.549327" lon="7.879547">
        <ele>371.693122</ele>
        <time>2021-11-14T21:47:57.883Z</time>
      </trkpt>
      <trkpt lat="47.549318" lon="7.879398">
        <ele>372.121000</ele>
        <time>2021-11-14T21:48:01.071Z</time>
      </trkpt>
      <trkpt lat="47.549140" lon="7.879391">
        <ele>372.875569</ele>
        <time>2021-11-14T21:48:07.941Z</time>
      </trkpt>
      <trkpt lat="47.548718" lon="7.879258">
        <ele>374.703875</ele>
        <time>2021-11-14T21:48:21.612Z</time>
      </trkpt>
      <trkpt lat="47.548422" lon="7.878959">
        <ele>376.089509</ele>
        <time>2021-11-14T21:48:32.259Z</time>
      </trkpt>
      <trkpt lat="47.548234" lon="7.878638">
        <ele>376.454705</ele>
        <time>2021-11-14T21:48:40.691Z</time>
      </trkpt>
      <trkpt lat="47.547992" lon="7.877974">
        <ele>377.103145</ele>
        <time>2021-11-14T21:48:53.788Z</time>
      </trkpt>
      <trkpt lat="47.547574" lon="7.876801">
        <ele>378.242961</ele>
        <time>2021-11-14T21:49:07.551Z</time>
      </trkpt>
      <trkpt lat="47.547126" lon="7.875801">
        <ele>375.753392</ele>
        <time>2021-11-14T21:49:16.334Z</time>
      </trkpt>
      <trkpt lat="47.546309" lon="7.874154">
        <ele>370.036059</ele>
        <time>2021-11-14T21:49:29.522Z</time>
      </trkpt>
      <trkpt lat="47.546135" lon="7.873859">
        <ele>368.341449</ele>
        <time>2021-11-14T21:49:31.904Z</time>
      </trkpt>
      <trkpt lat="47.546077" lon="7.873763">
        <ele>367.784140</ele>
        <time>2021-11-14T21:49:32.715Z</time>
      </trkpt>
      <trkpt lat="47.545934" lon="7.873549">
        <ele>366.481568</ele>
        <time>2021-11-14T21:49:34.520Z</time>
      </trkpt>
      <trkpt lat="47.545746" lon="7.873302">
        <ele>364.871270</ele>
        <time>2021-11-14T21:49:36.808Z</time>
      </trkpt>
      <trkpt lat="47.545515" lon="7.873015">
        <ele>362.939260</ele>
        <time>2021-11-14T21:49:39.507Z</time>
      </trkpt>
      <trkpt lat="47.545478" lon="7.872968">
        <ele>362.626921</ele>
        <time>2021-11-14T21:49:39.949Z</time>
      </trkpt>
      <trkpt lat="47.545375" lon="7.872836">
        <ele>361.754156</ele>
        <time>2021-11-14T21:49:41.142Z</time>
      </trkpt>
      <trkpt lat="47.545131" lon="7.872664">
        <ele>360.010480</ele>
        <time>2021-11-14T21:49:43.601Z</time>
      </trkpt>
      <trkpt lat="47.544883" lon="7.872555">
        <ele>358.319103</ele>
        <time>2021-11-14T21:49:45.924Z</time>
      </trkpt>
      <trkpt lat="47.544390" lon="7.872423">
        <ele>355.043453</ele>
        <time>2021-11-14T21:49:50.388Z</time>
      </trkpt>
      <trkpt lat="47.543332" lon="7.872237">
        <ele>348.855745</ele>
        <time>2021-11-14T21:50:00.155Z</time>
      </trkpt>
      <trkpt lat="47.543251" lon="7.872152">
        <ele>348.855745</ele>
        <time>2021-11-14T21:50:01.096Z</time>
      </trkpt>
      <trkpt lat="47.543233" lon="7.872082">
        <ele>348.855745</ele>
        <time>2021-11-14T21:50:01.517Z</time>
      </trkpt>
      <trkpt lat="47.543013" lon="7.872182">
        <ele>348.855745</ele>
        <time>2021-11-14T21:50:03.755Z</time>
      </trkpt>
      <trkpt lat="47.542919" lon="7.872226">
        <ele>348.855745</ele>
        <time>2021-11-14T21:50:04.681Z</time>
      </trkpt>
      <trkpt lat="47.542814" lon="7.872280">
        <ele>348.855745</ele>
        <time>2021-11-14T21:50:05.732Z</time>
      </trkpt>
      <trkpt lat="47.542714" lon="7.872334">
        <ele>348.855745</ele>
        <time>2021-11-14T21:50:06.807Z</time>
      </trkpt>
      <trkpt lat="47.542537" lon="7.872430">
        <ele>348.855745</ele>
        <time>2021-11-14T21:50:08.537Z</time>
      </trkpt>
      <trkpt lat="47.542436" lon="7.872494">
        <ele>348.855745</ele>
        <time>2021-11-14T21:50:09.841Z</time>
      </trkpt>
      <trkpt lat="47.542394" lon="7.872341">
        <ele>348.855745</ele>
        <time>2021-11-14T21:50:10.917Z</time>
      </trkpt>
      <trkpt lat="47.542218" lon="7.871866">
        <ele>348.855745</ele>
        <time>2021-11-14T21:50:14.562Z</time>
      </trkpt>
      <trkpt lat="47.542091" lon="7.871721">
        <ele>348.855745</ele>
        <time>2021-11-14T21:50:16.079Z</time>
      </trkpt>
      <trkpt lat="47.542067" lon="7.871664">
        <ele>348.855745</ele>
        <time>2021-11-14T21:50:16.774Z</time>
      </trkpt>
      <trkpt lat="47.542039" lon="7.871556">
        <ele>348.855745</ele>
        <time>2021-11-14T21:50:17.655Z</time>
      </trkpt>
      <trkpt lat="47.542015" lon="7.871481">
        <ele>348.855745</ele>
        <time>2021-11-14T21:50:18.217Z</time>
      </trkpt>
    </trkseg>
  </trk>
</gpx>